Wetterdaten: Freitag, 11.08.2017
Datum Zeit Temp. A. Pool Temp. Feuchte A. Luftdruck Regen Wind Richtung Richtung Sonnenschein ET UV Solar Taupunkt Windchill Windben Empfang
11.08.2017 00:00 13,7 C 23,3 C 90 % 1016,5 hPa 0,0 l/m 18,3 km/h (3 Bft) SW 235 0 min 0,000 mm 0,0 UV-I 0 W/m 12,1 C 8,6 C 30,6 km/h (5 Bft) 96,00 %
11.08.2017 00:02 13,7 C 23,3 C 90 % 1016,3 hPa 0,0 l/m 14,8 km/h (3 Bft) W-SW 245 0 min 0,000 mm 0,0 UV-I 0 W/m 12,1 C 9,7 C 22,5 km/h (4 Bft) 97,37 %
11.08.2017 00:04 13,7 C 23,3 C 90 % 1015,8 hPa 0,0 l/m 14,3 km/h (3 Bft) S-SW 213 0 min 0,000 mm 0,0 UV-I 0 W/m 12,1 C 9,9 C 22,5 km/h (4 Bft) 97,73 %
11.08.2017 00:06 13,7 C 23,3 C 90 % 1015,8 hPa 0,0 l/m 14,3 km/h (3 Bft) W 268 0 min 0,000 mm 0,0 UV-I 0 W/m 12,1 C 9,9 C 24,1 km/h (4 Bft) 98,00 %
11.08.2017 00:08 13,7 C 23,3 C 90 % 1015,9 hPa 0,0 l/m 16,6 km/h (3 Bft) W 262 0 min 0,000 mm 0,0 UV-I 0 W/m 12,1 C 9,1 C 24,1 km/h (4 Bft) 97,62 %
11.08.2017 00:10 13,6 C 23,3 C 90 % 1016,1 hPa 0,0 l/m 14,9 km/h (3 Bft) W-SW 249 0 min 0,000 mm 0,0 UV-I 0 W/m 12,0 C 9,5 C 22,5 km/h (4 Bft) 98,00 %
11.08.2017 00:12 13,6 C 23,3 C 90 % 1016,0 hPa 0,0 l/m 16,4 km/h (3 Bft) W-SW 256 0 min 0,000 mm 0,0 UV-I 0 W/m 12,0 C 9,0 C 24,1 km/h (4 Bft) 97,73 %
11.08.2017 00:14 13,6 C 23,3 C 90 % 1015,9 hPa 0,0 l/m 14,3 km/h (3 Bft) W-SW 254 0 min 0,000 mm 0,0 UV-I 0 W/m 12,0 C 9,7 C 22,5 km/h (4 Bft) 98,11 %
11.08.2017 00:16 13,6 C 23,3 C 91 % 1016,0 hPa 0,0 l/m 14,0 km/h (3 Bft) SW 236 0 min 0,000 mm 0,0 UV-I 0 W/m 12,2 C 9,9 C 19,3 km/h (3 Bft) 96,55 %
11.08.2017 00:18 13,6 C 23,3 C 91 % 1016,0 hPa 0,0 l/m 16,5 km/h (3 Bft) W-SW 240 0 min 0,000 mm 0,0 UV-I 0 W/m 12,2 C 9,0 C 24,1 km/h (4 Bft) 100,00 %
11.08.2017 00:20 13,6 C 23,3 C 90 % 1015,8 hPa 0,0 l/m 15,3 km/h (3 Bft) W-SW 247 0 min 0,000 mm 0,0 UV-I 0 W/m 12,0 C 9,4 C 22,5 km/h (4 Bft) 100,00 %
11.08.2017 00:22 13,6 C 23,3 C 91 % 1016,2 hPa 0,0 l/m 12,0 km/h (2 Bft) S-SW 211 0 min 0,000 mm 0,0 UV-I 0 W/m 12,2 C 10,7 C 16,1 km/h (3 Bft) 100,00 %
11.08.2017 00:24 13,6 C 23,3 C 91 % 1016,6 hPa 0,0 l/m 14,7 km/h (3 Bft) W-SW 239 0 min 0,000 mm 0,0 UV-I 0 W/m 12,2 C 9,6 C 20,9 km/h (4 Bft) 100,00 %
11.08.2017 00:26 13,6 C 23,3 C 91 % 1016,6 hPa 0,0 l/m 13,9 km/h (3 Bft) W-SW 251 0 min 0,000 mm 0,0 UV-I 0 W/m 12,2 C 9,9 C 20,9 km/h (4 Bft) 100,00 %
11.08.2017 00:28 13,6 C 23,3 C 91 % 1016,6 hPa 0,0 l/m 11,1 km/h (2 Bft) SW 220 0 min 0,000 mm 0,0 UV-I 0 W/m 12,2 C 11,1 C 17,7 km/h (3 Bft) 100,00 %
11.08.2017 00:30 13,6 C 23,3 C 91 % 1016,6 hPa 0,0 l/m 10,7 km/h (2 Bft) W-SW 246 0 min 0,000 mm 0,0 UV-I 0 W/m 12,2 C 11,2 C 16,1 km/h (3 Bft) 100,00 %
11.08.2017 00:32 13,7 C 23,3 C 91 % 1016,6 hPa 0,0 l/m 11,5 km/h (2 Bft) W-SW 252 0 min 0,000 mm 0,0 UV-I 0 W/m 12,3 C 11,0 C 20,9 km/h (4 Bft) 98,11 %
11.08.2017 00:34 13,6 C 23,3 C 91 % 1016,5 hPa 0,0 l/m 10,5 km/h (2 Bft) W-SW 250 0 min 0,000 mm 0,0 UV-I 0 W/m 12,2 C 11,3 C 20,9 km/h (4 Bft) 97,56 %
11.08.2017 00:36 13,6 C 23,3 C 91 % 1016,4 hPa 0,0 l/m 11,0 km/h (2 Bft) SW 219 0 min 0,000 mm 0,0 UV-I 0 W/m 12,2 C 11,1 C 17,7 km/h (3 Bft) 98,11 %
11.08.2017 00:38 13,6 C 23,3 C 91 % 1016,3 hPa 0,0 l/m 10,7 km/h (2 Bft) W 265 0 min 0,000 mm 0,0 UV-I 0 W/m 12,2 C 11,2 C 17,7 km/h (3 Bft) 100,00 %
11.08.2017 00:40 13,6 C 23,3 C 91 % 1016,4 hPa 0,0 l/m 10,0 km/h (2 Bft) SW 232 0 min 0,000 mm 0,0 UV-I 0 W/m 12,2 C 11,6 C 16,1 km/h (3 Bft) 100,00 %
11.08.2017 00:42 13,6 C 23,3 C 91 % 1016,5 hPa 0,0 l/m 10,1 km/h (2 Bft) SW 229 0 min 0,000 mm 0,0 UV-I 0 W/m 12,2 C 11,5 C 16,1 km/h (3 Bft) 100,00 %
11.08.2017 00:44 13,6 C 23,3 C 91 % 1016,6 hPa 0,0 l/m 10,0 km/h (2 Bft) S 186 0 min 0,000 mm 0,0 UV-I 0 W/m 12,2 C 11,6 C 14,5 km/h (3 Bft) 100,00 %
11.08.2017 00:46 13,6 C 23,3 C 91 % 1016,5 hPa 0,0 l/m 13,3 km/h (3 Bft) W-SW 240 0 min 0,000 mm 0,0 UV-I 0 W/m 12,2 C 10,1 C 22,5 km/h (4 Bft) 98,00 %
11.08.2017 00:48 13,6 C 23,3 C 91 % 1016,4 hPa 0,0 l/m 7,8 km/h (2 Bft) W-SW 246 0 min 0,000 mm 0,0 UV-I 0 W/m 12,2 C 12,7 C 11,3 km/h (2 Bft) 100,00 %
11.08.2017 00:50 13,6 C 23,3 C 91 % 1016,3 hPa 0,0 l/m 9,2 km/h (2 Bft) W-SW 248 0 min 0,000 mm 0,0 UV-I 0 W/m 12,2 C 12,0 C 17,7 km/h (3 Bft) 100,00 %
11.08.2017 00:52 13,6 C 23,3 C 91 % 1016,3 hPa 0,0 l/m 12,6 km/h (3 Bft) SW 221 0 min 0,000 mm 0,0 UV-I 0 W/m 12,2 C 10,4 C 19,3 km/h (3 Bft) 100,00 %
11.08.2017 00:54 13,6 C 23,3 C 90 % 1016,2 hPa 0,0 l/m 9,4 km/h (2 Bft) W 272 0 min 0,000 mm 0,0 UV-I 0 W/m 12,0 C 11,9 C 16,1 km/h (3 Bft) 100,00 %
11.08.2017 00:56 13,6 C 23,3 C 91 % 1015,8 hPa 0,0 l/m 10,3 km/h (2 Bft) W-SW 248 0 min 0,000 mm 0,0 UV-I 0 W/m 12,2 C 11,4 C 16,1 km/h (3 Bft) 100,00 %
11.08.2017 00:58 13,6 C 23,3 C 90 % 1015,9 hPa 0,0 l/m 9,3 km/h (2 Bft) W-SW 238 0 min 0,000 mm 0,0 UV-I 0 W/m 12,0 C 11,9 C 12,9 km/h (3 Bft) 100,00 %
11.08.2017 01:00 13,6 C 23,3 C 91 % 1015,8 hPa 0,0 l/m 9,7 km/h (2 Bft) W 263 0 min 0,025 mm 0,0 UV-I 0 W/m 12,2 C 11,7 C 17,7 km/h (3 Bft) 98,00 %
11.08.2017 01:02 13,6 C 23,3 C 90 % 1015,7 hPa 0,0 l/m 14,4 km/h (3 Bft) W-SW 254 0 min 0,000 mm 0,0 UV-I 0 W/m 12,0 C 9,7 C 20,9 km/h (4 Bft) 97,56 %
11.08.2017 01:04 13,6 C 23,3 C 90 % 1015,7 hPa 0,0 l/m 14,0 km/h (3 Bft) W-SW 240 0 min 0,000 mm 0,0 UV-I 0 W/m 12,0 C 9,9 C 17,7 km/h (3 Bft) 96,00 %
11.08.2017 01:06 13,6 C 23,3 C 91 % 1015,7 hPa 0,0 l/m 11,9 km/h (2 Bft) S-SW 209 0 min 0,000 mm 0,0 UV-I 0 W/m 12,2 C 10,7 C 17,7 km/h (3 Bft) 93,62 %
11.08.2017 01:08 13,6 C 23,3 C 91 % 1015,9 hPa 0,0 l/m 9,0 km/h (2 Bft) W-SW 241 0 min 0,000 mm 0,0 UV-I 0 W/m 12,2 C 12,1 C 12,9 km/h (3 Bft) 98,00 %
11.08.2017 01:10 13,5 C 23,3 C 91 % 1016,1 hPa 0,0 l/m 9,8 km/h (2 Bft) W-SW 242 0 min 0,000 mm 0,0 UV-I 0 W/m 12,1 C 11,6 C 17,7 km/h (3 Bft) 97,37 %
11.08.2017 01:12 13,5 C 23,3 C 91 % 1016,0 hPa 0,0 l/m 7,4 km/h (2 Bft) SW 225 0 min 0,000 mm 0,0 UV-I 0 W/m 12,1 C 12,9 C 12,9 km/h (3 Bft) 98,00 %
11.08.2017 01:14 13,5 C 23,3 C 91 % 1015,9 hPa 0,0 l/m 9,7 km/h (2 Bft) W-SW 252 0 min 0,000 mm 0,0 UV-I 0 W/m 12,1 C 11,6 C 17,7 km/h (3 Bft) 96,55 %
11.08.2017 01:16 13,5 C 23,3 C 91 % 1015,9 hPa 0,0 l/m 13,7 km/h (3 Bft) SW 221 0 min 0,000 mm 0,0 UV-I 0 W/m 12,1 C 9,9 C 22,5 km/h (4 Bft) 98,59 %
11.08.2017 01:18 13,5 C 23,3 C 91 % 1016,2 hPa 0,0 l/m 11,9 km/h (2 Bft) SW 232 0 min 0,000 mm 0,0 UV-I 0 W/m 12,1 C 10,6 C 17,7 km/h (3 Bft) 97,56 %
11.08.2017 01:20 13,5 C 23,3 C 91 % 1016,2 hPa 0,0 l/m 8,7 km/h (2 Bft) S-SW 201 0 min 0,000 mm 0,0 UV-I 0 W/m 12,1 C 12,1 C 16,1 km/h (3 Bft) 98,00 %
11.08.2017 01:22 13,5 C 23,3 C 91 % 1016,0 hPa 0,0 l/m 7,5 km/h (2 Bft) W-SW 251 0 min 0,000 mm 0,0 UV-I 0 W/m 12,1 C 12,8 C 11,3 km/h (2 Bft) 93,75 %
11.08.2017 01:24 13,5 C 23,3 C 91 % 1015,7 hPa 0,0 l/m 9,7 km/h (2 Bft) W-SW 250 0 min 0,000 mm 0,0 UV-I 0 W/m 12,1 C 11,6 C 16,1 km/h (3 Bft) 97,87 %
11.08.2017 01:26 13,5 C 23,3 C 91 % 1015,5 hPa 0,0 l/m 10,0 km/h (2 Bft) W-SW 243 0 min 0,000 mm 0,0 UV-I 0 W/m 12,1 C 11,5 C 14,5 km/h (3 Bft) 97,73 %
11.08.2017 01:28 13,5 C 23,3 C 91 % 1015,6 hPa 0,0 l/m 7,6 km/h (2 Bft) W 269 0 min 0,000 mm 0,0 UV-I 0 W/m 12,1 C 12,8 C 14,5 km/h (3 Bft) 98,11 %
11.08.2017 01:30 13,5 C 23,3 C 90 % 1015,3 hPa 0,0 l/m 7,0 km/h (2 Bft) W-SW 257 0 min 0,000 mm 0,0 UV-I 0 W/m 11,9 C 13,1 C 12,9 km/h (3 Bft) 95,12 %
11.08.2017 01:32 13,5 C 23,3 C 91 % 1015,6 hPa 0,0 l/m 6,9 km/h (2 Bft) S-SW 213 0 min 0,000 mm 0,0 UV-I 0 W/m 12,1 C 13,2 C 11,3 km/h (2 Bft) 97,78 %
11.08.2017 01:34 13,5 C 23,3 C 90 % 1016,1 hPa 0,0 l/m 11,9 km/h (2 Bft) W-SW 253 0 min 0,000 mm 0,0 UV-I 0 W/m 11,9 C 10,6 C 17,7 km/h (3 Bft) 98,11 %
11.08.2017 01:36 13,5 C 23,3 C 90 % 1015,9 hPa 0,0 l/m 13,3 km/h (3 Bft) SW 229 0 min 0,000 mm 0,0 UV-I 0 W/m 11,9 C 10,0 C 20,9 km/h (4 Bft) 94,00 %
11.08.2017 01:38 13,5 C 23,3 C 90 % 1015,8 hPa 0,0 l/m 10,1 km/h (2 Bft) W-SW 240 0 min 0,000 mm 0,0 UV-I 0 W/m 11,9 C 11,4 C 16,1 km/h (3 Bft) 100,00 %
11.08.2017 01:40 13,5 C 23,3 C 90 % 1015,8 hPa 0,0 l/m 6,9 km/h (2 Bft) SW 225 0 min 0,000 mm 0,0 UV-I 0 W/m 11,9 C 13,2 C 12,9 km/h (3 Bft) 97,56 %
11.08.2017 01:42 13,5 C 23,3 C 90 % 1015,6 hPa 0,0 l/m 8,7 km/h (2 Bft) W 273 0 min 0,000 mm 0,0 UV-I 0 W/m 11,9 C 12,1 C 14,5 km/h (3 Bft) 98,11 %
11.08.2017 01:44 13,5 C 23,3 C 90 % 1015,6 hPa 0,0 l/m 6,3 km/h (2 Bft) SW 236 0 min 0,000 mm 0,0 UV-I 0 W/m 11,9 C 13,5 C 9,7 km/h (2 Bft) 100,00 %
11.08.2017 01:46 13,5 C 23,3 C 91 % 1015,5 hPa 0,0 l/m 9,9 km/h (2 Bft) SW 234 0 min 0,000 mm 0,0 UV-I 0 W/m 12,1 C 11,5 C 16,1 km/h (3 Bft) 97,37 %
11.08.2017 01:48 13,6 C 23,3 C 91 % 1015,5 hPa 0,0 l/m 7,6 km/h (2 Bft) W-SW 240 0 min 0,000 mm 0,0 UV-I 0 W/m 12,2 C 12,9 C 11,3 km/h (2 Bft) 98,00 %
11.08.2017 01:50 13,5 C 23,3 C 91 % 1015,5 hPa 0,0 l/m 8,3 km/h (2 Bft) W-SW 250 0 min 0,000 mm 0,0 UV-I 0 W/m 12,1 C 12,4 C 12,9 km/h (3 Bft) 100,00 %
11.08.2017 01:52 13,5 C 23,3 C 91 % 1015,5 hPa 0,0 l/m 6,2 km/h (2 Bft) S-SW 213 0 min 0,000 mm 0,0 UV-I 0 W/m 12,1 C 13,5 C 11,3 km/h (2 Bft) 96,23 %
11.08.2017 01:54 13,5 C 23,3 C 91 % 1015,3 hPa 0,0 l/m 7,1 km/h (2 Bft) W-SW 244 0 min 0,000 mm 0,0 UV-I 0 W/m 12,1 C 13,1 C 14,5 km/h (3 Bft) 100,00 %
11.08.2017 01:56 13,5 C 23,3 C 91 % 1015,2 hPa 0,0 l/m 5,7 km/h (1 Bft) W 267 0 min 0,000 mm 0,0 UV-I 0 W/m 12,1 C 13,5 C 11,3 km/h (2 Bft) 100,00 %
11.08.2017 01:58 13,5 C 23,3 C 90 % 1015,0 hPa 0,0 l/m 3,2 km/h (1 Bft) W 260 0 min 0,000 mm 0,0 UV-I 0 W/m 11,9 C 13,5 C 4,8 km/h (1 Bft) 98,11 %
11.08.2017 02:00 13,5 C 23,3 C 90 % 1014,7 hPa 0,0 l/m 1,7 km/h (1 Bft) W 260 0 min 0,026 mm 0,0 UV-I 0 W/m 11,9 C 13,5 C 4,8 km/h (1 Bft) 100,00 %
11.08.2017 02:02 13,5 C 23,3 C 91 % 1014,7 hPa 0,0 l/m 2,6 km/h (1 Bft) W 260 0 min 0,000 mm 0,0 UV-I 0 W/m 12,1 C 13,5 C 4,8 km/h (1 Bft) 100,00 %
11.08.2017 02:04 13,5 C 23,3 C 90 % 1014,8 hPa 0,0 l/m 7,0 km/h (2 Bft) W-SW 244 0 min 0,000 mm 0,0 UV-I 0 W/m 11,9 C 13,1 C 11,3 km/h (2 Bft) 98,21 %
11.08.2017 02:06 13,5 C 23,3 C 90 % 1014,7 hPa 0,0 l/m 5,3 km/h (1 Bft) W-SW 256 0 min 0,000 mm 0,0 UV-I 0 W/m 11,9 C 13,5 C 9,7 km/h (2 Bft) 100,00 %
11.08.2017 02:08 13,5 C 23,3 C 90 % 1014,8 hPa 0,0 l/m 5,6 km/h (1 Bft) W-SW 237 0 min 0,000 mm 0,0 UV-I 0 W/m 11,9 C 13,5 C 8,0 km/h (2 Bft) 100,00 %
11.08.2017 02:10 13,5 C 23,3 C 91 % 1015,1 hPa 0,0 l/m 5,7 km/h (1 Bft) SW 217 0 min 0,000 mm 0,0 UV-I 0 W/m 12,1 C 13,5 C 8,0 km/h (2 Bft) 100,00 %
11.08.2017 02:12 13,5 C 23,3 C 91 % 1015,1 hPa 0,0 l/m 5,2 km/h (1 Bft) SW 236 0 min 0,000 mm 0,0 UV-I 0 W/m 12,1 C 13,5 C 9,7 km/h (2 Bft) 100,00 %
11.08.2017 02:14 13,6 C 23,3 C 91 % 1015,1 hPa 0,0 l/m 4,0 km/h (1 Bft) SW 236 0 min 0,000 mm 0,0 UV-I 0 W/m 12,2 C 13,6 C 6,4 km/h (2 Bft) 100,00 %
11.08.2017 02:16 13,6 C 23,3 C 91 % 1015,2 hPa 0,0 l/m 7,1 km/h (2 Bft) W-SW 238 0 min 0,000 mm 0,0 UV-I 0 W/m 12,2 C 13,2 C 9,7 km/h (2 Bft) 100,00 %
11.08.2017 02:18 13,6 C 23,3 C 91 % 1015,2 hPa 0,0 l/m 6,3 km/h (2 Bft) W-SW 237 0 min 0,000 mm 0,0 UV-I 0 W/m 12,2 C 13,6 C 9,7 km/h (2 Bft) 97,37 %
11.08.2017 02:20 13,6 C 23,3 C 91 % 1015,1 hPa 0,0 l/m 6,2 km/h (2 Bft) SW 227 0 min 0,000 mm 0,0 UV-I 0 W/m 12,2 C 13,6 C 8,0 km/h (2 Bft) 100,00 %
11.08.2017 02:22 13,6 C 23,3 C 91 % 1015,1 hPa 0,0 l/m 5,8 km/h (2 Bft) W 267 0 min 0,000 mm 0,0 UV-I 0 W/m 12,2 C 13,6 C 9,7 km/h (2 Bft) 100,00 %
11.08.2017 02:24 13,6 C 23,3 C 91 % 1015,1 hPa 0,0 l/m 6,6 km/h (2 Bft) SW 235 0 min 0,000 mm 0,0 UV-I 0 W/m 12,2 C 13,5 C 9,7 km/h (2 Bft) 100,00 %
11.08.2017 02:26 13,6 C 23,3 C 91 % 1015,1 hPa 0,0 l/m 9,7 km/h (2 Bft) W 263 0 min 0,000 mm 0,0 UV-I 0 W/m 12,2 C 11,7 C 14,5 km/h (3 Bft) 100,00 %
11.08.2017 02:28 13,6 C 23,3 C 91 % 1015,0 hPa 0,0 l/m 8,9 km/h (2 Bft) W-SW 251 0 min 0,000 mm 0,0 UV-I 0 W/m 12,2 C 12,1 C 12,9 km/h (3 Bft) 100,00 %
11.08.2017 02:30 13,6 C 23,3 C 91 % 1014,9 hPa 0,0 l/m 10,1 km/h (2 Bft) W 259 0 min 0,000 mm 0,0 UV-I 0 W/m 12,2 C 11,5 C 14,5 km/h (3 Bft) 98,11 %
11.08.2017 02:32 13,6 C 23,3 C 91 % 1014,9 hPa 0,0 l/m 10,1 km/h (2 Bft) W-SW 251 0 min 0,000 mm 0,0 UV-I 0 W/m 12,2 C 11,5 C 14,5 km/h (3 Bft) 100,00 %
11.08.2017 02:34 13,6 C 23,3 C 91 % 1014,8 hPa 0,0 l/m 6,0 km/h (2 Bft) W 261 0 min 0,000 mm 0,0 UV-I 0 W/m 12,2 C 13,6 C 12,9 km/h (3 Bft) 100,00 %
11.08.2017 02:36 13,6 C 23,3 C 91 % 1014,9 hPa 0,0 l/m 4,6 km/h (1 Bft) W-SW 244 0 min 0,000 mm 0,0 UV-I 0 W/m 12,2 C 13,6 C 6,4 km/h (2 Bft) 100,00 %
11.08.2017 02:38 13,6 C 23,3 C 91 % 1015,0 hPa 0,0 l/m 5,0 km/h (1 Bft) SW 234 0 min 0,000 mm 0,0 UV-I 0 W/m 12,2 C 13,6 C 6,4 km/h (2 Bft) 100,00 %
11.08.2017 02:40 13,6 C 23,3 C 91 % 1015,0 hPa 0,0 l/m 5,4 km/h (1 Bft) SW 231 0 min 0,000 mm 0,0 UV-I 0 W/m 12,2 C 13,6 C 8,0 km/h (2 Bft) 100,00 %
11.08.2017 02:42 13,6 C 23,3 C 91 % 1014,8 hPa 0,0 l/m 4,3 km/h (1 Bft) W-SW 240 0 min 0,000 mm 0,0 UV-I 0 W/m 12,2 C 13,6 C 6,4 km/h (2 Bft) 100,00 %
11.08.2017 02:44 13,6 C 23,3 C 91 % 1014,7 hPa 0,0 l/m 3,7 km/h (1 Bft) W-SW 251 0 min 0,000 mm 0,0 UV-I 0 W/m 12,2 C 13,6 C 6,4 km/h (2 Bft) 100,00 %
11.08.2017 02:46 13,6 C 23,3 C 90 % 1014,6 hPa 0,0 l/m 5,8 km/h (2 Bft) W-SW 250 0 min 0,000 mm 0,0 UV-I 0 W/m 12,0 C 13,6 C 12,9 km/h (3 Bft) 100,00 %
11.08.2017 02:48 13,6 C 23,3 C 90 % 1014,6 hPa 0,0 l/m 8,5 km/h (2 Bft) W-SW 249 0 min 0,000 mm 0,0 UV-I 0 W/m 12,0 C 12,4 C 14,5 km/h (3 Bft) 100,00 %
11.08.2017 02:50 13,6 C 23,3 C 91 % 1014,6 hPa 0,0 l/m 7,0 km/h (2 Bft) SW 220 0 min 0,000 mm 0,0 UV-I 0 W/m 12,2 C 13,2 C 12,9 km/h (3 Bft) 100,00 %
11.08.2017 02:52 13,6 C 23,3 C 91 % 1014,7 hPa 0,0 l/m 8,4 km/h (2 Bft) W-SW 247 0 min 0,000 mm 0,0 UV-I 0 W/m 12,2 C 12,4 C 12,9 km/h (3 Bft) 98,11 %
11.08.2017 02:54 13,6 C 23,3 C 91 % 1014,7 hPa 0,0 l/m 8,3 km/h (2 Bft) W 276 0 min 0,000 mm 0,0 UV-I 0 W/m 12,2 C 12,5 C 14,5 km/h (3 Bft) 97,37 %
11.08.2017 02:56 13,6 C 23,3 C 91 % 1014,6 hPa 0,0 l/m 7,6 km/h (2 Bft) W 266 0 min 0,000 mm 0,0 UV-I 0 W/m 12,2 C 12,9 C 12,9 km/h (3 Bft) 98,00 %
11.08.2017 02:58 13,6 C 23,3 C 91 % 1014,5 hPa 0,0 l/m 8,0 km/h (2 Bft) W-SW 240 0 min 0,000 mm 0,0 UV-I 0 W/m 12,2 C 12,6 C 12,9 km/h (3 Bft) 98,11 %
11.08.2017 03:00 13,6 C 23,3 C 91 % 1014,5 hPa 0,0 l/m 6,4 km/h (2 Bft) W-SW 246 0 min 0,000 mm 0,0 UV-I 0 W/m 12,2 C 13,6 C 9,7 km/h (2 Bft) 97,37 %
11.08.2017 03:02 13,6 C 23,3 C 91 % 1014,5 hPa 0,0 l/m 3,0 km/h (1 Bft) W-NW 295 0 min 0,000 mm 0,0 UV-I 0 W/m 12,2 C 13,6 C 9,7 km/h (2 Bft) 98,00 %
11.08.2017 03:04 13,6 C 23,3 C 91 % 1014,4 hPa 0,0 l/m 5,1 km/h (1 Bft) W-SW 249 0 min 0,000 mm 0,0 UV-I 0 W/m 12,2 C 13,6 C 8,0 km/h (2 Bft) 96,00 %
11.08.2017 03:06 13,6 C 23,3 C 91 % 1014,5 hPa 0,0 l/m 3,5 km/h (1 Bft) W-SW 249 0 min 0,000 mm 0,0 UV-I 0 W/m 12,2 C 13,6 C 4,8 km/h (1 Bft) 95,74 %
11.08.2017 03:08 13,6 C 23,3 C 91 % 1014,6 hPa 0,0 l/m 6,0 km/h (2 Bft) SW 228 0 min 0,000 mm 0,0 UV-I 0 W/m 12,2 C 13,6 C 8,0 km/h (2 Bft) 95,12 %
11.08.2017 03:10 13,6 C 23,3 C 91 % 1014,7 hPa 0,0 l/m 5,0 km/h (1 Bft) SW 236 0 min 0,000 mm 0,0 UV-I 0 W/m 12,2 C 13,6 C 8,0 km/h (2 Bft) 96,00 %
11.08.2017 03:12 13,6 C 23,3 C 91 % 1014,6 hPa 0,0 l/m 5,7 km/h (1 Bft) SW 224 0 min 0,000 mm 0,0 UV-I 0 W/m 12,2 C 13,6 C 8,0 km/h (2 Bft) 93,62 %
11.08.2017 03:14 13,6 C 23,3 C 91 % 1014,4 hPa 0,0 l/m 4,2 km/h (1 Bft) SW 226 0 min 0,000 mm 0,0 UV-I 0 W/m 12,2 C 13,6 C 6,4 km/h (2 Bft) 97,37 %
11.08.2017 03:16 13,6 C 23,3 C 91 % 1014,4 hPa 0,0 l/m 6,3 km/h (2 Bft) W 269 0 min 0,000 mm 0,0 UV-I 0 W/m 12,2 C 13,6 C 11,3 km/h (2 Bft) 94,34 %
11.08.2017 03:18 13,6 C 23,3 C 91 % 1014,4 hPa 0,0 l/m 5,7 km/h (1 Bft) SW 234 0 min 0,000 mm 0,0 UV-I 0 W/m 12,2 C 13,6 C 11,3 km/h (2 Bft) 96,23 %
11.08.2017 03:20 13,6 C 23,3 C 91 % 1014,5 hPa 0,0 l/m 4,6 km/h (1 Bft) SW 223 0 min 0,000 mm 0,0 UV-I 0 W/m 12,2 C 13,6 C 6,4 km/h (2 Bft) 94,74 %
11.08.2017 03:22 13,6 C 23,3 C 91 % 1014,4 hPa 0,0 l/m 5,5 km/h (1 Bft) W-SW 240 0 min 0,000 mm 0,0 UV-I 0 W/m 12,2 C 13,6 C 8,0 km/h (2 Bft) 94,34 %
11.08.2017 03:24 13,6 C 23,3 C 91 % 1014,5 hPa 0,0 l/m 5,6 km/h (1 Bft) SW 236 0 min 0,000 mm 0,0 UV-I 0 W/m 12,2 C 13,6 C 6,4 km/h (2 Bft) 96,00 %
11.08.2017 03:26 13,6 C 23,3 C 91 % 1014,3 hPa 0,0 l/m 5,3 km/h (1 Bft) W 269 0 min 0,000 mm 0,0 UV-I 0 W/m 12,2 C 13,6 C 9,7 km/h (2 Bft) 94,87 %
11.08.2017 03:28 13,6 C 23,3 C 91 % 1014,1 hPa 0,0 l/m 5,8 km/h (2 Bft) W-NW 285 0 min 0,000 mm 0,0 UV-I 0 W/m 12,2 C 13,6 C 9,7 km/h (2 Bft) 96,36 %
11.08.2017 03:30 13,6 C 23,3 C 91 % 1014,1 hPa 0,0 l/m 3,7 km/h (1 Bft) SW 223 0 min 0,000 mm 0,0 UV-I 0 W/m 12,2 C 13,6 C 6,4 km/h (2 Bft) 94,44 %
11.08.2017 03:32 13,6 C 23,3 C 91 % 1014,3 hPa 0,0 l/m 5,0 km/h (1 Bft) W-SW 248 0 min 0,000 mm 0,0 UV-I 0 W/m 12,2 C 13,6 C 8,0 km/h (2 Bft) 95,12 %
11.08.2017 03:34 13,6 C 23,3 C 91 % 1014,4 hPa 0,0 l/m 5,2 km/h (1 Bft) W-SW 238 0 min 0,000 mm 0,0 UV-I 0 W/m 12,2 C 13,6 C 8,0 km/h (2 Bft) 94,92 %
11.08.2017 03:36 13,6 C 23,3 C 91 % 1014,4 hPa 0,0 l/m 1,5 km/h (1 Bft) W-SW 238 0 min 0,000 mm 0,0 UV-I 0 W/m 12,2 C 13,6 C 3,2 km/h (1 Bft) 96,00 %
11.08.2017 03:38 13,6 C 23,3 C 91 % 1014,4 hPa 0,0 l/m 4,3 km/h (1 Bft) W 275 0 min 0,000 mm 0,0 UV-I 0 W/m 12,2 C 13,6 C 6,4 km/h (2 Bft) 95,12 %
11.08.2017 03:40 13,6 C 23,3 C 91 % 1014,3 hPa 0,0 l/m 3,0 km/h (1 Bft) W 275 0 min 0,000 mm 0,0 UV-I 0 W/m 12,2 C 13,6 C 4,8 km/h (1 Bft) 98,11 %
11.08.2017 03:42 13,6 C 23,3 C 91 % 1014,2 hPa 0,0 l/m 3,1 km/h (1 Bft) W 275 0 min 0,000 mm 0,0 UV-I 0 W/m 12,2 C 13,6 C 4,8 km/h (1 Bft) 97,37 %
11.08.2017 03:44 13,6 C 23,3 C 91 % 1014,3 hPa 0,0 l/m 3,7 km/h (1 Bft) S-SW 200 0 min 0,000 mm 0,0 UV-I 0 W/m 12,2 C 13,6 C 6,4 km/h (2 Bft) 96,43 %
11.08.2017 03:46 13,6 C 23,3 C 91 % 1014,4 hPa 0,0 l/m 3,6 km/h (1 Bft) S-SW 200 0 min 0,000 mm 0,0 UV-I 0 W/m 12,2 C 13,6 C 4,8 km/h (1 Bft) 97,87 %
11.08.2017 03:48 13,6 C 23,3 C 91 % 1014,4 hPa 0,0 l/m 5,2 km/h (1 Bft) SW 232 0 min 0,000 mm 0,0 UV-I 0 W/m 12,2 C 13,6 C 9,7 km/h (2 Bft) 97,87 %
11.08.2017 03:50 13,6 C 23,3 C 91 % 1014,0 hPa 0,0 l/m 4,5 km/h (1 Bft) W 270 0 min 0,000 mm 0,0 UV-I 0 W/m 12,2 C 13,6 C 8,0 km/h (2 Bft) 97,14 %
11.08.2017 03:52 13,6 C 23,3 C 91 % 1013,7 hPa 0,0 l/m 5,1 km/h (1 Bft) W 264 0 min 0,000 mm 0,0 UV-I 0 W/m 12,2 C 13,6 C 8,0 km/h (2 Bft) 98,31 %
11.08.2017 03:54 13,6 C 23,3 C 91 % 1013,6 hPa 0,0 l/m 1,3 km/h (1 Bft) W 264 0 min 0,000 mm 0,0 UV-I 0 W/m 12,2 C 13,6 C 3,2 km/h (1 Bft) 97,56 %
11.08.2017 03:56 13,6 C 23,3 C 91 % 1013,7 hPa 0,0 l/m 1,0 km/h (0 Bft) W 264 0 min 0,000 mm 0,0 UV-I 0 W/m 12,2 C 13,6 C 3,2 km/h (1 Bft) 100,00 %
11.08.2017 03:58 13,6 C 23,3 C 91 % 1013,9 hPa 0,0 l/m 1,8 km/h (1 Bft) W 264 0 min 0,000 mm 0,0 UV-I 0 W/m 12,2 C 13,6 C 3,2 km/h (1 Bft) 100,00 %
11.08.2017 04:00 13,6 C 23,3 C 91 % 1013,9 hPa 0,0 l/m 2,4 km/h (1 Bft) W 264 0 min 0,000 mm 0,0 UV-I 0 W/m 12,2 C 13,6 C 4,8 km/h (1 Bft) 97,87 %
11.08.2017 04:02 13,6 C 23,3 C 91 % 1013,9 hPa 0,0 l/m 1,7 km/h (1 Bft) W 265 0 min 0,000 mm 0,0 UV-I 0 W/m 12,2 C 13,6 C 3,2 km/h (1 Bft) 100,00 %
11.08.2017 04:04 13,6 C 23,3 C 91 % 1013,7 hPa 0,0 l/m 3,3 km/h (1 Bft) W 266 0 min 0,000 mm 0,0 UV-I 0 W/m 12,2 C 13,6 C 4,8 km/h (1 Bft) 100,00 %
11.08.2017 04:06 13,6 C 23,3 C 91 % 1013,7 hPa 0,0 l/m 3,4 km/h (1 Bft) W 266 0 min 0,000 mm 0,0 UV-I 0 W/m 12,2 C 13,6 C 6,4 km/h (2 Bft) 98,00 %
11.08.2017 04:08 13,6 C 23,3 C 91 % 1013,6 hPa 0,0 l/m 1,4 km/h (1 Bft) W 266 0 min 0,000 mm 0,0 UV-I 0 W/m 12,2 C 13,6 C 4,8 km/h (1 Bft) 100,00 %
11.08.2017 04:10 13,6 C 23,3 C 91 % 1013,5 hPa 0,0 l/m 3,2 km/h (1 Bft) W 266 0 min 0,000 mm 0,0 UV-I 0 W/m 12,2 C 13,6 C 4,8 km/h (1 Bft) 100,00 %
11.08.2017 04:12 13,6 C 22,8 C 91 % 1013,7 hPa 0,0 l/m 5,6 km/h (1 Bft) W-SW 238 0 min 0,000 mm 0,0 UV-I 0 W/m 12,2 C 13,6 C 9,7 km/h (2 Bft) 100,00 %
11.08.2017 04:14 13,6 C 22,8 C 92 % 1014,0 hPa 0,0 l/m 6,2 km/h (2 Bft) W-SW 252 0 min 0,000 mm 0,0 UV-I 0 W/m 12,3 C 13,6 C 9,7 km/h (2 Bft) 100,00 %
11.08.2017 04:16 13,6 C 22,8 C 92 % 1014,1 hPa 0,0 l/m 6,4 km/h (2 Bft) W-SW 241 0 min 0,000 mm 0,0 UV-I 0 W/m 12,3 C 13,6 C 11,3 km/h (2 Bft) 100,00 %
11.08.2017 04:18 13,6 C 22,8 C 92 % 1014,4 hPa 0,0 l/m 7,5 km/h (2 Bft) SW 236 0 min 0,000 mm 0,0 UV-I 0 W/m 12,3 C 12,9 C 12,9 km/h (3 Bft) 100,00 %
11.08.2017 04:20 13,6 C 22,8 C 92 % 1014,4 hPa 0,0 l/m 7,3 km/h (2 Bft) SW 231 0 min 0,000 mm 0,0 UV-I 0 W/m 12,3 C 13,0 C 11,3 km/h (2 Bft) 100,00 %
11.08.2017 04:23 13,6 C 22,8 C 92 % 1014,2 hPa 0,0 l/m 7,4 km/h (2 Bft) W-SW 258 0 min 0,000 mm 0,0 UV-I 0 W/m 12,3 C 13,0 C 12,9 km/h (3 Bft) 97,56 %
11.08.2017 04:24 13,6 C 22,8 C 92 % 1014,2 hPa 0,0 l/m 5,2 km/h (1 Bft) W-SW 258 0 min 0,000 mm 0,0 UV-I 0 W/m 12,3 C 13,6 C 9,7 km/h (2 Bft) 100,00 %
11.08.2017 04:26 13,6 C 22,8 C 92 % 1014,4 hPa 0,0 l/m 5,1 km/h (1 Bft) SW 233 0 min 0,000 mm 0,0 UV-I 0 W/m 12,3 C 13,6 C 8,0 km/h (2 Bft) 100,00 %
11.08.2017 04:28 13,6 C 22,8 C 92 % 1014,4 hPa 0,0 l/m 3,2 km/h (1 Bft) SW 234 0 min 0,000 mm 0,0 UV-I 0 W/m 12,3 C 13,6 C 4,8 km/h (1 Bft) 100,00 %
11.08.2017 04:30 13,6 C 22,8 C 92 % 1014,3 hPa 0,0 l/m 5,3 km/h (1 Bft) W-SW 248 0 min 0,000 mm 0,0 UV-I 0 W/m 12,3 C 13,6 C 11,3 km/h (2 Bft) 100,00 %
11.08.2017 04:32 13,6 C 22,8 C 92 % 1014,3 hPa 0,0 l/m 8,1 km/h (2 Bft) W 262 0 min 0,000 mm 0,0 UV-I 0 W/m 12,3 C 12,6 C 12,9 km/h (3 Bft) 100,00 %
11.08.2017 04:34 13,6 C 22,8 C 92 % 1014,3 hPa 0,0 l/m 5,4 km/h (1 Bft) W 269 0 min 0,000 mm 0,0 UV-I 0 W/m 12,3 C 13,6 C 9,7 km/h (2 Bft) 100,00 %
11.08.2017 04:36 13,6 C 22,8 C 92 % 1014,3 hPa 0,0 l/m 3,7 km/h (1 Bft) SW 236 0 min 0,000 mm 0,0 UV-I 0 W/m 12,3 C 13,6 C 6,4 km/h (2 Bft) 97,87 %
11.08.2017 04:38 13,6 C 22,8 C 92 % 1014,4 hPa 0,0 l/m 3,3 km/h (1 Bft) W 261 0 min 0,000 mm 0,0 UV-I 0 W/m 12,3 C 13,6 C 4,8 km/h (1 Bft) 100,00 %
11.08.2017 04:40 13,6 C 22,8 C 92 % 1014,3 hPa 0,0 l/m 3,7 km/h (1 Bft) W 273 0 min 0,000 mm 0,0 UV-I 0 W/m 12,3 C 13,6 C 6,4 km/h (2 Bft) 100,00 %
11.08.2017 04:42 13,6 C 22,8 C 92 % 1013,9 hPa 0,0 l/m 4,0 km/h (1 Bft) W 273 0 min 0,000 mm 0,0 UV-I 0 W/m 12,3 C 13,6 C 6,4 km/h (2 Bft) 97,87 %
11.08.2017 04:44 13,6 C 22,8 C 92 % 1013,8 hPa 0,0 l/m 4,3 km/h (1 Bft) W-SW 241 0 min 0,000 mm 0,0 UV-I 0 W/m 12,3 C 13,6 C 6,4 km/h (2 Bft) 100,00 %
11.08.2017 04:46 13,6 C 22,8 C 92 % 1013,8 hPa 0,0 l/m 4,9 km/h (1 Bft) W-SW 256 0 min 0,000 mm 0,0 UV-I 0 W/m 12,3 C 13,6 C 11,3 km/h (2 Bft) 100,00 %
11.08.2017 04:48 13,6 C 22,8 C 92 % 1014,0 hPa 0,0 l/m 3,6 km/h (1 Bft) W-SW 258 0 min 0,000 mm 0,0 UV-I 0 W/m 12,3 C 13,6 C 9,7 km/h (2 Bft) 100,00 %
11.08.2017 04:50 13,5 C 22,8 C 92 % 1014,5 hPa 0,0 l/m 3,0 km/h (1 Bft) SW 234 0 min 0,000 mm 0,0 UV-I 0 W/m 12,2 C 13,5 C 6,4 km/h (2 Bft) 100,00 %
11.08.2017 04:52 13,5 C 22,8 C 92 % 1014,8 hPa 0,0 l/m 2,7 km/h (1 Bft) W-NW 287 0 min 0,000 mm 0,0 UV-I 0 W/m 12,2 C 13,5 C 6,4 km/h (2 Bft) 100,00 %
11.08.2017 04:54 13,4 C 22,8 C 92 % 1014,6 hPa 0,0 l/m 6,3 km/h (2 Bft) W-NW 290 0 min 0,000 mm 0,0 UV-I 0 W/m 12,1 C 13,4 C 11,3 km/h (2 Bft) 98,21 %
11.08.2017 04:56 13,4 C 22,8 C 92 % 1014,2 hPa 0,0 l/m 6,1 km/h (2 Bft) W-SW 245 0 min 0,000 mm 0,0 UV-I 0 W/m 12,1 C 13,4 C 11,3 km/h (2 Bft) 100,00 %
11.08.2017 04:58 13,4 C 22,8 C 92 % 1014,2 hPa 0,0 l/m 7,9 km/h (2 Bft) NW 323 0 min 0,000 mm 0,0 UV-I 0 W/m 12,1 C 12,5 C 12,9 km/h (3 Bft) 100,00 %
11.08.2017 05:00 13,4 C 22,8 C 92 % 1014,4 hPa 0,0 l/m 9,0 km/h (2 Bft) W-SW 248 0 min 0,000 mm 0,0 UV-I 0 W/m 12,1 C 11,9 C 14,5 km/h (3 Bft) 100,00 %
11.08.2017 05:02 13,4 C 22,8 C 92 % 1014,4 hPa 0,0 l/m 9,8 km/h (2 Bft) W-SW 254 0 min 0,000 mm 0,0 UV-I 0 W/m 12,1 C 11,5 C 14,5 km/h (3 Bft) 100,00 %
11.08.2017 05:04 13,3 C 22,8 C 92 % 1014,2 hPa 0,0 l/m 7,0 km/h (2 Bft) W-SW 248 0 min 0,000 mm 0,0 UV-I 0 W/m 12,0 C 12,9 C 11,3 km/h (2 Bft) 100,00 %
11.08.2017 05:06 13,3 C 22,8 C 91 % 1014,2 hPa 0,0 l/m 7,6 km/h (2 Bft) W-SW 250 0 min 0,000 mm 0,0 UV-I 0 W/m 11,9 C 12,6 C 14,5 km/h (3 Bft) 97,56 %
11.08.2017 05:08 13,3 C 22,8 C 91 % 1014,2 hPa 0,0 l/m 10,2 km/h (2 Bft) W-SW 252 0 min 0,000 mm 0,0 UV-I 0 W/m 11,9 C 11,1 C 16,1 km/h (3 Bft) 96,00 %
11.08.2017 05:10 13,3 C 22,8 C 91 % 1013,9 hPa 0,0 l/m 11,5 km/h (2 Bft) SW 225 0 min 0,000 mm 0,0 UV-I 0 W/m 11,9 C 10,5 C 19,3 km/h (3 Bft) 97,56 %
11.08.2017 05:12 13,3 C 22,8 C 91 % 1013,9 hPa 0,0 l/m 12,5 km/h (3 Bft) W 261 0 min 0,000 mm 0,0 UV-I 0 W/m 11,9 C 10,1 C 19,3 km/h (3 Bft) 98,00 %
11.08.2017 05:14 13,3 C 22,8 C 91 % 1014,3 hPa 0,0 l/m 8,4 km/h (2 Bft) SW 223 0 min 0,000 mm 0,0 UV-I 0 W/m 11,9 C 12,1 C 16,1 km/h (3 Bft) 98,04 %
11.08.2017 05:16 13,3 C 22,8 C 91 % 1014,4 hPa 0,0 l/m 8,2 km/h (2 Bft) W-SW 246 0 min 0,000 mm 0,0 UV-I 0 W/m 11,9 C 12,2 C 14,5 km/h (3 Bft) 98,00 %
11.08.2017 05:18 13,2 C 22,8 C 91 % 1014,3 hPa 0,0 l/m 14,6 km/h (3 Bft) W-SW 252 0 min 0,000 mm 0,0 UV-I 0 W/m 11,8 C 9,2 C 19,3 km/h (3 Bft) 97,37 %
11.08.2017 05:20 13,2 C 22,8 C 92 % 1014,3 hPa 0,0 l/m 13,1 km/h (3 Bft) W-SW 240 0 min 0,000 mm 0,0 UV-I 0 W/m 11,9 C 9,7 C 19,3 km/h (3 Bft) 98,21 %
11.08.2017 05:22 13,2 C 22,8 C 92 % 1014,1 hPa 0,0 l/m 10,8 km/h (2 Bft) W-SW 240 0 min 0,000 mm 0,0 UV-I 0 W/m 11,9 C 10,7 C 19,3 km/h (3 Bft) 97,37 %
11.08.2017 05:24 13,2 C 22,8 C 92 % 1013,9 hPa 0,0 l/m 10,6 km/h (2 Bft) W-SW 237 0 min 0,000 mm 0,0 UV-I 0 W/m 11,9 C 10,8 C 16,1 km/h (3 Bft) 94,34 %
11.08.2017 05:26 13,2 C 22,8 C 92 % 1013,7 hPa 0,0 l/m 9,7 km/h (2 Bft) W-NW 285 0 min 0,000 mm 0,0 UV-I 0 W/m 11,9 C 11,3 C 14,5 km/h (3 Bft) 97,62 %
11.08.2017 05:28 13,1 C 22,8 C 92 % 1013,6 hPa 0,0 l/m 7,3 km/h (2 Bft) SW 236 0 min 0,000 mm 0,0 UV-I 0 W/m 11,8 C 12,5 C 12,9 km/h (3 Bft) 97,87 %
11.08.2017 05:30 13,1 C 22,8 C 92 % 1013,6 hPa 0,0 l/m 10,8 km/h (2 Bft) W 261 0 min 0,000 mm 0,0 UV-I 0 W/m 11,8 C 10,6 C 17,7 km/h (3 Bft) 97,87 %
11.08.2017 05:32 13,1 C 22,8 C 92 % 1013,3 hPa 0,0 l/m 11,4 km/h (2 Bft) W-SW 248 0 min 0,000 mm 0,0 UV-I 0 W/m 11,8 C 10,4 C 17,7 km/h (3 Bft) 95,45 %
11.08.2017 05:34 13,1 C 22,8 C 92 % 1013,2 hPa 0,0 l/m 9,1 km/h (2 Bft) W-SW 242 0 min 0,000 mm 0,0 UV-I 0 W/m 11,8 C 11,5 C 14,5 km/h (3 Bft) 98,11 %
11.08.2017 05:36 13,0 C 22,8 C 92 % 1014,1 hPa 0,0 l/m 11,0 km/h (2 Bft) W-SW 248 0 min 0,000 mm 0,0 UV-I 0 W/m 11,7 C 10,4 C 19,3 km/h (3 Bft) 97,73 %
11.08.2017 05:38 12,9 C 22,8 C 92 % 1014,5 hPa 0,0 l/m 11,5 km/h (2 Bft) W-SW 238 0 min 0,000 mm 0,0 UV-I 0 W/m 11,6 C 10,1 C 17,7 km/h (3 Bft) 96,23 %
11.08.2017 05:40 12,9 C 22,8 C 93 % 1014,6 hPa 0,0 l/m 11,5 km/h (2 Bft) SW 229 0 min 0,000 mm 0,0 UV-I 0 W/m 11,8 C 10,1 C 16,1 km/h (3 Bft) 100,00 %
11.08.2017 05:42 12,9 C 22,8 C 93 % 1014,8 hPa 0,0 l/m 13,8 km/h (3 Bft) W-SW 252 0 min 0,000 mm 0,0 UV-I 0 W/m 11,8 C 9,1 C 20,9 km/h (4 Bft) 98,00 %
11.08.2017 05:44 12,9 C 22,8 C 93 % 1014,8 hPa 0,0 l/m 15,5 km/h (3 Bft) W-SW 240 0 min 0,000 mm 0,0 UV-I 0 W/m 11,8 C 8,5 C 24,1 km/h (4 Bft) 100,00 %
11.08.2017 05:46 12,9 C 22,8 C 93 % 1014,6 hPa 0,0 l/m 14,8 km/h (3 Bft) W-SW 248 0 min 0,000 mm 0,0 UV-I 0 W/m 11,8 C 8,7 C 19,3 km/h (3 Bft) 100,00 %
11.08.2017 05:48 12,9 C 22,8 C 93 % 1014,4 hPa 0,0 l/m 11,8 km/h (2 Bft) W 266 0 min 0,000 mm 0,0 UV-I 0 W/m 11,8 C 9,9 C 17,7 km/h (3 Bft) 100,00 %
11.08.2017 05:50 12,9 C 22,8 C 93 % 1014,3 hPa 0,0 l/m 14,3 km/h (3 Bft) W-SW 249 0 min 0,000 mm 0,0 UV-I 0 W/m 11,8 C 8,9 C 20,9 km/h (4 Bft) 100,00 %
11.08.2017 05:52 12,9 C 22,8 C 93 % 1013,8 hPa 0,0 l/m 11,0 km/h (2 Bft) W 264 0 min 0,000 mm 0,0 UV-I 0 W/m 11,8 C 10,3 C 17,7 km/h (3 Bft) 100,00 %
11.08.2017 05:54 12,8 C 22,8 C 93 % 1013,8 hPa 0,0 l/m 10,8 km/h (2 Bft) W-SW 238 0 min 0,000 mm 0,0 UV-I 0 W/m 11,7 C 10,3 C 20,9 km/h (4 Bft) 100,00 %
11.08.2017 05:56 12,8 C 22,8 C 93 % 1013,9 hPa 0,0 l/m 11,9 km/h (2 Bft) W 267 0 min 0,000 mm 0,0 UV-I 0 W/m 11,7 C 9,8 C 17,7 km/h (3 Bft) 100,00 %
11.08.2017 05:58 12,8 C 22,8 C 93 % 1014,1 hPa 0,0 l/m 11,8 km/h (2 Bft) SW 229 0 min 0,000 mm 0,0 UV-I 0 W/m 11,7 C 9,8 C 17,7 km/h (3 Bft) 100,00 %
11.08.2017 06:00 12,8 C 22,8 C 93 % 1014,5 hPa 0,0 l/m 18,0 km/h (3 Bft) W 268 0 min 0,025 mm 0,0 UV-I 0 W/m 11,7 C 7,5 C 27,4 km/h (4 Bft) 100,00 %
11.08.2017 06:02 12,8 C 22,8 C 94 % 1014,4 hPa 0,0 l/m 13,2 km/h (3 Bft) W 273 0 min 0,000 mm 0,0 UV-I 0 W/m 11,9 C 9,2 C 19,3 km/h (3 Bft) 100,00 %
11.08.2017 06:04 12,8 C 22,8 C 94 % 1014,3 hPa 0,0 l/m 13,5 km/h (3 Bft) W-SW 243 0 min 0,000 mm 0,0 UV-I 2 W/m 11,9 C 9,1 C 17,7 km/h (3 Bft) 100,00 %
11.08.2017 06:06 12,7 C 22,8 C 94 % 1014,4 hPa 0,0 l/m 10,5 km/h (2 Bft) W-SW 252 0 min 0,000 mm 0,0 UV-I 5 W/m 11,8 C 10,3 C 14,5 km/h (3 Bft) 100,00 %
11.08.2017 06:08 12,7 C 22,8 C 94 % 1014,2 hPa 0,0 l/m 9,8 km/h (2 Bft) W 279 0 min 0,000 mm 0,0 UV-I 5 W/m 11,8 C 10,7 C 19,3 km/h (3 Bft) 100,00 %
11.08.2017 06:10 12,7 C 22,8 C 94 % 1013,7 hPa 0,0 l/m 8,0 km/h (2 Bft) W-SW 242 0 min 0,000 mm 0,0 UV-I 5 W/m 11,8 C 11,7 C 14,5 km/h (3 Bft) 100,00 %
11.08.2017 06:12 12,7 C 22,8 C 94 % 1013,6 hPa 0,0 l/m 10,0 km/h (2 Bft) W 273 0 min 0,000 mm 0,0 UV-I 5 W/m 11,8 C 10,6 C 16,1 km/h (3 Bft) 100,00 %
11.08.2017 06:14 12,7 C 22,8 C 94 % 1013,6 hPa 0,0 l/m 6,7 km/h (2 Bft) W 261 0 min 0,000 mm 0,0 UV-I 5 W/m 11,8 C 12,5 C 11,3 km/h (2 Bft) 100,00 %
11.08.2017 06:16 12,7 C 22,8 C 94 % 1013,6 hPa 0,0 l/m 6,5 km/h (2 Bft) W 262 0 min 0,000 mm 0,0 UV-I 5 W/m 11,8 C 12,7 C 12,9 km/h (3 Bft) 100,00 %
11.08.2017 06:18 12,6 C 22,8 C 94 % 1013,6 hPa 0,0 l/m 10,0 km/h (2 Bft) W-SW 256 0 min 0,000 mm 0,0 UV-I 6 W/m 11,7 C 10,5 C 14,5 km/h (3 Bft) 100,00 %
11.08.2017 06:20 12,6 C 22,8 C 94 % 1014,0 hPa 0,0 l/m 11,3 km/h (2 Bft) W-SW 245 0 min 0,000 mm 0,0 UV-I 7 W/m 11,7 C 9,8 C 16,1 km/h (3 Bft) 98,11 %
11.08.2017 06:22 12,6 C 22,8 C 94 % 1014,1 hPa 0,0 l/m 12,6 km/h (3 Bft) W-SW 240 0 min 0,000 mm 0,0 UV-I 8 W/m 11,7 C 9,2 C 16,1 km/h (3 Bft) 100,00 %
11.08.2017 06:24 12,6 C 22,8 C 94 % 1014,0 hPa 0,0 l/m 5,2 km/h (1 Bft) W-NW 288 0 min 0,000 mm 0,0 UV-I 9 W/m 11,7 C 12,6 C 11,3 km/h (2 Bft) 94,74 %
11.08.2017 06:26 12,6 C 22,8 C 94 % 1014,0 hPa 0,0 l/m 4,2 km/h (1 Bft) W-SW 242 0 min 0,000 mm 0,0 UV-I 9 W/m 11,7 C 12,6 C 6,4 km/h (2 Bft) 96,77 %
11.08.2017 06:28 12,6 C 22,8 C 94 % 1014,1 hPa 0,0 l/m 3,6 km/h (1 Bft) W-SW 248 0 min 0,000 mm 0,0 UV-I 8 W/m 11,7 C 12,6 C 11,3 km/h (2 Bft) 97,87 %
11.08.2017 06:30 12,6 C 22,8 C 94 % 1014,1 hPa 0,0 l/m 6,7 km/h (2 Bft) W 260 0 min 0,000 mm 0,0 UV-I 7 W/m 11,7 C 12,4 C 12,9 km/h (3 Bft) 95,74 %
11.08.2017 06:32 12,6 C 22,8 C 94 % 1014,5 hPa 0,0 l/m 9,8 km/h (2 Bft) W-SW 241 0 min 0,000 mm 0,0 UV-I 8 W/m 11,7 C 10,6 C 16,1 km/h (3 Bft) 96,30 %
11.08.2017 06:34 12,6 C 22,8 C 94 % 1014,6 hPa 0,0 l/m 10,6 km/h (2 Bft) SW 220 0 min 0,000 mm 0,0 UV-I 7 W/m 11,7 C 10,2 C 14,5 km/h (3 Bft) 98,51 %
11.08.2017 06:36 12,6 C 22,8 C 94 % 1014,6 hPa 0,0 l/m 8,6 km/h (2 Bft) W-SW 238 0 min 0,000 mm 0,0 UV-I 7 W/m 11,7 C 11,2 C 12,9 km/h (3 Bft) 96,00 %
11.08.2017 06:38 12,7 C 22,8 C 94 % 1014,5 hPa 0,0 l/m 6,7 km/h (2 Bft) SW 232 0 min 0,000 mm 0,0 UV-I 7 W/m 11,8 C 12,5 C 9,7 km/h (2 Bft) 95,45 %
11.08.2017 06:40 12,7 C 22,8 C 94 % 1014,2 hPa 0,0 l/m 9,0 km/h (2 Bft) W-SW 248 0 min 0,000 mm 0,0 UV-I 8 W/m 11,8 C 11,1 C 14,5 km/h (3 Bft) 97,87 %
11.08.2017 06:42 12,7 C 22,8 C 94 % 1014,1 hPa 0,0 l/m 10,5 km/h (2 Bft) W 273 0 min 0,000 mm 0,0 UV-I 9 W/m 11,8 C 10,3 C 16,1 km/h (3 Bft) 93,62 %
11.08.2017 06:44 12,7 C 22,8 C 94 % 1014,1 hPa 0,0 l/m 10,3 km/h (2 Bft) S-SW 201 0 min 0,000 mm 0,0 UV-I 9 W/m 11,8 C 10,4 C 16,1 km/h (3 Bft) 93,62 %
11.08.2017 06:46 12,8 C 22,8 C 94 % 1014,1 hPa 0,0 l/m 10,7 km/h (2 Bft) SW 234 0 min 0,000 mm 0,0 UV-I 7 W/m 11,9 C 10,3 C 16,1 km/h (3 Bft) 100,00 %
11.08.2017 06:48 12,8 C 22,8 C 94 % 1013,9 hPa 0,0 l/m 9,3 km/h (2 Bft) W 262 0 min 0,000 mm 0,0 UV-I 7 W/m 11,9 C 11,1 C 16,1 km/h (3 Bft) 95,74 %
11.08.2017 06:50 12,8 C 22,8 C 94 % 1014,1 hPa 0,0 l/m 6,3 km/h (2 Bft) W 268 0 min 0,000 mm 0,0 UV-I 9 W/m 11,9 C 12,8 C 12,9 km/h (3 Bft) 100,00 %
11.08.2017 06:52 12,8 C 22,8 C 94 % 1014,2 hPa 0,0 l/m 8,5 km/h (2 Bft) SW 236 0 min 0,000 mm 0,0 UV-I 8 W/m 11,9 C 11,5 C 12,9 km/h (3 Bft) 96,23 %
11.08.2017 06:54 12,8 C 22,8 C 94 % 1014,3 hPa 0,0 l/m 6,5 km/h (2 Bft) W-SW 239 0 min 0,000 mm 0,0 UV-I 9 W/m 11,9 C 12,8 C 11,3 km/h (2 Bft) 98,11 %
11.08.2017 06:56 12,8 C 22,8 C 94 % 1014,0 hPa 0,0 l/m 4,1 km/h (1 Bft) W 275 0 min 0,000 mm 0,0 UV-I 11 W/m 11,9 C 12,8 C 6,4 km/h (2 Bft) 97,73 %
11.08.2017 06:58 12,8 C 22,8 C 94 % 1013,8 hPa 0,0 l/m 4,2 km/h (1 Bft) W 279 0 min 0,000 mm 0,0 UV-I 15 W/m 11,9 C 12,8 C 9,7 km/h (2 Bft) 98,00 %
11.08.2017 07:00 12,8 C 22,8 C 94 % 1013,9 hPa 0,0 l/m 4,3 km/h (1 Bft) SW 235 0 min 0,000 mm 0,0 UV-I 23 W/m 11,9 C 12,8 C 9,7 km/h (2 Bft) 97,14 %
11.08.2017 07:02 12,8 C 22,8 C 94 % 1013,9 hPa 0,0 l/m 1,3 km/h (1 Bft) SW 235 0 min 0,000 mm 0,0 UV-I 28 W/m 11,9 C 12,8 C 3,2 km/h (1 Bft) 98,33 %
11.08.2017 07:04 12,8 C 22,8 C 94 % 1013,7 hPa 0,0 l/m 0,0 km/h (0 Bft) SW 235 0 min 0,000 mm 0,0 UV-I 36 W/m 11,9 C 12,8 C 1,6 km/h (1 Bft) 96,15 %
11.08.2017 07:06 12,9 C 22,8 C 94 % 1013,7 hPa 0,0 l/m 0,6 km/h (0 Bft) SW 235 0 min 0,000 mm 0,0 UV-I 46 W/m 12,0 C 12,9 C 3,2 km/h (1 Bft) 92,96 %
11.08.2017 07:08 12,9 C 22,8 C 94 % 1014,0 hPa 0,0 l/m 6,9 km/h (2 Bft) S-SW 213 0 min 0,000 mm 0,0 UV-I 46 W/m 12,0 C 12,6 C 11,3 km/h (2 Bft) 100,00 %
11.08.2017 07:10 12,9 C 22,8 C 94 % 1013,8 hPa 0,0 l/m 7,9 km/h (2 Bft) W-SW 250 0 min 0,000 mm 0,0 UV-I 39 W/m 12,0 C 12,0 C 11,3 km/h (2 Bft) 92,00 %
11.08.2017 07:12 13,0 C 22,8 C 94 % 1013,4 hPa 0,0 l/m 4,8 km/h (1 Bft) NW 311 0 min 0,000 mm 0,0 UV-I 32 W/m 12,1 C 13,0 C 9,7 km/h (2 Bft) 95,74 %
11.08.2017 07:14 13,0 C 22,8 C 94 % 1013,2 hPa 0,0 l/m 5,5 km/h (1 Bft) SW 231 0 min 0,000 mm 0,0 UV-I 29 W/m 12,1 C 13,0 C 9,7 km/h (2 Bft) 96,23 %
11.08.2017 07:16 13,0 C 22,8 C 94 % 1014,1 hPa 0,0 l/m 9,5 km/h (2 Bft) SO 144 0 min 0,000 mm 0,0 UV-I 21 W/m 12,1 C 11,2 C 14,5 km/h (3 Bft) 95,12 %
11.08.2017 07:18 13,0 C 22,8 C 94 % 1014,3 hPa 0,0 l/m 5,7 km/h (1 Bft) S-SO 166 0 min 0,000 mm 0,0 UV-I 13 W/m 12,1 C 13,0 C 14,5 km/h (3 Bft) 95,74 %
11.08.2017 07:20 13,0 C 22,8 C 94 % 1014,2 hPa 0,0 l/m 5,8 km/h (2 Bft) S-SW 194 0 min 0,000 mm 0,0 UV-I 11 W/m 12,1 C 13,0 C 12,9 km/h (3 Bft) 96,00 %
11.08.2017 07:22 13,0 C 22,8 C 94 % 1014,0 hPa 0,0 l/m 10,0 km/h (2 Bft) S-SW 210 0 min 0,000 mm 0,0 UV-I 11 W/m 12,1 C 10,9 C 16,1 km/h (3 Bft) 94,87 %
11.08.2017 07:24 13,0 C 22,8 C 94 % 1013,5 hPa 0,0 l/m 9,9 km/h (2 Bft) W 263 0 min 0,000 mm 0,0 UV-I 11 W/m 12,1 C 11,0 C 16,1 km/h (3 Bft) 98,00 %
11.08.2017 07:26 13,0 C 22,8 C 94 % 1013,4 hPa 0,0 l/m 7,4 km/h (2 Bft) W-NW 286 0 min 0,000 mm 0,0 UV-I 10 W/m 12,1 C 12,4 C 11,3 km/h (2 Bft) 96,23 %
11.08.2017 07:28 12,9 C 22,8 C 94 % 1013,5 hPa 0,0 l/m 2,3 km/h (1 Bft) W-NW 286 0 min 0,000 mm 0,0 UV-I 9 W/m 12,0 C 12,9 C 4,8 km/h (1 Bft) 97,56 %
11.08.2017 07:30 12,9 C 22,8 C 94 % 1013,8 hPa 0,0 l/m 1,5 km/h (1 Bft) S-SO 159 0 min 0,000 mm 0,0 UV-I 9 W/m 12,0 C 12,9 C 6,4 km/h (2 Bft) 94,34 %
11.08.2017 07:32 12,9 C 22,8 C 93 % 1013,9 hPa 0,0 l/m 5,4 km/h (1 Bft) SW 225 0 min 0,000 mm 0,0 UV-I 10 W/m 11,8 C 12,9 C 8,0 km/h (2 Bft) 97,73 %
11.08.2017 07:34 12,9 C 22,8 C 93 % 1013,4 hPa 0,2 l/m 8,9 km/h (2 Bft) W 259 0 min 0,000 mm 0,0 UV-I 11 W/m 11,8 C 11,4 C 14,5 km/h (3 Bft) 97,37 %
11.08.2017 07:36 12,9 C 22,8 C 93 % 1013,6 hPa 0,2 l/m 9,0 km/h (2 Bft) SW 223 0 min 0,000 mm 0,0 UV-I 12 W/m 11,8 C 11,3 C 14,5 km/h (3 Bft) 96,43 %
11.08.2017 07:38 12,9 C 22,8 C 93 % 1013,5 hPa 0,2 l/m 7,6 km/h (2 Bft) SW 230 0 min 0,000 mm 0,0 UV-I 12 W/m 11,8 C 12,1 C 16,1 km/h (3 Bft) 98,00 %
11.08.2017 07:40 12,9 C 22,8 C 94 % 1013,6 hPa 0,6 l/m 8,1 km/h (2 Bft) SW 229 0 min 0,000 mm 0,0 UV-I 10 W/m 12,0 C 11,8 C 12,9 km/h (3 Bft) 97,87 %
11.08.2017 07:42 12,8 C 22,8 C 94 % 1014,0 hPa 0,0 l/m 7,5 km/h (2 Bft) S-SW 207 0 min 0,000 mm 0,0 UV-I 8 W/m 11,9 C 12,1 C 14,5 km/h (3 Bft) 100,00 %
11.08.2017 07:44 12,8 C 22,8 C 94 % 1013,9 hPa 0,2 l/m 6,0 km/h (2 Bft) S-SW 210 0 min 0,000 mm 0,0 UV-I 7 W/m 11,9 C 12,8 C 11,3 km/h (2 Bft) 100,00 %
11.08.2017 07:46 12,8 C 22,8 C 94 % 1014,3 hPa 0,2 l/m 8,5 km/h (2 Bft) S-SW 208 0 min 0,000 mm 0,0 UV-I 7 W/m 11,9 C 11,5 C 16,1 km/h (3 Bft) 97,56 %
11.08.2017 07:48 12,7 C 22,8 C 94 % 1014,5 hPa 0,4 l/m 14,9 km/h (3 Bft) S-SW 197 0 min 0,000 mm 0,0 UV-I 6 W/m 11,8 C 8,4 C 19,3 km/h (3 Bft) 100,00 %
11.08.2017 07:50 12,7 C 22,8 C 94 % 1014,6 hPa 0,4 l/m 10,2 km/h (2 Bft) S-SW 202 0 min 0,000 mm 0,0 UV-I 5 W/m 11,8 C 10,5 C 17,7 km/h (3 Bft) 100,00 %
11.08.2017 07:52 12,7 C 22,8 C 94 % 1014,2 hPa 0,0 l/m 10,7 km/h (2 Bft) W-SW 246 0 min 0,000 mm 0,0 UV-I 5 W/m 11,8 C 10,2 C 16,1 km/h (3 Bft) 100,00 %
11.08.2017 07:54 12,7 C 22,8 C 94 % 1013,7 hPa 0,0 l/m 7,5 km/h (2 Bft) W 260 0 min 0,000 mm 0,0 UV-I 5 W/m 11,8 C 12,0 C 12,9 km/h (3 Bft) 100,00 %
11.08.2017 07:56 12,7 C 22,8 C 94 % 1014,1 hPa 0,2 l/m 4,8 km/h (1 Bft) S 169 0 min 0,000 mm 0,0 UV-I 5 W/m 11,8 C 12,7 C 9,7 km/h (2 Bft) 100,00 %
11.08.2017 07:58 12,6 C 22,8 C 94 % 1014,3 hPa 0,2 l/m 2,7 km/h (1 Bft) S 182 0 min 0,000 mm 0,0 UV-I 7 W/m 11,7 C 12,6 C 8,0 km/h (2 Bft) 100,00 %
11.08.2017 08:00 12,6 C 22,2 C 94 % 1014,3 hPa 0,2 l/m 4,9 km/h (1 Bft) S-SW 204 0 min 0,026 mm 0,0 UV-I 7 W/m 11,7 C 12,6 C 8,0 km/h (2 Bft) 100,00 %
11.08.2017 08:02 12,6 C 22,2 C 94 % 1014,6 hPa 0,4 l/m 4,5 km/h (1 Bft) S-SO 167 0 min 0,000 mm 0,0 UV-I 6 W/m 11,7 C 12,6 C 8,0 km/h (2 Bft) 100,00 %
11.08.2017 08:04 12,6 C 22,2 C 94 % 1014,6 hPa 0,2 l/m 2,5 km/h (1 Bft) S 169 0 min 0,000 mm 0,0 UV-I 5 W/m 11,7 C 12,6 C 6,4 km/h (2 Bft) 100,00 %
11.08.2017 08:06 12,6 C 22,2 C 94 % 1014,5 hPa 0,0 l/m 0,8 km/h (0 Bft) S 169 0 min 0,000 mm 0,0 UV-I 5 W/m 11,7 C 12,6 C 3,2 km/h (1 Bft) 100,00 %
11.08.2017 08:08 12,6 C 22,2 C 94 % 1014,3 hPa 0,2 l/m 3,6 km/h (1 Bft) N-NO 26 0 min 0,000 mm 0,0 UV-I 5 W/m 11,7 C 12,6 C 6,4 km/h (2 Bft) 100,00 %
11.08.2017 08:10 12,6 C 22,2 C 94 % 1014,1 hPa 0,2 l/m 2,5 km/h (1 Bft) NO 39 0 min 0,000 mm 0,0 UV-I 5 W/m 11,7 C 12,6 C 6,4 km/h (2 Bft) 100,00 %
11.08.2017 08:12 12,6 C 22,2 C 94 % 1013,7 hPa 0,2 l/m 1,4 km/h (1 Bft) W-NW 284 0 min 0,000 mm 0,0 UV-I 7 W/m 11,7 C 12,6 C 4,8 km/h (1 Bft) 98,00 %
11.08.2017 08:14 12,6 C 22,2 C 94 % 1013,2 hPa 0,0 l/m 6,3 km/h (2 Bft) W-SW 258 0 min 0,000 mm 0,0 UV-I 10 W/m 11,7 C 12,6 C 9,7 km/h (2 Bft) 100,00 %
11.08.2017 08:16 12,6 C 22,2 C 95 % 1013,2 hPa 0,2 l/m 6,2 km/h (2 Bft) W-SW 254 0 min 0,000 mm 0,0 UV-I 13 W/m 11,8 C 12,6 C 11,3 km/h (2 Bft) 100,00 %
11.08.2017 08:18 12,5 C 22,2 C 95 % 1013,5 hPa 0,0 l/m 10,2 km/h (2 Bft) SW 234 0 min 0,000 mm 0,0 UV-I 15 W/m 11,7 C 10,3 C 14,5 km/h (3 Bft) 100,00 %
11.08.2017 08:20 12,5 C 22,2 C 95 % 1013,6 hPa 0,0 l/m 8,3 km/h (2 Bft) W-SW 245 0 min 0,000 mm 0,0 UV-I 18 W/m 11,7 C 11,3 C 12,9 km/h (3 Bft) 100,00 %
11.08.2017 08:22 12,5 C 22,2 C 95 % 1013,7 hPa 0,0 l/m 9,0 km/h (2 Bft) SW 220 0 min 0,000 mm 0,0 UV-I 22 W/m 11,7 C 10,9 C 12,9 km/h (3 Bft) 100,00 %
11.08.2017 08:24 12,5 C 22,2 C 95 % 1014,0 hPa 0,0 l/m 7,4 km/h (2 Bft) S-SW 204 0 min 0,000 mm 0,0 UV-I 23 W/m 11,7 C 11,9 C 12,9 km/h (3 Bft) 100,00 %
11.08.2017 08:26 12,5 C 22,2 C 95 % 1014,5 hPa 0,0 l/m 5,8 km/h (2 Bft) S 171 0 min 0,000 mm 0,0 UV-I 18 W/m 11,7 C 12,5 C 9,7 km/h (2 Bft) 97,56 %
11.08.2017 08:28 12,5 C 22,2 C 95 % 1014,5 hPa 0,0 l/m 5,4 km/h (1 Bft) S-SO 167 0 min 0,000 mm 0,0 UV-I 17 W/m 11,7 C 12,5 C 9,7 km/h (2 Bft) 100,00 %
11.08.2017 08:30 12,6 C 22,2 C 95 % 1014,4 hPa 0,0 l/m 7,3 km/h (2 Bft) S-SW 209 0 min 0,000 mm 0,0 UV-I 27 W/m 11,8 C 12,0 C 9,7 km/h (2 Bft) 100,00 %
11.08.2017 08:32 12,6 C 22,2 C 95 % 1014,2 hPa 0,0 l/m 6,7 km/h (2 Bft) S-SW 211 0 min 0,000 mm 0,0 UV-I 45 W/m 11,8 C 12,4 C 12,9 km/h (3 Bft) 100,00 %
11.08.2017 08:34 12,6 C 22,2 C 95 % 1014,1 hPa 0,0 l/m 8,0 km/h (2 Bft) SW 217 0 min 0,000 mm 0,0 UV-I 72 W/m 11,8 C 11,6 C 14,5 km/h (3 Bft) 100,00 %
11.08.2017 08:36 12,6 C 22,2 C 95 % 1013,9 hPa 0,0 l/m 8,0 km/h (2 Bft) SW 220 0 min 0,000 mm 0,3 UV-I 136 W/m 11,8 C 11,6 C 12,9 km/h (3 Bft) 98,00 %
11.08.2017 08:38 12,7 C 22,2 C 95 % 1014,1 hPa 0,0 l/m 8,7 km/h (2 Bft) W-SW 237 0 min 0,000 mm 0,6 UV-I 174 W/m 11,9 C 11,3 C 14,5 km/h (3 Bft) 100,00 %
11.08.2017 08:40 12,8 C 22,2 C 95 % 1014,2 hPa 0,0 l/m 6,8 km/h (2 Bft) W-SW 239 0 min 0,000 mm 0,6 UV-I 154 W/m 12,0 C 12,6 C 12,9 km/h (3 Bft) 100,00 %
11.08.2017 08:42 12,8 C 22,2 C 95 % 1014,2 hPa 0,0 l/m 8,9 km/h (2 Bft) S-SW 207 0 min 0,000 mm 0,6 UV-I 154 W/m 12,0 C 11,3 C 12,9 km/h (3 Bft) 98,84 %
11.08.2017 08:44 12,8 C 22,2 C 95 % 1014,2 hPa 0,0 l/m 8,4 km/h (2 Bft) W 265 0 min 0,000 mm 0,5 UV-I 134 W/m 12,0 C 11,6 C 14,5 km/h (3 Bft) 100,00 %
11.08.2017 08:46 12,8 C 22,2 C 95 % 1014,2 hPa 0,0 l/m 11,5 km/h (2 Bft) W-SW 237 0 min 0,000 mm 0,5 UV-I 126 W/m 12,0 C 10,0 C 17,7 km/h (3 Bft) 97,62 %
11.08.2017 08:48 12,9 C 22,2 C 95 % 1014,2 hPa 0,0 l/m 8,6 km/h (2 Bft) W-SW 246 0 min 0,000 mm 0,5 UV-I 130 W/m 12,1 C 11,5 C 14,5 km/h (3 Bft) 100,00 %
11.08.2017 08:50 12,9 C 22,2 C 95 % 1014,2 hPa 0,0 l/m 8,8 km/h (2 Bft) SW 236 0 min 0,000 mm 0,7 UV-I 148 W/m 12,1 C 11,4 C 12,9 km/h (3 Bft) 100,00 %
11.08.2017 08:52 13,0 C 22,2 C 95 % 1014,1 hPa 0,0 l/m 11,6 km/h (2 Bft) W 271 0 min 0,000 mm 0,8 UV-I 186 W/m 12,2 C 10,1 C 16,1 km/h (3 Bft) 100,00 %
11.08.2017 08:54 13,1 C 22,2 C 95 % 1014,1 hPa 0,0 l/m 9,6 km/h (2 Bft) W 277 0 min 0,000 mm 1,0 UV-I 202 W/m 12,3 C 11,2 C 14,5 km/h (3 Bft) 100,00 %
11.08.2017 08:56 13,1 C 22,2 C 95 % 1014,1 hPa 0,0 l/m 11,1 km/h (2 Bft) W-SW 254 0 min 0,000 mm 1,0 UV-I 205 W/m 12,3 C 10,5 C 17,7 km/h (3 Bft) 100,00 %
11.08.2017 08:58 13,2 C 22,2 C 95 % 1014,0 hPa 0,0 l/m 11,6 km/h (2 Bft) SW 225 0 min 0,000 mm 1,1 UV-I 220 W/m 12,4 C 10,4 C 17,7 km/h (3 Bft) 98,11 %
11.08.2017 09:00 13,2 C 22,2 C 95 % 1013,9 hPa 0,0 l/m 12,9 km/h (3 Bft) W 259 0 min 0,050 mm 1,1 UV-I 216 W/m 12,4 C 9,8 C 16,1 km/h (3 Bft) 100,00 %
11.08.2017 09:02 13,2 C 22,2 C 95 % 1013,9 hPa 0,0 l/m 12,7 km/h (3 Bft) W-SW 251 0 min 0,000 mm 1,0 UV-I 195 W/m 12,4 C 9,9 C 16,1 km/h (3 Bft) 98,21 %
11.08.2017 09:04 13,3 C 22,2 C 95 % 1013,8 hPa 0,0 l/m 5,9 km/h (2 Bft) W-SW 253 0 min 0,000 mm 0,8 UV-I 183 W/m 12,5 C 13,3 C 11,3 km/h (2 Bft) 97,56 %
11.08.2017 09:06 13,3 C 22,2 C 94 % 1013,9 hPa 0,0 l/m 7,1 km/h (2 Bft) W-SW 248 0 min 0,000 mm 0,7 UV-I 147 W/m 12,4 C 12,9 C 11,3 km/h (2 Bft) 96,00 %
11.08.2017 09:08 13,3 C 22,2 C 94 % 1013,9 hPa 0,0 l/m 6,5 km/h (2 Bft) W-SW 242 0 min 0,000 mm 0,3 UV-I 101 W/m 12,4 C 13,3 C 11,3 km/h (2 Bft) 94,00 %
11.08.2017 09:10 13,4 C 22,2 C 94 % 1013,9 hPa 0,0 l/m 6,0 km/h (2 Bft) W-SW 238 0 min 0,000 mm 0,3 UV-I 91 W/m 12,5 C 13,4 C 11,3 km/h (2 Bft) 97,87 %
11.08.2017 09:12 13,3 C 22,2 C 94 % 1013,8 hPa 0,0 l/m 9,1 km/h (2 Bft) W-SW 254 0 min 0,000 mm 0,6 UV-I 113 W/m 12,4 C 11,7 C 16,1 km/h (3 Bft) 97,14 %
11.08.2017 09:14 13,4 C 22,2 C 94 % 1013,6 hPa 0,0 l/m 9,8 km/h (2 Bft) W-SW 254 0 min 0,000 mm 0,8 UV-I 170 W/m 12,5 C 11,5 C 14,5 km/h (3 Bft) 98,11 %
11.08.2017 09:16 13,4 C 22,2 C 94 % 1013,6 hPa 0,0 l/m 10,8 km/h (2 Bft) W-SW 239 0 min 0,000 mm 1,0 UV-I 217 W/m 12,5 C 11,0 C 16,1 km/h (3 Bft) 97,73 %
11.08.2017 09:18 13,5 C 22,2 C 94 % 1013,6 hPa 0,0 l/m 10,3 km/h (2 Bft) W-SW 242 0 min 0,000 mm 0,8 UV-I 168 W/m 12,6 C 11,3 C 17,7 km/h (3 Bft) 98,00 %
11.08.2017 09:20 13,5 C 22,2 C 94 % 1013,7 hPa 0,0 l/m 10,7 km/h (2 Bft) S-SW 211 0 min 0,000 mm 0,7 UV-I 128 W/m 12,6 C 11,1 C 14,5 km/h (3 Bft) 97,62 %
11.08.2017 09:22 13,4 C 22,2 C 94 % 1013,7 hPa 0,0 l/m 9,3 km/h (2 Bft) W 262 0 min 0,000 mm 0,6 UV-I 116 W/m 12,5 C 11,7 C 16,1 km/h (3 Bft) 95,74 %
11.08.2017 09:24 13,4 C 22,2 C 94 % 1013,6 hPa 0,0 l/m 10,8 km/h (2 Bft) W 267 0 min 0,000 mm 0,7 UV-I 130 W/m 12,5 C 11,0 C 17,7 km/h (3 Bft) 96,00 %
11.08.2017 09:26 13,4 C 22,2 C 94 % 1013,6 hPa 0,0 l/m 12,3 km/h (3 Bft) SW 227 0 min 0,000 mm 0,6 UV-I 109 W/m 12,5 C 10,3 C 20,9 km/h (4 Bft) 94,00 %
11.08.2017 09:28 13,5 C 22,2 C 94 % 1013,7 hPa 0,0 l/m 6,1 km/h (2 Bft) S-SW 203 0 min 0,000 mm 0,5 UV-I 80 W/m 12,6 C 13,5 C 12,9 km/h (3 Bft) 97,73 %
11.08.2017 09:30 13,5 C 22,2 C 93 % 1013,8 hPa 0,0 l/m 10,4 km/h (2 Bft) W-SW 242 0 min 0,000 mm 0,4 UV-I 73 W/m 12,4 C 11,3 C 16,1 km/h (3 Bft) 98,11 %
11.08.2017 09:32 13,4 C 22,2 C 93 % 1013,7 hPa 0,0 l/m 7,7 km/h (2 Bft) W-SW 253 0 min 0,000 mm 0,0 UV-I 61 W/m 12,3 C 12,6 C 14,5 km/h (3 Bft) 97,37 %
11.08.2017 09:34 13,4 C 22,2 C 93 % 1013,7 hPa 0,0 l/m 4,3 km/h (1 Bft) SW 235 0 min 0,000 mm 0,0 UV-I 57 W/m 12,3 C 13,4 C 6,4 km/h (2 Bft) 98,21 %
11.08.2017 09:36 13,4 C 22,2 C 93 % 1013,7 hPa 0,0 l/m 3,5 km/h (1 Bft) S-SW 200 0 min 0,000 mm 0,0 UV-I 63 W/m 12,3 C 13,4 C 8,0 km/h (2 Bft) 100,00 %
11.08.2017 09:38 13,4 C 22,2 C 93 % 1013,8 hPa 0,0 l/m 6,4 km/h (2 Bft) W-SW 248 0 min 0,000 mm 0,0 UV-I 60 W/m 12,3 C 13,4 C 11,3 km/h (2 Bft) 98,11 %
11.08.2017 09:40 13,5 C 22,2 C 93 % 1013,9 hPa 0,0 l/m 7,9 km/h (2 Bft) SW 234 0 min 0,000 mm 0,0 UV-I 50 W/m 12,4 C 12,6 C 11,3 km/h (2 Bft) 100,00 %
11.08.2017 09:42 13,5 C 22,2 C 93 % 1013,8 hPa 0,0 l/m 7,7 km/h (2 Bft) SW 221 0 min 0,000 mm 0,0 UV-I 47 W/m 12,4 C 12,7 C 14,5 km/h (3 Bft) 95,12 %
11.08.2017 09:44 13,4 C 22,2 C 93 % 1013,8 hPa 0,0 l/m 7,5 km/h (2 Bft) W-SW 250 0 min 0,000 mm 0,0 UV-I 44 W/m 12,3 C 12,7 C 16,1 km/h (3 Bft) 94,34 %
11.08.2017 09:46 13,4 C 22,2 C 93 % 1013,7 hPa 0,0 l/m 4,0 km/h (1 Bft) W 265 0 min 0,000 mm 0,0 UV-I 39 W/m 12,3 C 13,4 C 6,4 km/h (2 Bft) 97,73 %
11.08.2017 09:48 13,4 C 22,2 C 93 % 1013,6 hPa 0,0 l/m 2,8 km/h (1 Bft) W-SW 254 0 min 0,000 mm 0,0 UV-I 39 W/m 12,3 C 13,4 C 6,4 km/h (2 Bft) 95,12 %
11.08.2017 09:50 13,4 C 22,2 C 93 % 1013,6 hPa 0,0 l/m 2,8 km/h (1 Bft) W-SW 254 0 min 0,000 mm 0,0 UV-I 36 W/m 12,3 C 13,4 C 4,8 km/h (1 Bft) 98,00 %
11.08.2017 09:52 13,4 C 22,2 C 93 % 1013,6 hPa 0,0 l/m 3,7 km/h (1 Bft) SW 233 0 min 0,000 mm 0,0 UV-I 38 W/m 12,3 C 13,4 C 6,4 km/h (2 Bft) 100,00 %
11.08.2017 09:54 13,4 C 22,2 C 93 % 1013,7 hPa 0,0 l/m 5,4 km/h (1 Bft) SW 231 0 min 0,000 mm 0,0 UV-I 34 W/m 12,3 C 13,4 C 8,0 km/h (2 Bft) 100,00 %
11.08.2017 09:56 13,4 C 22,2 C 93 % 1013,9 hPa 0,0 l/m 7,1 km/h (2 Bft) S-SW 209 0 min 0,000 mm 0,0 UV-I 23 W/m 12,3 C 13,0 C 9,7 km/h (2 Bft) 100,00 %
11.08.2017 09:58 13,4 C 22,2 C 93 % 1014,0 hPa 0,0 l/m 6,4 km/h (2 Bft) SW 225 0 min 0,000 mm 0,0 UV-I 21 W/m 12,3 C 13,4 C 11,3 km/h (2 Bft) 100,00 %
11.08.2017 10:00 13,4 C 22,2 C 93 % 1013,8 hPa 0,0 l/m 5,2 km/h (1 Bft) W-SW 238 0 min 0,051 mm 0,0 UV-I 30 W/m 12,3 C 13,4 C 8,0 km/h (2 Bft) 100,00 %
11.08.2017 10:02 13,3 C 22,2 C 93 % 1013,6 hPa 0,0 l/m 3,4 km/h (1 Bft) W 263 0 min 0,000 mm 0,0 UV-I 28 W/m 12,2 C 13,3 C 4,8 km/h (1 Bft) 98,00 %
11.08.2017 10:04 13,4 C 22,2 C 93 % 1013,6 hPa 0,0 l/m 2,6 km/h (1 Bft) W-SW 246 0 min 0,000 mm 0,0 UV-I 33 W/m 12,3 C 13,4 C 4,8 km/h (1 Bft) 100,00 %
11.08.2017 10:06 13,4 C 22,2 C 94 % 1013,8 hPa 0,0 l/m 6,0 km/h (2 Bft) SW 229 0 min 0,000 mm 0,0 UV-I 36 W/m 12,5 C 13,4 C 11,3 km/h (2 Bft) 98,00 %
11.08.2017 10:08 13,4 C 22,2 C 94 % 1013,7 hPa 0,0 l/m 6,7 km/h (2 Bft) W-SW 252 0 min 0,000 mm 0,0 UV-I 32 W/m 12,5 C 13,2 C 12,9 km/h (3 Bft) 92,31 %
11.08.2017 10:10 13,4 C 22,2 C 94 % 1013,7 hPa 0,0 l/m 8,2 km/h (2 Bft) S-SW 205 0 min 0,000 mm 0,0 UV-I 27 W/m 12,5 C 12,3 C 12,9 km/h (3 Bft) 98,31 %
11.08.2017 10:12 13,4 C 22,2 C 94 % 1013,7 hPa 0,0 l/m 8,3 km/h (2 Bft) W-SW 242 0 min 0,000 mm 0,0 UV-I 26 W/m 12,5 C 12,2 C 12,9 km/h (3 Bft) 98,11 %
11.08.2017 10:14 13,4 C 22,2 C 93 % 1013,6 hPa 0,0 l/m 8,9 km/h (2 Bft) S-SW 202 0 min 0,000 mm 0,0 UV-I 34 W/m 12,3 C 11,9 C 14,5 km/h (3 Bft) 97,37 %
11.08.2017 10:16 13,4 C 22,2 C 94 % 1013,5 hPa 0,0 l/m 6,8 km/h (2 Bft) W 273 0 min 0,000 mm 0,0 UV-I 55 W/m 12,5 C 13,2 C 12,9 km/h (3 Bft) 96,43 %
11.08.2017 10:18 13,4 C 22,2 C 94 % 1013,7 hPa 0,0 l/m 6,9 km/h (2 Bft) S-SW 207 0 min 0,000 mm 0,0 UV-I 57 W/m 12,5 C 13,1 C 11,3 km/h (2 Bft) 97,37 %
11.08.2017 10:20 13,4 C 22,2 C 94 % 1013,9 hPa 0,0 l/m 11,4 km/h (2 Bft) S-SW 210 0 min 0,000 mm 0,0 UV-I 40 W/m 12,5 C 10,7 C 16,1 km/h (3 Bft) 93,62 %
11.08.2017 10:22 13,4 C 22,2 C 94 % 1013,8 hPa 0,0 l/m 11,5 km/h (2 Bft) SW 214 0 min 0,000 mm 0,0 UV-I 43 W/m 12,5 C 10,6 C 19,3 km/h (3 Bft) 98,11 %
11.08.2017 10:24 13,3 C 22,2 C 94 % 1013,7 hPa 0,0 l/m 11,3 km/h (2 Bft) W-SW 248 0 min 0,000 mm 0,0 UV-I 70 W/m 12,4 C 10,6 C 17,7 km/h (3 Bft) 97,87 %
11.08.2017 10:26 13,3 C 22,2 C 93 % 1013,6 hPa 0,0 l/m 9,7 km/h (2 Bft) SW 236 0 min 0,000 mm 0,5 UV-I 96 W/m 12,2 C 11,4 C 16,1 km/h (3 Bft) 97,56 %
11.08.2017 10:28 13,3 C 22,2 C 93 % 1013,8 hPa 0,0 l/m 13,7 km/h (3 Bft) W-SW 250 0 min 0,000 mm 0,0 UV-I 70 W/m 12,2 C 9,6 C 22,5 km/h (4 Bft) 97,73 %
11.08.2017 10:30 13,3 C 22,2 C 93 % 1013,8 hPa 0,0 l/m 12,5 km/h (3 Bft) W 261 0 min 0,000 mm 0,0 UV-I 49 W/m 12,2 C 10,1 C 19,3 km/h (3 Bft) 98,31 %
11.08.2017 10:32 13,3 C 22,2 C 93 % 1013,6 hPa 0,0 l/m 4,9 km/h (1 Bft) W 271 0 min 0,000 mm 0,0 UV-I 51 W/m 12,2 C 13,3 C 11,3 km/h (2 Bft) 97,37 %
11.08.2017 10:34 13,3 C 22,2 C 93 % 1013,2 hPa 0,0 l/m 1,6 km/h (1 Bft) W-NW 289 0 min 0,000 mm 0,0 UV-I 58 W/m 12,2 C 13,3 C 3,2 km/h (1 Bft) 98,21 %
11.08.2017 10:36 13,3 C 22,2 C 93 % 1013,0 hPa 0,0 l/m 1,1 km/h (1 Bft) N 355 0 min 0,000 mm 0,0 UV-I 59 W/m 12,2 C 13,3 C 4,8 km/h (1 Bft) 97,87 %
11.08.2017 10:38 13,3 C 22,2 C 94 % 1012,8 hPa 0,0 l/m 1,1 km/h (1 Bft) N 355 0 min 0,000 mm 0,0 UV-I 55 W/m 12,4 C 13,3 C 4,8 km/h (1 Bft) 93,62 %
11.08.2017 10:40 13,3 C 22,2 C 94 % 1012,7 hPa 0,0 l/m 1,4 km/h (1 Bft) N-NW 329 0 min 0,000 mm 0,0 UV-I 44 W/m 12,4 C 13,3 C 3,2 km/h (1 Bft) 100,00 %
11.08.2017 10:42 13,3 C 22,2 C 94 % 1012,7 hPa 0,0 l/m 2,5 km/h (1 Bft) W-NW 300 0 min 0,000 mm 0,0 UV-I 29 W/m 12,4 C 13,3 C 4,8 km/h (1 Bft) 96,08 %
11.08.2017 10:44 13,3 C 22,2 C 94 % 1012,3 hPa 0,0 l/m 3,5 km/h (1 Bft) N-NW 341 0 min 0,000 mm 0,0 UV-I 25 W/m 12,4 C 13,3 C 6,4 km/h (2 Bft) 97,73 %
11.08.2017 10:46 13,3 C 22,2 C 94 % 1012,2 hPa 0,0 l/m 7,4 km/h (2 Bft) N-NO 27 0 min 0,000 mm 0,0 UV-I 23 W/m 12,4 C 12,7 C 12,9 km/h (3 Bft) 97,73 %
11.08.2017 10:48 13,3 C 22,2 C 94 % 1012,3 hPa 0,0 l/m 5,0 km/h (1 Bft) N-NO 19 0 min 0,000 mm 0,0 UV-I 19 W/m 12,4 C 13,3 C 12,9 km/h (3 Bft) 98,00 %
11.08.2017 10:50 13,3 C 22,2 C 94 % 1012,3 hPa 0,0 l/m 5,0 km/h (1 Bft) W 276 0 min 0,000 mm 0,0 UV-I 17 W/m 12,4 C 13,3 C 14,5 km/h (3 Bft) 97,87 %
11.08.2017 10:52 13,2 C 22,2 C 94 % 1013,2 hPa 0,2 l/m 11,5 km/h (2 Bft) S-SW 206 0 min 0,000 mm 0,0 UV-I 10 W/m 12,3 C 10,4 C 17,7 km/h (3 Bft) 96,00 %
11.08.2017 10:54 13,2 C 22,2 C 94 % 1013,4 hPa 0,4 l/m 13,2 km/h (3 Bft) W-SW 237 0 min 0,000 mm 0,0 UV-I 6 W/m 12,3 C 9,7 C 19,3 km/h (3 Bft) 97,56 %
11.08.2017 10:56 13,2 C 22,2 C 94 % 1013,6 hPa 0,2 l/m 11,0 km/h (2 Bft) S-SW 208 0 min 0,000 mm 0,0 UV-I 6 W/m 12,3 C 10,6 C 16,1 km/h (3 Bft) 98,00 %
11.08.2017 10:58 13,2 C 22,2 C 94 % 1013,9 hPa 0,8 l/m 6,6 km/h (2 Bft) S-SW 198 0 min 0,000 mm 0,0 UV-I 7 W/m 12,3 C 13,1 C 11,3 km/h (2 Bft) 97,56 %
11.08.2017 11:00 13,2 C 22,2 C 94 % 1014,3 hPa 0,8 l/m 7,5 km/h (2 Bft) S 178 0 min 0,026 mm 0,0 UV-I 7 W/m 12,3 C 12,5 C 11,3 km/h (2 Bft) 93,18 %
11.08.2017 11:02 13,2 C 22,2 C 94 % 1015,0 hPa 0,6 l/m 11,6 km/h (2 Bft) S-SO 148 0 min 0,000 mm 0,0 UV-I 7 W/m 12,3 C 10,4 C 17,7 km/h (3 Bft) 96,23 %
11.08.2017 11:04 13,1 C 22,2 C 94 % 1014,8 hPa 1,4 l/m 10,3 km/h (2 Bft) S-SO 159 0 min 0,000 mm 0,0 UV-I 16 W/m 12,2 C 10,9 C 14,5 km/h (3 Bft) 93,62 %
11.08.2017 11:06 13,1 C 22,2 C 94 % 1014,0 hPa 1,6 l/m 10,5 km/h (2 Bft) SW 232 0 min 0,000 mm 0,0 UV-I 24 W/m 12,2 C 10,8 C 16,1 km/h (3 Bft) 97,56 %
11.08.2017 11:08 13,1 C 22,2 C 94 % 1013,9 hPa 2,2 l/m 11,1 km/h (2 Bft) SW 231 0 min 0,000 mm 0,0 UV-I 22 W/m 12,2 C 10,5 C 17,7 km/h (3 Bft) 95,83 %
11.08.2017 11:10 13,0 C 22,2 C 94 % 1013,8 hPa 0,6 l/m 3,3 km/h (1 Bft) W-SW 238 0 min 0,000 mm 0,0 UV-I 23 W/m 12,1 C 13,0 C 6,4 km/h (2 Bft) 96,61 %
11.08.2017 11:12 12,9 C 22,2 C 94 % 1013,8 hPa 0,4 l/m 4,2 km/h (1 Bft) SW 214 0 min 0,000 mm 0,0 UV-I 22 W/m 12,0 C 12,9 C 9,7 km/h (2 Bft) 97,87 %
11.08.2017 11:14 12,9 C 22,2 C 94 % 1013,1 hPa 2,8 l/m 0,0 km/h (0 Bft) SW 215 0 min 0,000 mm 0,0 UV-I 16 W/m 12,0 C 12,9 C 1,6 km/h (1 Bft) 97,73 %
11.08.2017 11:16 12,8 C 22,2 C 94 % 1012,5 hPa 2,2 l/m 3,2 km/h (1 Bft) N 350 0 min 0,000 mm 0,0 UV-I 20 W/m 11,9 C 12,8 C 4,8 km/h (1 Bft) 97,87 %
11.08.2017 11:18 12,7 C 22,2 C 94 % 1012,5 hPa 1,0 l/m 4,8 km/h (1 Bft) NO 35 0 min 0,000 mm 0,0 UV-I 29 W/m 11,8 C 12,7 C 8,0 km/h (2 Bft) 97,87 %
11.08.2017 11:20 12,7 C 22,2 C 94 % 1012,5 hPa 0,4 l/m 4,1 km/h (1 Bft) N-NW 329 0 min 0,000 mm 0,0 UV-I 32 W/m 11,8 C 12,7 C 6,4 km/h (2 Bft) 97,62 %
11.08.2017 11:22 12,7 C 22,2 C 95 % 1012,4 hPa 0,2 l/m 1,5 km/h (1 Bft) NW 325 0 min 0,000 mm 0,0 UV-I 27 W/m 11,9 C 12,7 C 3,2 km/h (1 Bft) 94,34 %
11.08.2017 11:24 12,7 C 22,2 C 95 % 1012,6 hPa 0,0 l/m 1,2 km/h (1 Bft) NW 326 0 min 0,000 mm 0,0 UV-I 22 W/m 11,9 C 12,7 C 3,2 km/h (1 Bft) 95,74 %
11.08.2017 11:26 12,7 C 22,2 C 95 % 1012,5 hPa 0,2 l/m 0,5 km/h (0 Bft) NW 325 0 min 0,000 mm 0,0 UV-I 18 W/m 11,9 C 12,7 C 3,2 km/h (1 Bft) 94,74 %
11.08.2017 11:28 12,6 C 22,2 C 95 % 1011,8 hPa 0,0 l/m 3,1 km/h (1 Bft) N-NW 333 0 min 0,000 mm 0,0 UV-I 18 W/m 11,8 C 12,6 C 6,4 km/h (2 Bft) 97,73 %
11.08.2017 11:30 12,7 C 22,2 C 95 % 1012,2 hPa 0,2 l/m 5,6 km/h (1 Bft) NO 44 0 min 0,000 mm 0,0 UV-I 19 W/m 11,9 C 12,7 C 11,3 km/h (2 Bft) 96,23 %
11.08.2017 11:32 12,7 C 22,2 C 95 % 1013,3 hPa 0,0 l/m 13,1 km/h (3 Bft) O 101 0 min 0,000 mm 0,0 UV-I 22 W/m 11,9 C 9,2 C 19,3 km/h (3 Bft) 96,00 %
11.08.2017 11:34 12,6 C 22,2 C 95 % 1013,4 hPa 0,0 l/m 11,9 km/h (2 Bft) SO 130 0 min 0,000 mm 0,0 UV-I 18 W/m 11,8 C 9,6 C 16,1 km/h (3 Bft) 100,00 %
11.08.2017 11:36 12,7 C 22,2 C 95 % 1013,5 hPa 0,0 l/m 4,9 km/h (1 Bft) S-SO 159 0 min 0,000 mm 0,0 UV-I 17 W/m 11,9 C 12,7 C 11,3 km/h (2 Bft) 98,39 %
11.08.2017 11:38 12,6 C 22,2 C 95 % 1013,1 hPa 0,0 l/m 5,8 km/h (2 Bft) W-SW 246 0 min 0,000 mm 0,0 UV-I 22 W/m 11,8 C 12,6 C 8,0 km/h (2 Bft) 100,00 %
11.08.2017 11:40 12,7 C 22,2 C 95 % 1012,8 hPa 0,2 l/m 7,0 km/h (2 Bft) W-SW 244 0 min 0,000 mm 0,0 UV-I 28 W/m 11,9 C 12,3 C 9,7 km/h (2 Bft) 100,00 %
11.08.2017 11:42 12,7 C 22,2 C 95 % 1012,0 hPa 0,0 l/m 10,2 km/h (2 Bft) W-NW 292 0 min 0,000 mm 0,0 UV-I 33 W/m 11,9 C 10,5 C 16,1 km/h (3 Bft) 100,00 %
11.08.2017 11:44 12,7 C 22,2 C 96 % 1012,6 hPa 0,0 l/m 4,5 km/h (1 Bft) S-SW 202 0 min 0,000 mm 0,0 UV-I 53 W/m 12,1 C 12,7 C 8,0 km/h (2 Bft) 100,00 %
11.08.2017 11:46 12,7 C 22,2 C 96 % 1013,4 hPa 0,0 l/m 7,5 km/h (2 Bft) S-SO 167 0 min 0,000 mm 0,0 UV-I 44 W/m 12,1 C 12,0 C 14,5 km/h (3 Bft) 97,56 %
11.08.2017 11:48 12,8 C 22,2 C 96 % 1013,1 hPa 0,2 l/m 3,2 km/h (1 Bft) S-SW 204 0 min 0,000 mm 0,0 UV-I 39 W/m 12,2 C 12,8 C 6,4 km/h (2 Bft) 100,00 %
11.08.2017 11:50 12,8 C 22,2 C 96 % 1012,7 hPa 0,0 l/m 5,2 km/h (1 Bft) W-SW 257 0 min 0,000 mm 0,0 UV-I 63 W/m 12,2 C 12,8 C 11,3 km/h (2 Bft) 100,00 %
11.08.2017 11:52 12,8 C 22,2 C 96 % 1012,6 hPa 0,0 l/m 8,9 km/h (2 Bft) W-SW 248 0 min 0,000 mm 0,0 UV-I 79 W/m 12,2 C 11,3 C 14,5 km/h (3 Bft) 100,00 %
11.08.2017 11:54 12,9 C 22,2 C 96 % 1012,9 hPa 0,0 l/m 7,4 km/h (2 Bft) SW 224 0 min 0,000 mm 0,0 UV-I 68 W/m 12,3 C 12,3 C 12,9 km/h (3 Bft) 100,00 %
11.08.2017 11:56 12,9 C 22,2 C 96 % 1013,1 hPa 0,0 l/m 6,0 km/h (2 Bft) S-SW 201 0 min 0,000 mm 0,0 UV-I 66 W/m 12,3 C 12,9 C 9,7 km/h (2 Bft) 100,00 %
11.08.2017 11:58 12,9 C 22,2 C 96 % 1013,4 hPa 0,0 l/m 5,8 km/h (2 Bft) S-SW 204 0 min 0,000 mm 0,1 UV-I 70 W/m 12,3 C 12,9 C 8,0 km/h (2 Bft) 100,00 %
11.08.2017 12:00 13,1 C 22,2 C 96 % 1013,4 hPa 0,0 l/m 4,0 km/h (1 Bft) W-SW 242 0 min 0,025 mm 0,7 UV-I 97 W/m 12,5 C 13,1 C 8,0 km/h (2 Bft) 100,00 %
11.08.2017 12:02 13,1 C 22,2 C 96 % 1013,5 hPa 0,0 l/m 4,6 km/h (1 Bft) SW 215 0 min 0,000 mm 0,9 UV-I 123 W/m 12,5 C 13,1 C 9,7 km/h (2 Bft) 97,87 %
11.08.2017 12:04 13,2 C 22,2 C 96 % 1013,6 hPa 0,0 l/m 5,8 km/h (2 Bft) S-SW 196 0 min 0,000 mm 0,7 UV-I 113 W/m 12,6 C 13,2 C 9,7 km/h (2 Bft) 98,00 %
11.08.2017 12:06 13,2 C 22,2 C 96 % 1013,3 hPa 0,0 l/m 11,1 km/h (2 Bft) W-SW 245 0 min 0,000 mm 0,6 UV-I 86 W/m 12,6 C 10,6 C 14,5 km/h (3 Bft) 100,00 %
11.08.2017 12:08 13,2 C 22,2 C 96 % 1013,2 hPa 0,0 l/m 10,5 km/h (2 Bft) S-SW 208 0 min 0,000 mm 0,5 UV-I 81 W/m 12,6 C 10,9 C 17,7 km/h (3 Bft) 100,00 %
11.08.2017 12:10 13,2 C 22,2 C 96 % 1013,1 hPa 0,0 l/m 9,8 km/h (2 Bft) SW 235 0 min 0,000 mm 0,1 UV-I 66 W/m 12,6 C 11,2 C 17,7 km/h (3 Bft) 100,00 %
11.08.2017 12:12 13,2 C 22,2 C 96 % 1012,8 hPa 0,0 l/m 8,9 km/h (2 Bft) W-SW 248 0 min 0,000 mm 0,0 UV-I 73 W/m 12,6 C 11,7 C 14,5 km/h (3 Bft) 100,00 %
11.08.2017 12:14 13,2 C 22,2 C 96 % 1012,8 hPa 0,0 l/m 15,1 km/h (3 Bft) S-SW 212 0 min 0,000 mm 0,0 UV-I 77 W/m 12,6 C 9,0 C 22,5 km/h (4 Bft) 100,00 %
11.08.2017 12:16 13,2 C 22,2 C 96 % 1012,8 hPa 0,0 l/m 12,6 km/h (3 Bft) W-SW 240 0 min 0,000 mm 0,0 UV-I 65 W/m 12,6 C 9,9 C 19,3 km/h (3 Bft) 100,00 %
11.08.2017 12:18 13,2 C 22,2 C 96 % 1012,9 hPa 0,0 l/m 10,1 km/h (2 Bft) W-SW 244 0 min 0,000 mm 0,0 UV-I 65 W/m 12,6 C 11,1 C 14,5 km/h (3 Bft) 100,00 %
11.08.2017 12:20 13,2 C 22,2 C 96 % 1012,9 hPa 0,0 l/m 10,0 km/h (2 Bft) W-SW 246 0 min 0,000 mm 0,4 UV-I 83 W/m 12,6 C 11,1 C 16,1 km/h (3 Bft) 100,00 %
11.08.2017 12:22 13,2 C 22,2 C 96 % 1012,8 hPa 0,0 l/m 6,4 km/h (2 Bft) W-SW 247 0 min 0,000 mm 0,7 UV-I 122 W/m 12,6 C 13,2 C 8,0 km/h (2 Bft) 100,00 %
11.08.2017 12:24 13,2 C 22,2 C 96 % 1013,0 hPa 0,0 l/m 10,1 km/h (2 Bft) W-SW 257 0 min 0,000 mm 0,7 UV-I 117 W/m 12,6 C 11,1 C 19,3 km/h (3 Bft) 100,00 %
11.08.2017 12:26 13,2 C 22,2 C 96 % 1013,1 hPa 0,0 l/m 7,8 km/h (2 Bft) W-SW 253 0 min 0,000 mm 0,6 UV-I 98 W/m 12,6 C 12,3 C 11,3 km/h (2 Bft) 100,00 %
11.08.2017 12:28 13,3 C 22,2 C 96 % 1013,3 hPa 0,0 l/m 5,7 km/h (1 Bft) W-SW 246 0 min 0,000 mm 0,8 UV-I 109 W/m 12,7 C 13,3 C 8,0 km/h (2 Bft) 98,08 %
11.08.2017 12:30 13,3 C 22,2 C 96 % 1013,4 hPa 0,0 l/m 4,8 km/h (1 Bft) W-SW 242 0 min 0,000 mm 0,7 UV-I 105 W/m 12,7 C 13,3 C 8,0 km/h (2 Bft) 100,00 %
11.08.2017 12:32 13,4 C 22,2 C 96 % 1013,6 hPa 0,0 l/m 4,0 km/h (1 Bft) W-SW 245 0 min 0,000 mm 0,6 UV-I 83 W/m 12,8 C 13,4 C 6,4 km/h (2 Bft) 100,00 %
11.08.2017 12:34 13,4 C 22,2 C 96 % 1013,6 hPa 0,0 l/m 3,3 km/h (1 Bft) W 264 0 min 0,000 mm 0,6 UV-I 83 W/m 12,8 C 13,4 C 6,4 km/h (2 Bft) 100,00 %
11.08.2017 12:36 13,4 C 22,2 C 96 % 1013,4 hPa 0,0 l/m 7,0 km/h (2 Bft) W-SW 254 0 min 0,000 mm 0,6 UV-I 89 W/m 12,8 C 13,0 C 14,5 km/h (3 Bft) 100,00 %
11.08.2017 12:38 13,4 C 22,2 C 96 % 1013,4 hPa 0,0 l/m 6,8 km/h (2 Bft) W-SW 257 0 min 0,000 mm 0,7 UV-I 95 W/m 12,8 C 13,2 C 12,9 km/h (3 Bft) 100,00 %
11.08.2017 12:40 13,5 C 21,7 C 96 % 1013,3 hPa 0,0 l/m 5,1 km/h (1 Bft) W 272 0 min 0,000 mm 0,7 UV-I 91 W/m 12,9 C 13,5 C 11,3 km/h (2 Bft) 98,21 %
11.08.2017 12:42 13,5 C 21,7 C 95 % 1013,0 hPa 0,0 l/m 7,0 km/h (2 Bft) W-SW 254 0 min 0,000 mm 0,7 UV-I 97 W/m 12,7 C 13,1 C 11,3 km/h (2 Bft) 100,00 %
11.08.2017 12:44 13,6 C 21,7 C 96 % 1012,9 hPa 0,0 l/m 5,5 km/h (1 Bft) W-SW 252 0 min 0,000 mm 0,8 UV-I 117 W/m 13,0 C 13,6 C 6,4 km/h (2 Bft) 100,00 %
11.08.2017 12:46 13,6 C 22,2 C 95 % 1013,1 hPa 0,0 l/m 7,0 km/h (2 Bft) SW 232 0 min 0,000 mm 0,9 UV-I 123 W/m 12,8 C 13,2 C 12,9 km/h (3 Bft) 100,00 %
11.08.2017 12:48 13,6 C 22,2 C 95 % 1013,4 hPa 0,0 l/m 4,9 km/h (1 Bft) SW 234 0 min 0,000 mm 0,7 UV-I 98 W/m 12,8 C 13,6 C 9,7 km/h (2 Bft) 97,87 %
11.08.2017 12:50 13,6 C 21,7 C 96 % 1013,8 hPa 0,0 l/m 9,0 km/h (2 Bft) W-SW 252 0 min 0,000 mm 0,2 UV-I 65 W/m 13,0 C 12,1 C 14,5 km/h (3 Bft) 100,00 %
11.08.2017 12:52 13,6 C 21,7 C 95 % 1013,9 hPa 0,0 l/m 8,2 km/h (2 Bft) W-SW 239 0 min 0,000 mm 0,0 UV-I 53 W/m 12,8 C 12,5 C 14,5 km/h (3 Bft) 94,74 %
11.08.2017 12:54 13,6 C 21,7 C 95 % 1013,9 hPa 0,0 l/m 8,1 km/h (2 Bft) W-SW 237 0 min 0,000 mm 0,0 UV-I 54 W/m 12,8 C 12,6 C 12,9 km/h (3 Bft) 98,21 %
11.08.2017 12:56 13,6 C 21,7 C 96 % 1013,9 hPa 0,0 l/m 8,3 km/h (2 Bft) W-SW 248 0 min 0,000 mm 0,0 UV-I 61 W/m 13,0 C 12,5 C 14,5 km/h (3 Bft) 100,00 %
11.08.2017 12:58 13,6 C 21,7 C 95 % 1013,7 hPa 0,0 l/m 10,4 km/h (2 Bft) W-SW 250 0 min 0,000 mm 0,5 UV-I 81 W/m 12,8 C 11,4 C 14,5 km/h (3 Bft) 100,00 %
11.08.2017 13:00 13,6 C 21,7 C 95 % 1013,6 hPa 0,0 l/m 12,7 km/h (3 Bft) SW 236 0 min 0,051 mm 0,4 UV-I 79 W/m 12,8 C 10,4 C 17,7 km/h (3 Bft) 100,00 %
11.08.2017 13:02 13,6 C 21,7 C 95 % 1013,7 hPa 0,0 l/m 11,5 km/h (2 Bft) S-SW 203 0 min 0,000 mm 0,0 UV-I 58 W/m 12,8 C 10,9 C 17,7 km/h (3 Bft) 97,56 %
11.08.2017 13:04 13,6 C 21,7 C 95 % 1013,9 hPa 0,0 l/m 12,6 km/h (3 Bft) W-SW 250 0 min 0,000 mm 0,0 UV-I 53 W/m 12,8 C 10,4 C 16,1 km/h (3 Bft) 96,00 %
11.08.2017 13:06 13,6 C 21,7 C 95 % 1014,2 hPa 0,0 l/m 12,0 km/h (2 Bft) SW 225 0 min 0,000 mm 0,0 UV-I 50 W/m 12,8 C 10,7 C 17,7 km/h (3 Bft) 98,11 %
11.08.2017 13:08 13,6 C 21,7 C 95 % 1014,4 hPa 0,0 l/m 7,9 km/h (2 Bft) S-SW 204 0 min 0,000 mm 0,0 UV-I 34 W/m 12,8 C 12,7 C 16,1 km/h (3 Bft) 97,37 %
11.08.2017 13:10 13,6 C 21,7 C 95 % 1014,0 hPa 0,0 l/m 7,8 km/h (2 Bft) W-SW 248 0 min 0,000 mm 0,0 UV-I 37 W/m 12,8 C 12,7 C 11,3 km/h (2 Bft) 96,43 %
11.08.2017 13:12 13,6 C 21,7 C 95 % 1013,6 hPa 0,0 l/m 7,4 km/h (2 Bft) W-SW 257 0 min 0,000 mm 0,1 UV-I 56 W/m 12,8 C 13,0 C 16,1 km/h (3 Bft) 100,00 %
11.08.2017 13:14 13,6 C 21,7 C 95 % 1013,5 hPa 0,0 l/m 13,7 km/h (3 Bft) W-SW 250 0 min 0,000 mm 0,3 UV-I 55 W/m 12,8 C 10,0 C 19,3 km/h (3 Bft) 96,23 %
11.08.2017 13:16 13,6 C 21,7 C 95 % 1013,5 hPa 0,0 l/m 15,1 km/h (3 Bft) W-SW 253 0 min 0,000 mm 0,2 UV-I 56 W/m 12,8 C 9,5 C 19,3 km/h (3 Bft) 97,22 %
11.08.2017 13:18 13,6 C 21,7 C 95 % 1013,7 hPa 0,0 l/m 13,8 km/h (3 Bft) W-SW 243 0 min 0,000 mm 0,0 UV-I 48 W/m 12,8 C 9,9 C 19,3 km/h (3 Bft) 98,11 %
11.08.2017 13:20 13,6 C 21,7 C 95 % 1013,6 hPa 0,0 l/m 11,5 km/h (2 Bft) W-SW 254 0 min 0,000 mm 0,0 UV-I 47 W/m 12,8 C 10,9 C 16,1 km/h (3 Bft) 98,00 %
11.08.2017 13:22 13,6 C 21,7 C 95 % 1013,5 hPa 0,0 l/m 12,3 km/h (3 Bft) W-SW 240 0 min 0,000 mm 0,0 UV-I 57 W/m 12,8 C 10,5 C 19,3 km/h (3 Bft) 96,00 %
11.08.2017 13:24 13,6 C 21,7 C 95 % 1013,4 hPa 0,0 l/m 14,6 km/h (3 Bft) SW 226 0 min 0,000 mm 0,4 UV-I 68 W/m 12,8 C 9,6 C 20,9 km/h (4 Bft) 97,56 %
11.08.2017 13:26 13,6 C 21,7 C 95 % 1013,6 hPa 0,0 l/m 10,2 km/h (2 Bft) SW 233 0 min 0,000 mm 0,0 UV-I 52 W/m 12,8 C 11,5 C 16,1 km/h (3 Bft) 98,00 %
11.08.2017 13:28 13,6 C 21,7 C 95 % 1013,8 hPa 0,0 l/m 10,6 km/h (2 Bft) W-SW 252 0 min 0,000 mm 0,0 UV-I 30 W/m 12,8 C 11,3 C 17,7 km/h (3 Bft) 97,56 %
11.08.2017 13:30 13,6 C 21,7 C 95 % 1014,0 hPa 0,0 l/m 10,2 km/h (2 Bft) S-SW 204 0 min 0,000 mm 0,0 UV-I 21 W/m 12,8 C 11,5 C 16,1 km/h (3 Bft) 96,00 %
11.08.2017 13:32 13,6 C 21,7 C 95 % 1014,0 hPa 0,0 l/m 11,8 km/h (2 Bft) W 270 0 min 0,000 mm 0,0 UV-I 18 W/m 12,8 C 10,7 C 20,9 km/h (4 Bft) 95,74 %
11.08.2017 13:34 13,6 C 21,7 C 95 % 1013,8 hPa 0,0 l/m 21,9 km/h (4 Bft) W-SW 254 0 min 0,000 mm 0,0 UV-I 16 W/m 12,8 C 7,4 C 30,6 km/h (5 Bft) 100,00 %
11.08.2017 13:36 13,5 C 21,7 C 95 % 1013,7 hPa 0,0 l/m 15,0 km/h (3 Bft) W 276 0 min 0,000 mm 0,0 UV-I 15 W/m 12,7 C 9,4 C 27,4 km/h (4 Bft) 100,00 %
11.08.2017 13:38 13,4 C 21,7 C 95 % 1013,6 hPa 0,0 l/m 16,2 km/h (3 Bft) W-SW 245 0 min 0,000 mm 0,0 UV-I 13 W/m 12,6 C 8,8 C 24,1 km/h (4 Bft) 100,00 %
11.08.2017 13:40 13,4 C 21,7 C 95 % 1013,5 hPa 0,0 l/m 16,3 km/h (3 Bft) W-SW 242 0 min 0,000 mm 0,0 UV-I 13 W/m 12,6 C 8,8 C 22,5 km/h (4 Bft) 100,00 %
11.08.2017 13:42 13,3 C 21,7 C 95 % 1013,3 hPa 0,2 l/m 14,2 km/h (3 Bft) W-SW 256 0 min 0,000 mm 0,0 UV-I 14 W/m 12,5 C 9,4 C 19,3 km/h (3 Bft) 100,00 %
11.08.2017 13:44 13,3 C 21,7 C 95 % 1013,7 hPa 0,0 l/m 12,5 km/h (3 Bft) S-SW 213 0 min 0,000 mm 0,0 UV-I 14 W/m 12,5 C 10,1 C 17,7 km/h (3 Bft) 100,00 %
11.08.2017 13:46 13,3 C 21,7 C 95 % 1013,8 hPa 0,0 l/m 13,1 km/h (3 Bft) SW 227 0 min 0,000 mm 0,0 UV-I 16 W/m 12,5 C 9,9 C 22,5 km/h (4 Bft) 92,11 %
11.08.2017 13:48 13,3 C 21,7 C 95 % 1014,1 hPa 0,0 l/m 12,0 km/h (2 Bft) W 267 0 min 0,000 mm 0,0 UV-I 21 W/m 12,5 C 10,3 C 19,3 km/h (3 Bft) 100,00 %
11.08.2017 13:50 13,3 C 21,7 C 95 % 1013,2 hPa 0,6 l/m 5,0 km/h (1 Bft) N 11 0 min 0,000 mm 0,0 UV-I 44 W/m 12,5 C 13,3 C 12,9 km/h (3 Bft) 100,00 %
11.08.2017 13:52 13,3 C 21,7 C 95 % 1012,7 hPa 0,4 l/m 9,3 km/h (2 Bft) N-NO 26 0 min 0,000 mm 0,8 UV-I 119 W/m 12,5 C 11,6 C 14,5 km/h (3 Bft) 100,00 %
11.08.2017 13:54 13,5 C 21,7 C 96 % 1012,6 hPa 0,4 l/m 11,1 km/h (2 Bft) NO 36 0 min 0,000 mm 2,5 UV-I 200 W/m 12,9 C 10,9 C 17,7 km/h (3 Bft) 100,00 %
11.08.2017 13:56 13,8 C 21,7 C 96 % 1012,2 hPa 0,2 l/m 17,4 km/h (3 Bft) N-NO 28 0 min 0,000 mm 3,5 UV-I 200 W/m 13,2 C 8,9 C 22,5 km/h (4 Bft) 97,73 %
11.08.2017 13:58 13,9 C 21,7 C 96 % 1011,5 hPa 0,0 l/m 13,6 km/h (3 Bft) NO 50 0 min 0,000 mm 3,0 UV-I 200 W/m 13,3 C 10,4 C 20,9 km/h (4 Bft) 98,00 %
11.08.2017 14:00 13,9 C 21,7 C 96 % 1011,5 hPa 0,0 l/m 6,5 km/h (2 Bft) N 5 0 min 0,051 mm 3,4 UV-I 353 W/m 13,3 C 13,9 C 12,9 km/h (3 Bft) 97,87 %
11.08.2017 14:02 14,0 C 21,7 C 96 % 1011,5 hPa 0,0 l/m 7,2 km/h (2 Bft) N-NW 337 0 min 0,000 mm 5,2 UV-I 432 W/m 13,4 C 13,5 C 17,7 km/h (3 Bft) 95,74 %
11.08.2017 14:04 14,1 C 21,7 C 96 % 1011,6 hPa 0,0 l/m 7,9 km/h (2 Bft) N-NW 329 2 min 0,000 mm 3,8 UV-I 805 W/m 13,5 C 13,2 C 14,5 km/h (3 Bft) 97,73 %
11.08.2017 14:06 14,0 C 21,7 C 96 % 1011,9 hPa 0,0 l/m 4,7 km/h (1 Bft) N-NW 342 0 min 0,000 mm 2,6 UV-I 396 W/m 13,4 C 14,0 C 9,7 km/h (2 Bft) 98,11 %
11.08.2017 14:08 14,1 C 21,7 C 96 % 1012,2 hPa 0,0 l/m 6,4 km/h (2 Bft) N-NO 26 0 min 0,000 mm 1,9 UV-I 226 W/m 13,5 C 14,1 C 14,5 km/h (3 Bft) 97,62 %
11.08.2017 14:10 14,1 C 21,7 C 96 % 1012,6 hPa 0,0 l/m 4,4 km/h (1 Bft) W-NW 282 0 min 0,000 mm 1,6 UV-I 205 W/m 13,5 C 14,1 C 8,0 km/h (2 Bft) 95,74 %
11.08.2017 14:12 13,9 C 21,7 C 95 % 1012,7 hPa 0,0 l/m 4,2 km/h (1 Bft) W-NW 284 0 min 0,000 mm 1,8 UV-I 262 W/m 13,1 C 13,9 C 6,4 km/h (2 Bft) 98,11 %
11.08.2017 14:14 13,9 C 21,7 C 95 % 1012,7 hPa 0,0 l/m 9,9 km/h (2 Bft) W-NW 288 0 min 0,000 mm 2,0 UV-I 260 W/m 13,1 C 12,0 C 16,1 km/h (3 Bft) 95,12 %
11.08.2017 14:16 14,0 C 21,7 C 95 % 1012,9 hPa 0,0 l/m 5,1 km/h (1 Bft) W-SW 252 0 min 0,000 mm 2,0 UV-I 239 W/m 13,2 C 14,0 C 9,7 km/h (2 Bft) 95,74 %
11.08.2017 14:18 14,2 C 21,7 C 96 % 1013,2 hPa 0,0 l/m 2,4 km/h (1 Bft) W-SW 240 2 min 0,000 mm 3,0 UV-I 465 W/m 13,6 C 14,2 C 6,4 km/h (2 Bft) 97,87 %
11.08.2017 14:20 14,6 C 21,7 C 96 % 1013,5 hPa 0,0 l/m 2,7 km/h (1 Bft) W-SW 249 2 min 0,000 mm 3,6 UV-I 515 W/m 14,0 C 14,6 C 4,8 km/h (1 Bft) 96,43 %
11.08.2017 14:22 15,2 C 21,7 C 97 % 1013,6 hPa 0,0 l/m 0,8 km/h (0 Bft) S 191 2 min 0,000 mm 5,4 UV-I 969 W/m 14,7 C 15,2 C 3,2 km/h (1 Bft) 97,37 %
11.08.2017 14:24 14,9 C 21,7 C 93 % 1013,5 hPa 0,0 l/m 0,9 km/h (0 Bft) S 190 2 min 0,000 mm 3,2 UV-I 606 W/m 13,8 C 14,9 C 3,2 km/h (1 Bft) 98,00 %
11.08.2017 14:26 14,8 C 21,7 C 93 % 1013,5 hPa 0,0 l/m 1,1 km/h (1 Bft) S 191 0 min 0,000 mm 2,6 UV-I 395 W/m 13,7 C 14,8 C 4,8 km/h (1 Bft) 97,56 %
11.08.2017 14:28 14,9 C 21,7 C 94 % 1013,3 hPa 0,0 l/m 0,5 km/h (0 Bft) S 190 0 min 0,000 mm 2,0 UV-I 274 W/m 13,9 C 14,9 C 3,2 km/h (1 Bft) 97,87 %
11.08.2017 14:30 15,1 C 21,7 C 94 % 1013,2 hPa 0,0 l/m 0,7 km/h (0 Bft) W 271 0 min 0,000 mm 1,9 UV-I 243 W/m 14,1 C 15,1 C 3,2 km/h (1 Bft) 98,11 %
11.08.2017 14:32 15,1 C 21,7 C 93 % 1013,3 hPa 0,0 l/m 1,8 km/h (1 Bft) W-SW 248 0 min 0,000 mm 1,8 UV-I 292 W/m 14,0 C 15,1 C 4,8 km/h (1 Bft) 98,00 %
11.08.2017 14:34 15,0 C 21,7 C 92 % 1013,3 hPa 0,0 l/m 1,7 km/h (1 Bft) NW 321 0 min 0,000 mm 1,5 UV-I 215 W/m 13,7 C 15,0 C 3,2 km/h (1 Bft) 97,44 %
11.08.2017 14:36 14,9 C 21,7 C 92 % 1013,2 hPa 0,0 l/m 1,7 km/h (1 Bft) N-NW 330 0 min 0,000 mm 2,1 UV-I 285 W/m 13,6 C 14,9 C 4,8 km/h (1 Bft) 97,87 %
11.08.2017 14:38 15,0 C 21,7 C 92 % 1013,3 hPa 0,0 l/m 1,7 km/h (1 Bft) N 5 2 min 0,000 mm 3,0 UV-I 469 W/m 13,7 C 15,0 C 4,8 km/h (1 Bft) 96,00 %
11.08.2017 14:40 15,2 C 21,7 C 91 % 1013,3 hPa 0,0 l/m 0,4 km/h (0 Bft) N 5 2 min 0,000 mm 2,8 UV-I 454 W/m 13,7 C 15,2 C 3,2 km/h (1 Bft) 98,11 %
11.08.2017 14:42 15,2 C 21,7 C 92 % 1013,4 hPa 0,0 l/m 0,7 km/h (0 Bft) N 5 0 min 0,000 mm 2,5 UV-I 368 W/m 13,9 C 15,2 C 3,2 km/h (1 Bft) 94,74 %
11.08.2017 14:44 15,1 C 21,7 C 91 % 1013,5 hPa 0,0 l/m 1,1 km/h (1 Bft) N 5 0 min 0,000 mm 2,4 UV-I 377 W/m 13,6 C 15,1 C 3,2 km/h (1 Bft) 100,00 %
11.08.2017 14:46 15,1 C 22,2 C 91 % 1013,4 hPa 0,0 l/m 0,4 km/h (0 Bft) N 5 0 min 0,000 mm 2,2 UV-I 369 W/m 13,6 C 15,1 C 1,6 km/h (1 Bft) 96,43 %
11.08.2017 14:48 15,1 C 21,7 C 91 % 1013,5 hPa 0,0 l/m 1,5 km/h (1 Bft) N 5 0 min 0,000 mm 1,5 UV-I 161 W/m 13,6 C 15,1 C 3,2 km/h (1 Bft) 95,65 %
11.08.2017 14:50 14,9 C 21,7 C 91 % 1013,6 hPa 0,0 l/m 0,8 km/h (0 Bft) N 5 0 min 0,000 mm 1,3 UV-I 116 W/m 13,4 C 14,9 C 3,2 km/h (1 Bft) 98,39 %
11.08.2017 14:52 14,9 C 21,7 C 90 % 1013,7 hPa 0,0 l/m 0,1 km/h (0 Bft) N 5 0 min 0,000 mm 1,1 UV-I 118 W/m 13,3 C 14,9 C 1,6 km/h (1 Bft) 97,87 %
11.08.2017 14:54 14,9 C 21,7 C 91 % 1013,7 hPa 0,0 l/m 0,0 km/h (0 Bft) N 5 0 min 0,000 mm 1,2 UV-I 135 W/m 13,4 C 14,9 C 0,0 km/h (0 Bft) 97,87 %
11.08.2017 14:56 14,9 C 21,7 C 91 % 1013,8 hPa 0,0 l/m 5,0 km/h (1 Bft) W-SW 242 0 min 0,000 mm 1,3 UV-I 165 W/m 13,4 C 14,9 C 9,7 km/h (2 Bft) 98,11 %
11.08.2017 14:58 15,0 C 22,2 C 91 % 1013,8 hPa 0,0 l/m 7,9 km/h (2 Bft) SW 231 0 min 0,000 mm 1,4 UV-I 185 W/m 13,5 C 14,2 C 12,9 km/h (3 Bft) 93,62 %
11.08.2017 15:00 15,1 C 21,7 C 91 % 1013,9 hPa 0,0 l/m 10,3 km/h (2 Bft) S-SW 211 0 min 0,177 mm 1,6 UV-I 237 W/m 13,6 C 13,1 C 17,7 km/h (3 Bft) 95,74 %
11.08.2017 15:02 15,2 C 21,7 C 91 % 1013,9 hPa 0,0 l/m 9,4 km/h (2 Bft) W-SW 252 0 min 0,000 mm 1,4 UV-I 200 W/m 13,7 C 13,6 C 16,1 km/h (3 Bft) 95,12 %
11.08.2017 15:04 15,2 C 22,2 C 91 % 1014,0 hPa 0,0 l/m 9,9 km/h (2 Bft) SW 234 0 min 0,000 mm 1,6 UV-I 269 W/m 13,7 C 13,4 C 16,1 km/h (3 Bft) 95,74 %
11.08.2017 15:06 15,2 C 21,7 C 91 % 1014,0 hPa 0,0 l/m 11,5 km/h (2 Bft) W 271 0 min 0,000 mm 1,5 UV-I 241 W/m 13,7 C 12,7 C 19,3 km/h (3 Bft) 92,68 %
11.08.2017 15:08 15,2 C 21,7 C 90 % 1014,0 hPa 0,0 l/m 8,4 km/h (2 Bft) W 260 0 min 0,000 mm 1,1 UV-I 161 W/m 13,6 C 14,1 C 14,5 km/h (3 Bft) 94,34 %
11.08.2017 15:10 15,2 C 21,7 C 91 % 1014,1 hPa 0,0 l/m 13,3 km/h (3 Bft) W-SW 242 0 min 0,000 mm 0,7 UV-I 108 W/m 13,7 C 12,0 C 19,3 km/h (3 Bft) 96,23 %
11.08.2017 15:12 15,2 C 21,7 C 91 % 1014,1 hPa 0,0 l/m 13,7 km/h (3 Bft) SW 218 0 min 0,000 mm 0,6 UV-I 105 W/m 13,7 C 11,9 C 22,5 km/h (4 Bft) 94,87 %
11.08.2017 15:14 15,2 C 21,7 C 90 % 1014,1 hPa 0,0 l/m 16,9 km/h (3 Bft) W 264 0 min 0,000 mm 0,8 UV-I 124 W/m 13,6 C 10,8 C 25,7 km/h (4 Bft) 92,31 %
11.08.2017 15:16 15,1 C 21,7 C 90 % 1014,1 hPa 0,0 l/m 16,9 km/h (3 Bft) W-SW 237 0 min 0,000 mm 1,3 UV-I 186 W/m 13,5 C 10,7 C 24,1 km/h (4 Bft) 95,56 %
11.08.2017 15:18 15,1 C 21,7 C 90 % 1014,1 hPa 0,0 l/m 14,1 km/h (3 Bft) W-SW 258 0 min 0,000 mm 1,6 UV-I 291 W/m 13,5 C 11,6 C 22,5 km/h (4 Bft) 92,11 %
11.08.2017 15:20 15,2 C 22,2 C 90 % 1014,1 hPa 0,0 l/m 14,8 km/h (3 Bft) W-SW 254 0 min 0,000 mm 2,1 UV-I 372 W/m 13,6 C 11,5 C 24,1 km/h (4 Bft) 98,31 %
11.08.2017 15:22 15,3 C 22,2 C 91 % 1014,0 hPa 0,0 l/m 13,6 km/h (3 Bft) SW 225 2 min 0,000 mm 3,9 UV-I 644 W/m 13,8 C 12,0 C 17,7 km/h (3 Bft) 97,73 %
11.08.2017 15:24 15,5 C 22,2 C 89 % 1013,9 hPa 0,0 l/m 10,1 km/h (2 Bft) W-SW 246 2 min 0,000 mm 2,8 UV-I 596 W/m 13,7 C 13,6 C 19,3 km/h (3 Bft) 98,00 %
11.08.2017 15:26 15,6 C 22,2 C 89 % 1013,8 hPa 0,0 l/m 8,1 km/h (2 Bft) W 259 0 min 0,000 mm 2,2 UV-I 306 W/m 13,8 C 14,7 C 14,5 km/h (3 Bft) 94,74 %
11.08.2017 15:28 15,8 C 22,2 C 90 % 1013,8 hPa 0,0 l/m 11,1 km/h (2 Bft) SW 236 0 min 0,000 mm 1,8 UV-I 275 W/m 14,2 C 13,5 C 17,7 km/h (3 Bft) 98,00 %
11.08.2017 15:30 15,8 C 22,2 C 90 % 1013,8 hPa 0,0 l/m 10,4 km/h (2 Bft) W-SW 245 0 min 0,000 mm 1,4 UV-I 247 W/m 14,2 C 13,8 C 14,5 km/h (3 Bft) 96,00 %
11.08.2017 15:32 15,8 C 22,2 C 90 % 1013,7 hPa 0,0 l/m 8,6 km/h (2 Bft) W 268 0 min 0,000 mm 1,5 UV-I 270 W/m 14,2 C 14,6 C 12,9 km/h (3 Bft) 97,56 %
11.08.2017 15:34 15,8 C 22,2 C 89 % 1013,8 hPa 0,0 l/m 10,8 km/h (2 Bft) W-SW 237 0 min 0,000 mm 1,5 UV-I 276 W/m 14,0 C 13,7 C 16,1 km/h (3 Bft) 98,21 %
11.08.2017 15:36 15,8 C 22,2 C 90 % 1013,9 hPa 0,0 l/m 14,2 km/h (3 Bft) W 266 0 min 0,000 mm 1,3 UV-I 225 W/m 14,2 C 12,4 C 22,5 km/h (4 Bft) 100,00 %
11.08.2017 15:38 15,7 C 22,2 C 89 % 1014,0 hPa 0,0 l/m 13,8 km/h (3 Bft) W-SW 249 0 min 0,000 mm 0,9 UV-I 170 W/m 13,9 C 12,4 C 20,9 km/h (4 Bft) 100,00 %
11.08.2017 15:40 15,7 C 22,2 C 88 % 1014,1 hPa 0,0 l/m 17,5 km/h (3 Bft) S-SW 206 0 min 0,000 mm 0,8 UV-I 128 W/m 13,7 C 11,3 C 24,1 km/h (4 Bft) 98,00 %
11.08.2017 15:42 15,6 C 21,7 C 88 % 1014,1 hPa 0,0 l/m 17,0 km/h (3 Bft) W-SW 257 0 min 0,000 mm 0,6 UV-I 75 W/m 13,6 C 11,3 C 24,1 km/h (4 Bft) 98,00 %
11.08.2017 15:44 15,4 C 21,7 C 87 % 1014,2 hPa 0,0 l/m 15,9 km/h (3 Bft) W 261 0 min 0,000 mm 0,7 UV-I 74 W/m 13,2 C 11,4 C 25,7 km/h (4 Bft) 100,00 %
11.08.2017 15:46 15,3 C 21,7 C 88 % 1014,4 hPa 0,0 l/m 15,5 km/h (3 Bft) SW 221 0 min 0,000 mm 0,6 UV-I 68 W/m 13,3 C 11,4 C 27,4 km/h (4 Bft) 98,21 %
11.08.2017 15:48 15,3 C 21,7 C 87 % 1014,4 hPa 0,0 l/m 17,7 km/h (3 Bft) W-SW 248 0 min 0,000 mm 0,1 UV-I 55 W/m 13,1 C 10,7 C 24,1 km/h (4 Bft) 100,00 %
11.08.2017 15:50 15,2 C 21,7 C 88 % 1014,5 hPa 0,0 l/m 16,1 km/h (3 Bft) W-SW 249 0 min 0,000 mm 0,0 UV-I 59 W/m 13,2 C 11,1 C 22,5 km/h (4 Bft) 100,00 %
11.08.2017 15:52 15,2 C 21,7 C 88 % 1014,4 hPa 0,0 l/m 15,6 km/h (3 Bft) W-SW 244 0 min 0,000 mm 0,4 UV-I 71 W/m 13,2 C 11,2 C 20,9 km/h (4 Bft) 100,00 %
11.08.2017 15:54 15,1 C 21,7 C 88 % 1014,3 hPa 0,2 l/m 18,9 km/h (3 Bft) W-SW 254 0 min 0,000 mm 0,6 UV-I 74 W/m 13,1 C 10,2 C 32,2 km/h (5 Bft) 100,00 %
11.08.2017 15:56 15,1 C 21,7 C 88 % 1014,3 hPa 0,0 l/m 13,9 km/h (3 Bft) W-SW 243 0 min 0,000 mm 0,2 UV-I 58 W/m 13,1 C 11,7 C 22,5 km/h (4 Bft) 100,00 %
11.08.2017 15:58 15,0 C 21,7 C 89 % 1014,2 hPa 0,0 l/m 19,5 km/h (3 Bft) W 278 0 min 0,000 mm 0,0 UV-I 46 W/m 13,2 C 9,9 C 30,6 km/h (5 Bft) 97,87 %
11.08.2017 16:00 14,9 C 21,7 C 88 % 1014,1 hPa 0,0 l/m 19,8 km/h (3 Bft) W-SW 240 0 min 0,127 mm 0,0 UV-I 46 W/m 12,9 C 9,7 C 29,0 km/h (5 Bft) 100,00 %
11.08.2017 16:02 14,8 C 21,7 C 89 % 1013,9 hPa 0,0 l/m 12,1 km/h (2 Bft) W 263 0 min 0,000 mm 0,0 UV-I 57 W/m 13,0 C 12,0 C 22,5 km/h (4 Bft) 100,00 %
11.08.2017 16:04 14,7 C 21,7 C 89 % 1013,9 hPa 0,0 l/m 8,1 km/h (2 Bft) SW 232 0 min 0,000 mm 0,0 UV-I 66 W/m 12,9 C 13,7 C 12,9 km/h (3 Bft) 100,00 %
11.08.2017 16:06 14,7 C 21,7 C 89 % 1014,0 hPa 0,0 l/m 9,3 km/h (2 Bft) W-SW 246 0 min 0,000 mm 0,5 UV-I 75 W/m 12,9 C 13,1 C 12,9 km/h (3 Bft) 100,00 %
11.08.2017 16:08 14,7 C 21,7 C 89 % 1014,2 hPa 0,0 l/m 12,2 km/h (2 Bft) W-SW 240 0 min 0,000 mm 0,2 UV-I 63 W/m 12,9 C 11,8 C 17,7 km/h (3 Bft) 98,00 %
11.08.2017 16:10 14,6 C 21,7 C 89 % 1014,2 hPa 0,0 l/m 14,6 km/h (3 Bft) SW 234 0 min 0,000 mm 0,0 UV-I 51 W/m 12,8 C 10,8 C 20,9 km/h (4 Bft) 100,00 %
11.08.2017 16:12 14,6 C 21,7 C 89 % 1014,1 hPa 0,0 l/m 9,7 km/h (2 Bft) W-SW 255 0 min 0,000 mm 0,0 UV-I 55 W/m 12,8 C 12,8 C 16,1 km/h (3 Bft) 100,00 %
11.08.2017 16:14 14,6 C 21,7 C 89 % 1014,0 hPa 0,0 l/m 7,2 km/h (2 Bft) W 263 0 min 0,000 mm 0,0 UV-I 60 W/m 12,8 C 14,1 C 12,9 km/h (3 Bft) 97,56 %
11.08.2017 16:16 14,5 C 21,7 C 89 % 1013,9 hPa 0,0 l/m 7,7 km/h (2 Bft) W 268 0 min 0,000 mm 0,0 UV-I 58 W/m 12,7 C 13,7 C 12,9 km/h (3 Bft) 100,00 %
11.08.2017 16:18 14,5 C 21,7 C 89 % 1013,7 hPa 0,0 l/m 1,4 km/h (1 Bft) W-NW 289 0 min 0,000 mm 0,0 UV-I 61 W/m 12,7 C 14,5 C 6,4 km/h (2 Bft) 100,00 %
11.08.2017 16:20 14,5 C 21,7 C 90 % 1014,0 hPa 0,0 l/m 6,0 km/h (2 Bft) W 261 0 min 0,000 mm 0,0 UV-I 62 W/m 12,9 C 14,5 C 11,3 km/h (2 Bft) 97,73 %
11.08.2017 16:22 14,5 C 21,7 C 90 % 1014,2 hPa 0,0 l/m 8,5 km/h (2 Bft) SW 224 0 min 0,000 mm 0,0 UV-I 61 W/m 12,9 C 13,3 C 11,3 km/h (2 Bft) 100,00 %
11.08.2017 16:24 14,5 C 21,7 C 91 % 1014,2 hPa 0,2 l/m 9,1 km/h (2 Bft) S 190 0 min 0,000 mm 0,0 UV-I 63 W/m 13,0 C 13,0 C 14,5 km/h (3 Bft) 98,00 %
11.08.2017 16:26 14,5 C 21,7 C 91 % 1014,0 hPa 0,2 l/m 9,3 km/h (2 Bft) SW 227 0 min 0,000 mm 0,2 UV-I 86 W/m 13,0 C 12,9 C 17,7 km/h (3 Bft) 100,00 %
11.08.2017 16:28 14,4 C 21,7 C 91 % 1013,9 hPa 0,0 l/m 7,1 km/h (2 Bft) W-SW 240 0 min 0,000 mm 0,6 UV-I 131 W/m 12,9 C 14,0 C 11,3 km/h (2 Bft) 100,00 %
11.08.2017 16:30 14,3 C 21,7 C 91 % 1013,6 hPa 0,2 l/m 5,9 km/h (2 Bft) W-SW 252 0 min 0,000 mm 0,9 UV-I 197 W/m 12,8 C 14,3 C 8,0 km/h (2 Bft) 100,00 %
11.08.2017 16:32 14,4 C 21,7 C 92 % 1013,5 hPa 0,0 l/m 5,3 km/h (1 Bft) W-SW 252 0 min 0,000 mm 1,1 UV-I 226 W/m 13,1 C 14,4 C 8,0 km/h (2 Bft) 100,00 %
11.08.2017 16:34 14,4 C 21,7 C 92 % 1013,6 hPa 0,0 l/m 5,7 km/h (1 Bft) W-SW 248 0 min 0,000 mm 1,1 UV-I 250 W/m 13,1 C 14,4 C 11,3 km/h (2 Bft) 100,00 %
11.08.2017 16:36 14,5 C 21,7 C 93 % 1014,0 hPa 0,0 l/m 6,5 km/h (2 Bft) S-SW 204 0 min 0,000 mm 1,0 UV-I 212 W/m 13,4 C 14,5 C 9,7 km/h (2 Bft) 100,00 %
11.08.2017 16:38 14,6 C 21,7 C 93 % 1014,5 hPa 0,0 l/m 9,8 km/h (2 Bft) S-SW 202 0 min 0,000 mm 0,7 UV-I 156 W/m 13,5 C 12,8 C 12,9 km/h (3 Bft) 100,00 %
11.08.2017 16:40 14,6 C 21,7 C 93 % 1014,4 hPa 0,0 l/m 7,9 km/h (2 Bft) W-SW 250 0 min 0,000 mm 0,6 UV-I 157 W/m 13,5 C 13,7 C 11,3 km/h (2 Bft) 100,00 %
11.08.2017 16:42 14,6 C 21,7 C 92 % 1014,1 hPa 0,0 l/m 14,1 km/h (3 Bft) W-SW 244 0 min 0,000 mm 0,8 UV-I 208 W/m 13,3 C 11,0 C 19,3 km/h (3 Bft) 100,00 %
11.08.2017 16:44 14,6 C 21,7 C 93 % 1014,0 hPa 0,0 l/m 10,2 km/h (2 Bft) W-SW 242 0 min 0,000 mm 0,8 UV-I 214 W/m 13,5 C 12,6 C 14,5 km/h (3 Bft) 100,00 %
11.08.2017 16:46 14,6 C 21,7 C 93 % 1014,1 hPa 0,0 l/m 13,2 km/h (3 Bft) W-SW 250 0 min 0,000 mm 0,8 UV-I 194 W/m 13,5 C 11,3 C 17,7 km/h (3 Bft) 100,00 %
11.08.2017 16:48 14,6 C 21,7 C 93 % 1014,2 hPa 0,0 l/m 9,4 km/h (2 Bft) W-SW 243 0 min 0,000 mm 0,7 UV-I 162 W/m 13,5 C 13,0 C 14,5 km/h (3 Bft) 100,00 %
11.08.2017 16:50 14,6 C 21,7 C 92 % 1014,4 hPa 0,0 l/m 5,8 km/h (2 Bft) S-SW 205 0 min 0,000 mm 0,7 UV-I 173 W/m 13,3 C 14,6 C 11,3 km/h (2 Bft) 100,00 %
11.08.2017 16:52 14,6 C 21,7 C 92 % 1014,4 hPa 0,0 l/m 5,7 km/h (1 Bft) S-SW 213 0 min 0,000 mm 0,6 UV-I 168 W/m 13,3 C 14,6 C 11,3 km/h (2 Bft) 100,00 %
11.08.2017 16:54 14,6 C 21,7 C 92 % 1014,5 hPa 0,0 l/m 11,4 km/h (2 Bft) W-SW 245 0 min 0,000 mm 0,6 UV-I 151 W/m 13,3 C 12,1 C 16,1 km/h (3 Bft) 100,00 %
11.08.2017 16:56 14,6 C 21,7 C 92 % 1014,5 hPa 0,0 l/m 12,6 km/h (3 Bft) W 260 0 min 0,000 mm 0,5 UV-I 134 W/m 13,3 C 11,6 C 16,1 km/h (3 Bft) 98,00 %
11.08.2017 16:58 14,7 C 21,7 C 92 % 1014,5 hPa 0,0 l/m 13,2 km/h (3 Bft) W-SW 258 0 min 0,000 mm 0,5 UV-I 163 W/m 13,4 C 11,5 C 19,3 km/h (3 Bft) 97,56 %
11.08.2017 17:00 14,7 C 21,7 C 92 % 1014,5 hPa 0,0 l/m 10,7 km/h (2 Bft) W 260 0 min 0,077 mm 0,8 UV-I 242 W/m 13,4 C 12,5 C 17,7 km/h (3 Bft) 98,00 %
11.08.2017 17:02 14,8 C 21,7 C 93 % 1014,5 hPa 0,0 l/m 15,0 km/h (3 Bft) W 265 2 min 0,000 mm 1,3 UV-I 343 W/m 13,7 C 10,9 C 22,5 km/h (4 Bft) 97,56 %
11.08.2017 17:04 15,2 C 21,7 C 93 % 1014,5 hPa 0,0 l/m 7,3 km/h (2 Bft) W-SW 252 2 min 0,000 mm 1,8 UV-I 549 W/m 14,1 C 14,7 C 14,5 km/h (3 Bft) 98,21 %
11.08.2017 17:06 15,3 C 21,7 C 92 % 1014,6 hPa 0,0 l/m 8,6 km/h (2 Bft) W 279 2 min 0,000 mm 1,3 UV-I 502 W/m 14,0 C 14,1 C 14,5 km/h (3 Bft) 97,56 %
11.08.2017 17:08 15,4 C 21,7 C 92 % 1014,7 hPa 0,0 l/m 6,4 km/h (2 Bft) SW 236 2 min 0,000 mm 1,1 UV-I 341 W/m 14,1 C 15,4 C 14,5 km/h (3 Bft) 98,00 %
11.08.2017 17:10 15,4 C 21,7 C 91 % 1014,8 hPa 0,0 l/m 9,9 km/h (2 Bft) W 267 0 min 0,000 mm 0,8 UV-I 192 W/m 13,9 C 13,6 C 14,5 km/h (3 Bft) 97,22 %
11.08.2017 17:12 15,4 C 21,7 C 90 % 1014,8 hPa 0,0 l/m 9,8 km/h (2 Bft) W 259 0 min 0,000 mm 0,8 UV-I 203 W/m 13,8 C 13,6 C 14,5 km/h (3 Bft) 96,23 %
11.08.2017 17:14 15,4 C 21,7 C 90 % 1014,7 hPa 0,0 l/m 9,9 km/h (2 Bft) W-NW 286 0 min 0,000 mm 0,8 UV-I 216 W/m 13,8 C 13,6 C 16,1 km/h (3 Bft) 94,34 %
11.08.2017 17:16 15,4 C 21,7 C 91 % 1014,5 hPa 0,0 l/m 7,1 km/h (2 Bft) W 263 0 min 0,000 mm 0,9 UV-I 222 W/m 13,9 C 15,0 C 11,3 km/h (2 Bft) 100,00 %
11.08.2017 17:18 15,4 C 21,7 C 91 % 1014,3 hPa 0,0 l/m 6,0 km/h (2 Bft) W-SW 252 0 min 0,000 mm 0,9 UV-I 236 W/m 13,9 C 15,4 C 9,7 km/h (2 Bft) 96,23 %
11.08.2017 17:20 15,5 C 21,7 C 92 % 1014,3 hPa 0,0 l/m 4,3 km/h (1 Bft) W-SW 248 0 min 0,000 mm 0,9 UV-I 234 W/m 14,2 C 15,5 C 8,0 km/h (2 Bft) 98,11 %
11.08.2017 17:22 15,6 C 21,7 C 91 % 1014,4 hPa 0,0 l/m 7,9 km/h (2 Bft) W 274 2 min 0,000 mm 0,9 UV-I 272 W/m 14,1 C 14,8 C 14,5 km/h (3 Bft) 98,00 %
11.08.2017 17:24 15,7 C 21,7 C 91 % 1014,4 hPa 0,0 l/m 4,9 km/h (1 Bft) W 281 2 min 0,000 mm 1,1 UV-I 466 W/m 14,2 C 15,7 C 11,3 km/h (2 Bft) 98,00 %
11.08.2017 17:26 15,8 C 21,7 C 90 % 1014,5 hPa 0,0 l/m 8,6 km/h (2 Bft) W 259 2 min 0,000 mm 1,1 UV-I 540 W/m 14,2 C 14,6 C 14,5 km/h (3 Bft) 97,56 %
11.08.2017 17:28 16,1 C 21,7 C 90 % 1014,5 hPa 0,0 l/m 6,6 km/h (2 Bft) W 264 2 min 0,000 mm 1,2 UV-I 555 W/m 14,5 C 16,0 C 11,3 km/h (2 Bft) 96,23 %
11.08.2017 17:30 16,3 C 21,7 C 89 % 1014,4 hPa 0,0 l/m 11,5 km/h (2 Bft) W 268 2 min 0,000 mm 1,1 UV-I 494 W/m 14,5 C 14,0 C 17,7 km/h (3 Bft) 97,73 %
11.08.2017 17:32 16,3 C 21,7 C 87 % 1014,4 hPa 0,0 l/m 9,6 km/h (2 Bft) W-SW 237 2 min 0,000 mm 1,0 UV-I 284 W/m 14,1 C 14,7 C 17,7 km/h (3 Bft) 100,00 %
11.08.2017 17:34 16,3 C 21,7 C 87 % 1014,3 hPa 0,0 l/m 11,5 km/h (2 Bft) W 277 0 min 0,000 mm 0,8 UV-I 232 W/m 14,1 C 14,0 C 19,3 km/h (3 Bft) 97,73 %
11.08.2017 17:36 16,3 C 21,7 C 88 % 1014,4 hPa 0,0 l/m 14,1 km/h (3 Bft) W 259 0 min 0,000 mm 0,7 UV-I 196 W/m 14,3 C 13,0 C 22,5 km/h (4 Bft) 100,00 %
11.08.2017 17:38 16,2 C 21,7 C 87 % 1014,3 hPa 0,0 l/m 16,5 km/h (3 Bft) W-SW 248 0 min 0,000 mm 0,6 UV-I 175 W/m 14,0 C 12,2 C 24,1 km/h (4 Bft) 100,00 %
11.08.2017 17:40 16,2 C 21,7 C 86 % 1014,3 hPa 0,0 l/m 8,7 km/h (2 Bft) W-SW 244 0 min 0,000 mm 0,5 UV-I 151 W/m 13,9 C 15,0 C 14,5 km/h (3 Bft) 98,51 %
11.08.2017 17:42 16,1 C 21,7 C 87 % 1014,3 hPa 0,0 l/m 11,3 km/h (2 Bft) W-NW 286 0 min 0,000 mm 0,5 UV-I 144 W/m 13,9 C 13,8 C 17,7 km/h (3 Bft) 100,00 %
11.08.2017 17:44 16,0 C 21,7 C 87 % 1014,4 hPa 0,0 l/m 10,9 km/h (2 Bft) SW 215 0 min 0,000 mm 0,5 UV-I 153 W/m 13,8 C 13,8 C 17,7 km/h (3 Bft) 98,00 %
11.08.2017 17:46 15,9 C 21,7 C 87 % 1014,5 hPa 0,0 l/m 14,7 km/h (3 Bft) W 269 0 min 0,000 mm 0,2 UV-I 144 W/m 13,7 C 12,4 C 20,9 km/h (4 Bft) 100,00 %
11.08.2017 17:48 15,9 C 21,7 C 87 % 1014,5 hPa 0,0 l/m 10,9 km/h (2 Bft) W 260 0 min 0,000 mm 0,3 UV-I 145 W/m 13,7 C 13,7 C 17,7 km/h (3 Bft) 100,00 %
11.08.2017 17:50 15,9 C 21,7 C 88 % 1014,4 hPa 0,0 l/m 7,4 km/h (2 Bft) SW 231 0 min 0,000 mm 0,5 UV-I 129 W/m 13,9 C 15,4 C 14,5 km/h (3 Bft) 100,00 %
11.08.2017 17:53 15,8 C 21,7 C 89 % 1014,4 hPa 0,0 l/m 9,7 km/h (2 Bft) W-SW 238 0 min 0,000 mm 0,1 UV-I 124 W/m 14,0 C 14,1 C 14,5 km/h (3 Bft) 100,00 %
11.08.2017 17:54 15,7 C 21,7 C 89 % 1014,4 hPa 0,0 l/m 12,5 km/h (3 Bft) W 280 0 min 0,000 mm 0,0 UV-I 113 W/m 13,9 C 12,9 C 17,7 km/h (3 Bft) 100,00 %
11.08.2017 17:56 15,7 C 21,7 C 88 % 1014,3 hPa 0,0 l/m 11,5 km/h (2 Bft) W 263 0 min 0,000 mm 0,0 UV-I 118 W/m 13,7 C 13,3 C 17,7 km/h (3 Bft) 100,00 %
11.08.2017 17:58 15,7 C 21,7 C 87 % 1014,3 hPa 0,0 l/m 16,1 km/h (3 Bft) W-SW 249 0 min 0,000 mm 0,0 UV-I 134 W/m 13,5 C 11,7 C 25,7 km/h (4 Bft) 100,00 %
11.08.2017 18:00 15,7 C 21,7 C 86 % 1014,3 hPa 0,0 l/m 15,7 km/h (3 Bft) W-SW 247 0 min 0,000 mm 0,0 UV-I 142 W/m 13,4 C 11,8 C 20,9 km/h (4 Bft) 100,00 %
11.08.2017 18:02 15,7 C 21,7 C 86 % 1014,3 hPa 0,0 l/m 13,1 km/h (3 Bft) W-NW 292 0 min 0,152 mm 0,0 UV-I 174 W/m 13,4 C 12,7 C 19,3 km/h (3 Bft) 98,00 %
11.08.2017 18:04 15,7 C 21,7 C 86 % 1014,2 hPa 0,0 l/m 11,7 km/h (2 Bft) W-SW 248 2 min 0,000 mm 0,5 UV-I 212 W/m 13,4 C 13,2 C 22,5 km/h (4 Bft) 97,56 %
11.08.2017 18:06 15,8 C 21,7 C 86 % 1014,3 hPa 0,0 l/m 10,7 km/h (2 Bft) W-SW 239 2 min 0,000 mm 0,6 UV-I 225 W/m 13,5 C 13,7 C 16,1 km/h (3 Bft) 100,00 %
11.08.2017 18:08 15,8 C 21,7 C 85 % 1014,3 hPa 0,0 l/m 13,1 km/h (3 Bft) W-NW 289 0 min 0,000 mm 0,6 UV-I 178 W/m 13,3 C 12,8 C 24,1 km/h (4 Bft) 100,00 %
11.08.2017 18:10 15,8 C 21,7 C 85 % 1014,3 hPa 0,0 l/m 13,5 km/h (3 Bft) W-SW 253 0 min 0,000 mm 0,6 UV-I 151 W/m 13,3 C 12,7 C 22,5 km/h (4 Bft) 100,00 %
11.08.2017 18:12 15,7 C 21,7 C 85 % 1014,3 hPa 0,0 l/m 14,4 km/h (3 Bft) W-SW 252 0 min 0,000 mm 0,6 UV-I 165 W/m 13,2 C 12,2 C 20,9 km/h (4 Bft) 100,00 %
11.08.2017 18:14 15,7 C 21,7 C 84 % 1014,2 hPa 0,0 l/m 12,6 km/h (3 Bft) W-SW 250 0 min 0,000 mm 0,5 UV-I 146 W/m 13,0 C 12,9 C 19,3 km/h (3 Bft) 100,00 %
11.08.2017 18:16 15,7 C 21,7 C 85 % 1014,2 hPa 0,0 l/m 8,8 km/h (2 Bft) W-NW 294 0 min 0,000 mm 0,5 UV-I 154 W/m 13,2 C 14,4 C 16,1 km/h (3 Bft) 98,11 %
11.08.2017 18:18 15,7 C 21,7 C 85 % 1014,2 hPa 0,0 l/m 6,7 km/h (2 Bft) W-SW 237 2 min 0,000 mm 0,6 UV-I 248 W/m 13,2 C 15,5 C 12,9 km/h (3 Bft) 100,00 %
11.08.2017 18:20 15,8 C 21,7 C 84 % 1014,1 hPa 0,0 l/m 9,9 km/h (2 Bft) W-SW 245 2 min 0,000 mm 0,6 UV-I 278 W/m 13,1 C 14,0 C 16,1 km/h (3 Bft) 96,00 %
11.08.2017 18:22 15,8 C 21,7 C 84 % 1014,1 hPa 0,0 l/m 11,5 km/h (2 Bft) SW 227 0 min 0,000 mm 0,5 UV-I 96 W/m 13,1 C 13,4 C 17,7 km/h (3 Bft) 98,00 %
11.08.2017 18:24 15,8 C 21,7 C 84 % 1014,2 hPa 0,0 l/m 7,3 km/h (2 Bft) W-SW 251 0 min 0,000 mm 0,5 UV-I 117 W/m 13,1 C 15,3 C 12,9 km/h (3 Bft) 100,00 %
11.08.2017 18:26 15,8 C 21,7 C 85 % 1014,2 hPa 0,0 l/m 7,0 km/h (2 Bft) W-SW 244 2 min 0,000 mm 0,5 UV-I 213 W/m 13,3 C 15,5 C 12,9 km/h (3 Bft) 100,00 %
11.08.2017 18:28 15,8 C 21,7 C 85 % 1014,2 hPa 0,0 l/m 7,0 km/h (2 Bft) W-SW 254 2 min 0,000 mm 0,5 UV-I 310 W/m 13,3 C 15,5 C 11,3 km/h (2 Bft) 97,44 %
11.08.2017 18:30 15,9 C 21,7 C 84 % 1014,3 hPa 0,0 l/m 5,1 km/h (1 Bft) W 272 2 min 0,000 mm 0,1 UV-I 188 W/m 13,2 C 15,9 C 11,3 km/h (2 Bft) 96,55 %
11.08.2017 18:32 16,0 C 21,7 C 85 % 1014,3 hPa 0,0 l/m 2,9 km/h (1 Bft) S-SO 167 2 min 0,000 mm 0,0 UV-I 161 W/m 13,5 C 16,0 C 4,8 km/h (1 Bft) 97,44 %
11.08.2017 18:34 16,1 C 21,7 C 85 % 1014,3 hPa 0,0 l/m 6,4 km/h (2 Bft) SW 227 2 min 0,000 mm 0,0 UV-I 184 W/m 13,6 C 16,1 C 12,9 km/h (3 Bft) 96,43 %
11.08.2017 18:36 16,3 C 21,7 C 85 % 1014,3 hPa 0,0 l/m 6,1 km/h (2 Bft) W-SW 240 2 min 0,000 mm 0,0 UV-I 304 W/m 13,8 C 16,3 C 11,3 km/h (2 Bft) 97,87 %
11.08.2017 18:38 16,3 C 21,7 C 84 % 1014,2 hPa 0,0 l/m 11,7 km/h (2 Bft) SW 226 2 min 0,000 mm 0,0 UV-I 192 W/m 13,6 C 13,9 C 17,7 km/h (3 Bft) 95,65 %
11.08.2017 18:40 16,3 C 21,7 C 84 % 1014,2 hPa 0,0 l/m 7,6 km/h (2 Bft) W-SW 246 0 min 0,000 mm 0,0 UV-I 114 W/m 13,6 C 15,7 C 11,3 km/h (2 Bft) 97,06 %
11.08.2017 18:42 16,2 C 21,7 C 84 % 1014,2 hPa 0,0 l/m 8,7 km/h (2 Bft) W-SW 257 0 min 0,000 mm 0,0 UV-I 93 W/m 13,5 C 15,0 C 12,9 km/h (3 Bft) 95,12 %
11.08.2017 18:44 16,0 C 21,7 C 84 % 1014,1 hPa 0,0 l/m 9,4 km/h (2 Bft) W-SW 245 0 min 0,000 mm 0,0 UV-I 89 W/m 13,3 C 14,5 C 14,5 km/h (3 Bft) 98,11 %
11.08.2017 18:46 15,8 C 21,7 C 84 % 1014,2 hPa 0,0 l/m 9,8 km/h (2 Bft) W-SW 238 0 min 0,000 mm 0,0 UV-I 99 W/m 13,1 C 14,1 C 14,5 km/h (3 Bft) 97,73 %
11.08.2017 18:48 15,7 C 21,7 C 86 % 1014,3 hPa 0,0 l/m 8,1 km/h (2 Bft) W-SW 246 0 min 0,000 mm 0,0 UV-I 106 W/m 13,4 C 14,8 C 12,9 km/h (3 Bft) 98,00 %
11.08.2017 18:50 15,6 C 21,7 C 86 % 1014,3 hPa 0,0 l/m 11,2 km/h (2 Bft) W-SW 254 0 min 0,000 mm 0,0 UV-I 97 W/m 13,3 C 13,3 C 14,5 km/h (3 Bft) 98,00 %
11.08.2017 18:52 15,6 C 21,7 C 86 % 1014,3 hPa 0,0 l/m 7,8 km/h (2 Bft) W 267 0 min 0,000 mm 0,0 UV-I 97 W/m 13,3 C 14,8 C 14,5 km/h (3 Bft) 97,37 %
11.08.2017 18:54 15,5 C 21,7 C 86 % 1014,3 hPa 0,0 l/m 10,8 km/h (2 Bft) W-SW 257 0 min 0,000 mm 0,0 UV-I 93 W/m 13,2 C 13,3 C 16,1 km/h (3 Bft) 94,34 %
11.08.2017 18:56 15,5 C 21,7 C 86 % 1014,3 hPa 0,0 l/m 8,7 km/h (2 Bft) W-SW 256 0 min 0,000 mm 0,0 UV-I 81 W/m 13,2 C 14,3 C 14,5 km/h (3 Bft) 96,30 %
11.08.2017 18:58 15,4 C 21,7 C 87 % 1014,2 hPa 0,0 l/m 7,5 km/h (2 Bft) W-SW 258 0 min 0,000 mm 0,0 UV-I 75 W/m 13,2 C 14,8 C 11,3 km/h (2 Bft) 92,54 %
11.08.2017 19:00 15,4 C 21,7 C 87 % 1014,2 hPa 0,0 l/m 10,7 km/h (2 Bft) W-SW 244 0 min 0,102 mm 0,0 UV-I 85 W/m 13,2 C 13,3 C 16,1 km/h (3 Bft) 94,74 %
11.08.2017 19:02 15,3 C 21,7 C 87 % 1014,3 hPa 0,0 l/m 8,9 km/h (2 Bft) SW 225 0 min 0,000 mm 0,0 UV-I 61 W/m 13,1 C 14,0 C 12,9 km/h (3 Bft) 96,23 %
11.08.2017 19:04 15,3 C 21,7 C 88 % 1014,4 hPa 0,0 l/m 8,1 km/h (2 Bft) W 264 0 min 0,000 mm 0,0 UV-I 53 W/m 13,3 C 14,4 C 11,3 km/h (2 Bft) 95,24 %
11.08.2017 19:06 15,3 C 21,7 C 88 % 1014,4 hPa 0,0 l/m 11,9 km/h (2 Bft) W-SW 238 0 min 0,000 mm 0,0 UV-I 54 W/m 13,3 C 12,7 C 17,7 km/h (3 Bft) 95,74 %
11.08.2017 19:08 15,3 C 21,7 C 88 % 1014,4 hPa 0,0 l/m 14,7 km/h (3 Bft) W-SW 251 0 min 0,000 mm 0,0 UV-I 49 W/m 13,3 C 11,7 C 19,3 km/h (3 Bft) 96,00 %
11.08.2017 19:10 15,3 C 21,7 C 87 % 1014,5 hPa 0,0 l/m 14,2 km/h (3 Bft) W-SW 252 0 min 0,000 mm 0,0 UV-I 41 W/m 13,1 C 11,8 C 22,5 km/h (4 Bft) 98,00 %
11.08.2017 19:13 15,2 C 21,7 C 86 % 1014,5 hPa 0,0 l/m 13,5 km/h (3 Bft) W 267 0 min 0,000 mm 0,0 UV-I 32 W/m 12,9 C 11,9 C 19,3 km/h (3 Bft) 92,54 %
11.08.2017 19:14 15,2 C 21,7 C 87 % 1014,5 hPa 0,0 l/m 12,2 km/h (2 Bft) W-SW 244 0 min 0,000 mm 0,0 UV-I 40 W/m 13,0 C 12,4 C 16,1 km/h (3 Bft) 96,30 %
11.08.2017 19:16 15,2 C 21,7 C 87 % 1014,5 hPa 0,0 l/m 11,4 km/h (2 Bft) W-SW 248 0 min 0,000 mm 0,0 UV-I 45 W/m 13,0 C 12,7 C 17,7 km/h (3 Bft) 97,56 %
11.08.2017 19:18 15,2 C 21,7 C 87 % 1014,6 hPa 0,0 l/m 12,3 km/h (3 Bft) W-SW 246 0 min 0,000 mm 0,0 UV-I 40 W/m 13,0 C 12,4 C 17,7 km/h (3 Bft) 92,00 %
11.08.2017 19:20 15,2 C 21,7 C 87 % 1014,6 hPa 0,0 l/m 10,1 km/h (2 Bft) W-SW 257 0 min 0,000 mm 0,0 UV-I 40 W/m 13,0 C 13,3 C 16,1 km/h (3 Bft) 95,74 %
11.08.2017 19:22 15,2 C 21,7 C 87 % 1014,6 hPa 0,0 l/m 10,4 km/h (2 Bft) W-SW 252 0 min 0,000 mm 0,0 UV-I 43 W/m 13,0 C 13,2 C 16,1 km/h (3 Bft) 96,23 %
11.08.2017 19:24 15,2 C 21,7 C 87 % 1014,7 hPa 0,0 l/m 11,9 km/h (2 Bft) W-SW 256 0 min 0,000 mm 0,0 UV-I 36 W/m 13,0 C 12,5 C 19,3 km/h (3 Bft) 95,12 %
11.08.2017 19:26 15,2 C 21,7 C 87 % 1014,7 hPa 0,0 l/m 6,7 km/h (2 Bft) W-SW 248 0 min 0,000 mm 0,0 UV-I 31 W/m 13,0 C 15,0 C 12,9 km/h (3 Bft) 94,74 %
11.08.2017 19:29 15,2 C 21,7 C 87 % 1014,7 hPa 0,0 l/m 7,3 km/h (2 Bft) W-SW 254 0 min 0,000 mm 0,0 UV-I 27 W/m 13,0 C 14,7 C 11,3 km/h (2 Bft) 96,25 %
11.08.2017 19:30 15,2 C 21,7 C 87 % 1014,7 hPa 0,0 l/m 8,2 km/h (2 Bft) W 265 0 min 0,000 mm 0,0 UV-I 24 W/m 13,0 C 14,2 C 11,3 km/h (2 Bft) 100,00 %
11.08.2017 19:32 15,2 C 21,7 C 87 % 1014,8 hPa 0,0 l/m 7,4 km/h (2 Bft) W-SW 253 0 min 0,000 mm 0,0 UV-I 21 W/m 13,0 C 14,6 C 11,3 km/h (2 Bft) 98,11 %
11.08.2017 19:34 15,1 C 21,7 C 87 % 1014,8 hPa 0,0 l/m 12,4 km/h (3 Bft) S-SW 210 0 min 0,000 mm 0,0 UV-I 17 W/m 13,0 C 12,2 C 17,7 km/h (3 Bft) 96,00 %
11.08.2017 19:36 15,1 C 21,7 C 87 % 1014,9 hPa 0,0 l/m 8,2 km/h (2 Bft) W-SW 251 0 min 0,000 mm 0,0 UV-I 14 W/m 13,0 C 14,1 C 12,9 km/h (3 Bft) 98,00 %
11.08.2017 19:38 15,1 C 21,7 C 87 % 1014,9 hPa 0,0 l/m 7,2 km/h (2 Bft) W-SW 250 0 min 0,000 mm 0,0 UV-I 12 W/m 13,0 C 14,6 C 11,3 km/h (2 Bft) 97,56 %
11.08.2017 19:40 15,1 C 21,7 C 87 % 1014,9 hPa 0,0 l/m 6,5 km/h (2 Bft) W-SW 238 0 min 0,000 mm 0,0 UV-I 12 W/m 13,0 C 15,1 C 12,9 km/h (3 Bft) 96,23 %
11.08.2017 19:42 15,1 C 21,7 C 87 % 1014,9 hPa 0,0 l/m 7,7 km/h (2 Bft) SW 225 0 min 0,000 mm 0,0 UV-I 11 W/m 13,0 C 14,4 C 11,3 km/h (2 Bft) 97,56 %
11.08.2017 19:44 15,1 C 21,7 C 87 % 1014,8 hPa 0,0 l/m 7,6 km/h (2 Bft) S-SW 205 0 min 0,000 mm 0,0 UV-I 11 W/m 13,0 C 14,4 C 11,3 km/h (2 Bft) 100,00 %
11.08.2017 19:46 15,1 C 21,7 C 87 % 1014,8 hPa 0,0 l/m 7,6 km/h (2 Bft) W-SW 258 0 min 0,000 mm 0,0 UV-I 11 W/m 13,0 C 14,4 C 14,5 km/h (3 Bft) 100,00 %
11.08.2017 19:48 15,1 C 21,7 C 86 % 1014,8 hPa 0,0 l/m 8,3 km/h (2 Bft) W-SW 245 0 min 0,000 mm 0,0 UV-I 10 W/m 12,8 C 14,0 C 14,5 km/h (3 Bft) 98,00 %
11.08.2017 19:50 15,1 C 21,7 C 87 % 1014,7 hPa 0,0 l/m 7,6 km/h (2 Bft) SW 236 0 min 0,000 mm 0,0 UV-I 9 W/m 13,0 C 14,4 C 14,5 km/h (3 Bft) 100,00 %
11.08.2017 19:52 15,0 C 21,7 C 87 % 1014,7 hPa 0,0 l/m 11,2 km/h (2 Bft) W-SW 246 0 min 0,000 mm 0,0 UV-I 11 W/m 12,9 C 12,6 C 19,3 km/h (3 Bft) 100,00 %
11.08.2017 19:54 15,0 C 21,7 C 87 % 1014,8 hPa 0,0 l/m 11,1 km/h (2 Bft) W-SW 254 0 min 0,000 mm 0,0 UV-I 11 W/m 12,9 C 12,6 C 17,7 km/h (3 Bft) 100,00 %
11.08.2017 19:56 15,0 C 21,7 C 87 % 1014,8 hPa 0,0 l/m 11,0 km/h (2 Bft) W-SW 247 0 min 0,000 mm 0,0 UV-I 9 W/m 12,9 C 12,7 C 20,9 km/h (4 Bft) 100,00 %
11.08.2017 19:58 15,0 C 21,7 C 87 % 1014,8 hPa 0,0 l/m 13,0 km/h (3 Bft) W-NW 288 0 min 0,000 mm 0,0 UV-I 9 W/m 12,9 C 11,9 C 17,7 km/h (3 Bft) 100,00 %
11.08.2017 20:00 14,9 C 21,7 C 87 % 1014,8 hPa 0,0 l/m 12,9 km/h (3 Bft) SW 227 0 min 0,025 mm 0,0 UV-I 9 W/m 12,8 C 11,8 C 24,1 km/h (4 Bft) 100,00 %
11.08.2017 20:02 14,9 C 21,7 C 87 % 1014,8 hPa 0,0 l/m 11,6 km/h (2 Bft) W-SW 251 0 min 0,000 mm 0,0 UV-I 9 W/m 12,8 C 12,3 C 16,1 km/h (3 Bft) 100,00 %
11.08.2017 20:04 14,9 C 21,7 C 87 % 1014,9 hPa 0,0 l/m 11,2 km/h (2 Bft) W-SW 252 0 min 0,000 mm 0,0 UV-I 11 W/m 12,8 C 12,5 C 16,1 km/h (3 Bft) 98,11 %
11.08.2017 20:06 14,9 C 21,7 C 87 % 1014,9 hPa 0,0 l/m 10,5 km/h (2 Bft) W-SW 242 0 min 0,000 mm 0,0 UV-I 11 W/m 12,8 C 12,8 C 17,7 km/h (3 Bft) 100,00 %
11.08.2017 20:08 14,9 C 21,7 C 87 % 1014,9 hPa 0,0 l/m 10,0 km/h (2 Bft) W-SW 250 0 min 0,000 mm 0,0 UV-I 11 W/m 12,8 C 13,0 C 14,5 km/h (3 Bft) 96,23 %
11.08.2017 20:10 14,9 C 21,7 C 86 % 1014,9 hPa 0,0 l/m 13,8 km/h (3 Bft) W-SW 252 0 min 0,000 mm 0,0 UV-I 11 W/m 12,6 C 11,5 C 20,9 km/h (4 Bft) 100,00 %
11.08.2017 20:12 14,9 C 21,7 C 86 % 1015,0 hPa 0,0 l/m 12,3 km/h (3 Bft) W-SW 242 2 min 0,000 mm 0,0 UV-I 11 W/m 12,6 C 12,0 C 16,1 km/h (3 Bft) 100,00 %
11.08.2017 20:14 14,8 C 21,7 C 86 % 1015,0 hPa 0,0 l/m 12,5 km/h (3 Bft) W-SW 245 0 min 0,000 mm 0,0 UV-I 11 W/m 12,5 C 11,8 C 16,1 km/h (3 Bft) 100,00 %
11.08.2017 20:16 14,8 C 21,7 C 86 % 1015,0 hPa 0,0 l/m 12,4 km/h (3 Bft) W-SW 257 0 min 0,000 mm 0,0 UV-I 11 W/m 12,5 C 11,9 C 17,7 km/h (3 Bft) 100,00 %
11.08.2017 20:18 14,8 C 21,7 C 86 % 1015,0 hPa 0,0 l/m 10,2 km/h (2 Bft) W-SW 248 0 min 0,000 mm 0,0 UV-I 9 W/m 12,5 C 12,8 C 19,3 km/h (3 Bft) 100,00 %
11.08.2017 20:20 14,8 C 21,7 C 86 % 1015,0 hPa 0,0 l/m 13,6 km/h (3 Bft) W 266 0 min 0,000 mm 0,0 UV-I 9 W/m 12,5 C 11,4 C 19,3 km/h (3 Bft) 100,00 %
11.08.2017 20:22 14,8 C 21,7 C 86 % 1015,1 hPa 0,0 l/m 11,5 km/h (2 Bft) W-SW 250 0 min 0,000 mm 0,0 UV-I 9 W/m 12,5 C 12,2 C 16,1 km/h (3 Bft) 100,00 %
11.08.2017 20:24 14,8 C 21,7 C 86 % 1015,0 hPa 0,0 l/m 10,7 km/h (2 Bft) W 281 0 min 0,000 mm 0,0 UV-I 9 W/m 12,5 C 12,6 C 16,1 km/h (3 Bft) 97,44 %
11.08.2017 20:26 14,8 C 21,7 C 85 % 1015,0 hPa 0,0 l/m 10,7 km/h (2 Bft) W-SW 255 0 min 0,000 mm 0,0 UV-I 9 W/m 12,3 C 12,6 C 17,7 km/h (3 Bft) 97,37 %
11.08.2017 20:28 14,8 C 21,7 C 85 % 1015,0 hPa 0,0 l/m 11,3 km/h (2 Bft) W-SW 240 0 min 0,000 mm 0,0 UV-I 8 W/m 12,3 C 12,3 C 17,7 km/h (3 Bft) 100,00 %
11.08.2017 20:30 14,8 C 21,7 C 86 % 1014,9 hPa 0,0 l/m 8,9 km/h (2 Bft) W 269 0 min 0,000 mm 0,0 UV-I 7 W/m 12,5 C 13,4 C 14,5 km/h (3 Bft) 100,00 %
11.08.2017 20:32 14,7 C 21,7 C 85 % 1014,9 hPa 0,0 l/m 5,4 km/h (1 Bft) W 265 0 min 0,000 mm 0,0 UV-I 5 W/m 12,2 C 14,7 C 11,3 km/h (2 Bft) 100,00 %
11.08.2017 20:34 14,7 C 21,7 C 86 % 1014,9 hPa 0,0 l/m 10,3 km/h (2 Bft) W-SW 252 0 min 0,000 mm 0,0 UV-I 5 W/m 12,4 C 12,6 C 14,5 km/h (3 Bft) 100,00 %
11.08.2017 20:36 14,7 C 21,7 C 86 % 1014,9 hPa 0,0 l/m 7,6 km/h (2 Bft) W-SW 256 0 min 0,000 mm 0,0 UV-I 5 W/m 12,4 C 14,0 C 12,9 km/h (3 Bft) 100,00 %
11.08.2017 20:38 14,6 C 21,7 C 86 % 1014,8 hPa 0,0 l/m 8,5 km/h (2 Bft) W 259 0 min 0,000 mm 0,0 UV-I 3 W/m 12,3 C 13,4 C 12,9 km/h (3 Bft) 100,00 %
11.08.2017 20:40 14,6 C 21,7 C 86 % 1014,8 hPa 0,0 l/m 8,3 km/h (2 Bft) W 270 0 min 0,000 mm 0,0 UV-I 0 W/m 12,3 C 13,5 C 12,9 km/h (3 Bft) 100,00 %
11.08.2017 20:42 14,4 C 21,7 C 86 % 1014,8 hPa 0,0 l/m 10,7 km/h (2 Bft) W-SW 249 0 min 0,000 mm 0,0 UV-I 0 W/m 12,1 C 12,1 C 16,1 km/h (3 Bft) 100,00 %
11.08.2017 20:44 14,4 C 21,7 C 87 % 1014,9 hPa 0,0 l/m 12,1 km/h (2 Bft) W 263 0 min 0,000 mm 0,0 UV-I 0 W/m 12,3 C 11,5 C 16,1 km/h (3 Bft) 100,00 %
11.08.2017 20:46 14,4 C 21,7 C 87 % 1014,9 hPa 0,0 l/m 11,8 km/h (2 Bft) W-SW 246 0 min 0,000 mm 0,0 UV-I 0 W/m 12,3 C 11,7 C 16,1 km/h (3 Bft) 100,00 %
11.08.2017 20:48 14,3 C 21,7 C 87 % 1015,0 hPa 0,0 l/m 10,8 km/h (2 Bft) SW 236 0 min 0,000 mm 0,0 UV-I 0 W/m 12,2 C 12,0 C 14,5 km/h (3 Bft) 100,00 %
11.08.2017 20:50 14,3 C 21,7 C 87 % 1015,0 hPa 0,0 l/m 11,9 km/h (2 Bft) W-SW 257 0 min 0,000 mm 0,0 UV-I 0 W/m 12,2 C 11,5 C 17,7 km/h (3 Bft) 100,00 %
11.08.2017 20:52 14,3 C 21,7 C 87 % 1015,0 hPa 0,0 l/m 11,0 km/h (2 Bft) W-SW 254 0 min 0,000 mm 0,0 UV-I 0 W/m 12,2 C 11,9 C 16,1 km/h (3 Bft) 100,00 %
11.08.2017 20:54 14,2 C 21,7 C 87 % 1015,0 hPa 0,0 l/m 11,0 km/h (2 Bft) W-SW 255 0 min 0,000 mm 0,0 UV-I 0 W/m 12,1 C 11,8 C 17,7 km/h (3 Bft) 100,00 %
11.08.2017 20:56 14,2 C 21,7 C 87 % 1015,1 hPa 0,0 l/m 10,7 km/h (2 Bft) W-SW 254 0 min 0,000 mm 0,0 UV-I 0 W/m 12,1 C 11,9 C 12,9 km/h (3 Bft) 100,00 %
11.08.2017 20:58 14,2 C 21,7 C 87 % 1015,2 hPa 0,0 l/m 7,3 km/h (2 Bft) W-SW 254 0 min 0,000 mm 0,0 UV-I 0 W/m 12,1 C 13,7 C 14,5 km/h (3 Bft) 96,43 %
11.08.2017 21:00 14,2 C 21,7 C 87 % 1015,3 hPa 0,0 l/m 7,8 km/h (2 Bft) W-SW 257 0 min 0,025 mm 0,0 UV-I 0 W/m 12,1 C 13,4 C 12,9 km/h (3 Bft) 97,87 %
11.08.2017 21:02 14,1 C 21,7 C 87 % 1015,4 hPa 0,0 l/m 6,7 km/h (2 Bft) W 270 0 min 0,000 mm 0,0 UV-I 0 W/m 12,0 C 13,9 C 11,3 km/h (2 Bft) 94,87 %
11.08.2017 21:04 14,1 C 21,7 C 87 % 1015,4 hPa 0,0 l/m 6,0 km/h (2 Bft) W 265 0 min 0,000 mm 0,0 UV-I 0 W/m 12,0 C 14,1 C 11,3 km/h (2 Bft) 97,96 %
11.08.2017 21:06 14,1 C 21,7 C 87 % 1015,5 hPa 0,0 l/m 7,3 km/h (2 Bft) S-SW 206 0 min 0,000 mm 0,0 UV-I 0 W/m 12,0 C 13,6 C 12,9 km/h (3 Bft) 98,11 %
11.08.2017 21:08 14,1 C 21,7 C 87 % 1015,5 hPa 0,0 l/m 8,4 km/h (2 Bft) SW 223 0 min 0,000 mm 0,0 UV-I 0 W/m 12,0 C 12,9 C 14,5 km/h (3 Bft) 97,44 %
11.08.2017 21:10 14,0 C 21,7 C 87 % 1015,5 hPa 0,0 l/m 6,6 km/h (2 Bft) SW 232 0 min 0,000 mm 0,0 UV-I 0 W/m 11,9 C 13,9 C 9,7 km/h (2 Bft) 98,11 %
11.08.2017 21:12 14,0 C 21,7 C 88 % 1015,5 hPa 0,0 l/m 3,5 km/h (1 Bft) W 275 0 min 0,000 mm 0,0 UV-I 0 W/m 12,0 C 14,0 C 6,4 km/h (2 Bft) 97,37 %
11.08.2017 21:14 14,0 C 21,7 C 88 % 1015,5 hPa 0,0 l/m 6,4 km/h (2 Bft) W 259 0 min 0,000 mm 0,0 UV-I 0 W/m 12,0 C 14,0 C 11,3 km/h (2 Bft) 95,74 %
11.08.2017 21:16 13,9 C 21,7 C 88 % 1015,5 hPa 0,0 l/m 5,2 km/h (1 Bft) W 262 0 min 0,000 mm 0,0 UV-I 0 W/m 11,9 C 13,9 C 9,7 km/h (2 Bft) 98,00 %
11.08.2017 21:18 13,9 C 21,7 C 88 % 1015,6 hPa 0,0 l/m 4,0 km/h (1 Bft) W 259 0 min 0,000 mm 0,0 UV-I 0 W/m 11,9 C 13,9 C 8,0 km/h (2 Bft) 96,23 %
11.08.2017 21:20 13,8 C 21,7 C 88 % 1015,5 hPa 0,0 l/m 6,9 km/h (2 Bft) W 259 0 min 0,000 mm 0,0 UV-I 0 W/m 11,8 C 13,5 C 11,3 km/h (2 Bft) 95,35 %
11.08.2017 21:22 13,8 C 21,7 C 89 % 1015,5 hPa 0,0 l/m 6,4 km/h (2 Bft) W-SW 250 0 min 0,000 mm 0,0 UV-I 0 W/m 12,0 C 13,8 C 11,3 km/h (2 Bft) 97,56 %
11.08.2017 21:24 13,7 C 21,7 C 89 % 1015,5 hPa 0,0 l/m 8,5 km/h (2 Bft) W-SW 254 0 min 0,000 mm 0,0 UV-I 0 W/m 11,9 C 12,5 C 14,5 km/h (3 Bft) 96,00 %
11.08.2017 21:26 13,7 C 21,7 C 89 % 1015,4 hPa 0,0 l/m 8,7 km/h (2 Bft) W-SW 242 0 min 0,000 mm 0,0 UV-I 0 W/m 11,9 C 12,3 C 16,1 km/h (3 Bft) 95,12 %
11.08.2017 21:28 13,7 C 21,7 C 89 % 1015,4 hPa 0,0 l/m 9,1 km/h (2 Bft) W-SW 249 0 min 0,000 mm 0,0 UV-I 0 W/m 11,9 C 12,1 C 12,9 km/h (3 Bft) 96,61 %
11.08.2017 21:30 13,6 C 21,7 C 89 % 1015,4 hPa 0,0 l/m 9,2 km/h (2 Bft) W-SW 256 0 min 0,000 mm 0,0 UV-I 0 W/m 11,8 C 12,0 C 14,5 km/h (3 Bft) 97,37 %
11.08.2017 21:32 13,6 C 21,7 C 89 % 1015,4 hPa 0,0 l/m 9,1 km/h (2 Bft) W-SW 253 0 min 0,000 mm 0,0 UV-I 0 W/m 11,8 C 12,0 C 14,5 km/h (3 Bft) 98,11 %
11.08.2017 21:34 13,6 C 21,7 C 89 % 1015,5 hPa 0,0 l/m 9,0 km/h (2 Bft) W-SW 249 0 min 0,000 mm 0,0 UV-I 0 W/m 11,8 C 12,1 C 14,5 km/h (3 Bft) 100,00 %
11.08.2017 21:36 13,5 C 21,7 C 89 % 1015,5 hPa 0,0 l/m 7,3 km/h (2 Bft) W-SW 239 0 min 0,000 mm 0,0 UV-I 0 W/m 11,7 C 12,9 C 11,3 km/h (2 Bft) 100,00 %
11.08.2017 21:38 13,4 C 21,7 C 89 % 1015,5 hPa 0,0 l/m 8,2 km/h (2 Bft) W 265 0 min 0,000 mm 0,0 UV-I 0 W/m 11,6 C 12,3 C 12,9 km/h (3 Bft) 100,00 %
11.08.2017 21:40 13,4 C 21,7 C 89 % 1015,5 hPa 0,0 l/m 7,8 km/h (2 Bft) W-SW 244 0 min 0,000 mm 0,0 UV-I 0 W/m 11,6 C 12,5 C 12,9 km/h (3 Bft) 98,00 %
11.08.2017 21:42 13,4 C 21,7 C 89 % 1015,6 hPa 0,0 l/m 7,6 km/h (2 Bft) W 259 0 min 0,000 mm 0,0 UV-I 0 W/m 11,6 C 12,7 C 12,9 km/h (3 Bft) 100,00 %
11.08.2017 21:44 13,4 C 21,7 C 89 % 1015,6 hPa 0,0 l/m 8,9 km/h (2 Bft) W-SW 240 0 min 0,000 mm 0,0 UV-I 0 W/m 11,6 C 11,9 C 14,5 km/h (3 Bft) 100,00 %
11.08.2017 21:46 13,4 C 21,7 C 89 % 1015,6 hPa 0,0 l/m 7,4 km/h (2 Bft) W-SW 247 0 min 0,000 mm 0,0 UV-I 0 W/m 11,6 C 12,8 C 11,3 km/h (2 Bft) 100,00 %
11.08.2017 21:48 13,3 C 21,7 C 89 % 1015,6 hPa 0,0 l/m 8,4 km/h (2 Bft) W-SW 252 0 min 0,000 mm 0,0 UV-I 0 W/m 11,5 C 12,1 C 14,5 km/h (3 Bft) 100,00 %
11.08.2017 21:50 13,3 C 21,7 C 89 % 1015,6 hPa 0,0 l/m 8,9 km/h (2 Bft) W-SW 246 0 min 0,000 mm 0,0 UV-I 0 W/m 11,5 C 11,8 C 11,3 km/h (2 Bft) 100,00 %
11.08.2017 21:52 13,3 C 21,7 C 89 % 1015,6 hPa 0,0 l/m 9,4 km/h (2 Bft) W-SW 250 0 min 0,000 mm 0,0 UV-I 0 W/m 11,5 C 11,5 C 14,5 km/h (3 Bft) 97,56 %
11.08.2017 21:54 13,3 C 21,7 C 89 % 1015,6 hPa 0,0 l/m 9,1 km/h (2 Bft) W-SW 251 0 min 0,000 mm 0,0 UV-I 0 W/m 11,5 C 11,7 C 16,1 km/h (3 Bft) 100,00 %
11.08.2017 21:56 13,3 C 21,7 C 89 % 1015,6 hPa 0,0 l/m 8,2 km/h (2 Bft) W-SW 243 0 min 0,000 mm 0,0 UV-I 0 W/m 11,5 C 12,2 C 12,9 km/h (3 Bft) 100,00 %
11.08.2017 21:58 13,3 C 21,1 C 89 % 1015,6 hPa 0,0 l/m 7,5 km/h (2 Bft) W-SW 238 0 min 0,000 mm 0,0 UV-I 0 W/m 11,5 C 12,6 C 14,5 km/h (3 Bft) 100,00 %
11.08.2017 22:00 13,3 C 21,7 C 88 % 1015,6 hPa 0,0 l/m 6,5 km/h (2 Bft) SW 217 0 min 0,026 mm 0,0 UV-I 0 W/m 11,4 C 13,3 C 9,7 km/h (2 Bft) 98,00 %
11.08.2017 22:02 13,2 C 21,7 C 88 % 1015,7 hPa 0,0 l/m 6,3 km/h (2 Bft) W-SW 246 0 min 0,000 mm 0,0 UV-I 0 W/m 11,3 C 13,2 C 9,7 km/h (2 Bft) 100,00 %
11.08.2017 22:04 13,2 C 21,7 C 89 % 1015,7 hPa 0,0 l/m 3,8 km/h (1 Bft) W-SW 246 0 min 0,000 mm 0,0 UV-I 0 W/m 11,4 C 13,2 C 6,4 km/h (2 Bft) 100,00 %
11.08.2017 22:06 13,2 C 21,7 C 88 % 1015,6 hPa 0,0 l/m 5,5 km/h (1 Bft) S-SW 209 0 min 0,000 mm 0,0 UV-I 0 W/m 11,3 C 13,2 C 8,0 km/h (2 Bft) 100,00 %
11.08.2017 22:08 13,2 C 21,1 C 88 % 1015,7 hPa 0,0 l/m 1,9 km/h (1 Bft) SW 215 0 min 0,000 mm 0,0 UV-I 0 W/m 11,3 C 13,2 C 4,8 km/h (1 Bft) 100,00 %
11.08.2017 22:10 13,2 C 21,1 C 88 % 1015,7 hPa 0,0 l/m 1,0 km/h (0 Bft) SW 215 0 min 0,000 mm 0,0 UV-I 0 W/m 11,3 C 13,2 C 3,2 km/h (1 Bft) 100,00 %
11.08.2017 22:12 13,2 C 21,1 C 88 % 1015,7 hPa 0,0 l/m 1,3 km/h (1 Bft) SW 215 0 min 0,000 mm 0,0 UV-I 0 W/m 11,3 C 13,2 C 3,2 km/h (1 Bft) 100,00 %
11.08.2017 22:14 13,2 C 21,1 C 89 % 1015,8 hPa 0,0 l/m 1,4 km/h (1 Bft) SW 215 0 min 0,000 mm 0,0 UV-I 0 W/m 11,4 C 13,2 C 4,8 km/h (1 Bft) 100,00 %
11.08.2017 22:16 13,2 C 21,1 C 89 % 1015,8 hPa 0,0 l/m 0,9 km/h (0 Bft) SW 215 0 min 0,000 mm 0,0 UV-I 0 W/m 11,4 C 13,2 C 3,2 km/h (1 Bft) 100,00 %
11.08.2017 22:18 13,1 C 21,1 C 89 % 1015,8 hPa 0,0 l/m 3,3 km/h (1 Bft) S-SW 207 0 min 0,000 mm 0,0 UV-I 0 W/m 11,3 C 13,1 C 8,0 km/h (2 Bft) 97,87 %
11.08.2017 22:20 13,1 C 21,1 C 89 % 1015,8 hPa 0,0 l/m 1,5 km/h (1 Bft) S-SW 207 0 min 0,000 mm 0,0 UV-I 0 W/m 11,3 C 13,1 C 4,8 km/h (1 Bft) 97,87 %
11.08.2017 22:22 13,1 C 21,1 C 89 % 1015,8 hPa 0,0 l/m 4,8 km/h (1 Bft) W-SW 244 0 min 0,000 mm 0,0 UV-I 0 W/m 11,3 C 13,1 C 6,4 km/h (2 Bft) 98,00 %
11.08.2017 22:24 13,1 C 21,1 C 89 % 1015,9 hPa 0,0 l/m 4,4 km/h (1 Bft) SW 236 0 min 0,000 mm 0,0 UV-I 0 W/m 11,3 C 13,1 C 6,4 km/h (2 Bft) 97,62 %
11.08.2017 22:26 13,1 C 21,1 C 89 % 1015,9 hPa 0,0 l/m 3,2 km/h (1 Bft) SW 236 0 min 0,000 mm 0,0 UV-I 0 W/m 11,3 C 13,1 C 4,8 km/h (1 Bft) 98,11 %
11.08.2017 22:28 13,0 C 21,1 C 89 % 1016,0 hPa 0,0 l/m 4,2 km/h (1 Bft) W-SW 247 0 min 0,000 mm 0,0 UV-I 0 W/m 11,2 C 13,0 C 6,4 km/h (2 Bft) 95,74 %
11.08.2017 22:30 13,0 C 21,1 C 89 % 1016,1 hPa 0,0 l/m 4,4 km/h (1 Bft) W 261 0 min 0,000 mm 0,0 UV-I 0 W/m 11,2 C 13,0 C 9,7 km/h (2 Bft) 100,00 %
11.08.2017 22:33 13,0 C 21,1 C 89 % 1016,0 hPa 0,0 l/m 4,8 km/h (1 Bft) W-SW 257 0 min 0,000 mm 0,0 UV-I 0 W/m 11,2 C 13,0 C 6,4 km/h (2 Bft) 95,52 %
11.08.2017 22:34 13,0 C 21,1 C 90 % 1016,0 hPa 0,0 l/m 4,2 km/h (1 Bft) W-SW 256 0 min 0,000 mm 0,0 UV-I 0 W/m 11,4 C 13,0 C 4,8 km/h (1 Bft) 93,33 %
11.08.2017 22:36 13,0 C 21,1 C 90 % 1016,0 hPa 0,0 l/m 5,6 km/h (1 Bft) W-SW 249 0 min 0,000 mm 0,0 UV-I 0 W/m 11,4 C 13,0 C 11,3 km/h (2 Bft) 98,11 %
11.08.2017 22:38 13,0 C 21,1 C 90 % 1016,0 hPa 0,0 l/m 5,9 km/h (2 Bft) W-SW 238 0 min 0,000 mm 0,0 UV-I 0 W/m 11,4 C 13,0 C 11,3 km/h (2 Bft) 95,74 %
11.08.2017 22:40 13,0 C 21,1 C 90 % 1016,1 hPa 0,0 l/m 4,6 km/h (1 Bft) W-SW 250 0 min 0,000 mm 0,0 UV-I 0 W/m 11,4 C 13,0 C 6,4 km/h (2 Bft) 94,00 %
11.08.2017 22:42 13,0 C 21,1 C 90 % 1016,1 hPa 0,0 l/m 3,3 km/h (1 Bft) W-SW 250 0 min 0,000 mm 0,0 UV-I 0 W/m 11,4 C 13,0 C 6,4 km/h (2 Bft) 97,14 %
11.08.2017 22:44 13,0 C 21,1 C 90 % 1016,1 hPa 0,0 l/m 1,5 km/h (1 Bft) W-SW 250 0 min 0,000 mm 0,0 UV-I 0 W/m 11,4 C 13,0 C 3,2 km/h (1 Bft) 98,00 %
11.08.2017 22:46 12,9 C 21,1 C 90 % 1016,1 hPa 0,0 l/m 1,9 km/h (1 Bft) W-SW 250 0 min 0,000 mm 0,0 UV-I 0 W/m 11,3 C 12,9 C 3,2 km/h (1 Bft) 98,11 %
11.08.2017 22:48 12,9 C 21,1 C 90 % 1016,1 hPa 0,0 l/m 1,5 km/h (1 Bft) W-SW 250 0 min 0,000 mm 0,0 UV-I 0 W/m 11,3 C 12,9 C 3,2 km/h (1 Bft) 96,00 %
11.08.2017 22:50 12,9 C 21,1 C 90 % 1016,1 hPa 0,0 l/m 0,3 km/h (0 Bft) W-SW 250 0 min 0,000 mm 0,0 UV-I 0 W/m 11,3 C 12,9 C 1,6 km/h (1 Bft) 100,00 %
11.08.2017 22:53 12,9 C 21,1 C 90 % 1016,2 hPa 0,0 l/m 2,3 km/h (1 Bft) W-SW 250 0 min 0,000 mm 0,0 UV-I 0 W/m 11,3 C 12,9 C 3,2 km/h (1 Bft) 97,40 %
11.08.2017 22:54 12,9 C 21,1 C 90 % 1016,2 hPa 0,0 l/m 3,0 km/h (1 Bft) W-SW 250 0 min 0,000 mm 0,0 UV-I 0 W/m 11,3 C 12,9 C 4,8 km/h (1 Bft) 90,91 %
11.08.2017 22:56 12,9 C 21,1 C 90 % 1016,1 hPa 0,0 l/m 3,2 km/h (1 Bft) W-SW 250 0 min 0,000 mm 0,0 UV-I 0 W/m 11,3 C 12,9 C 4,8 km/h (1 Bft) 98,00 %
11.08.2017 22:58 12,9 C 21,1 C 90 % 1016,1 hPa 0,0 l/m 3,2 km/h (1 Bft) W-SW 250 0 min 0,000 mm 0,0 UV-I 0 W/m 11,3 C 12,9 C 4,8 km/h (1 Bft) 98,00 %
11.08.2017 23:00 12,9 C 21,1 C 90 % 1016,2 hPa 0,0 l/m 2,9 km/h (1 Bft) W-SW 250 0 min 0,000 mm 0,0 UV-I 0 W/m 11,3 C 12,9 C 4,8 km/h (1 Bft) 97,87 %
11.08.2017 23:02 12,9 C 21,1 C 90 % 1016,2 hPa 0,0 l/m 3,4 km/h (1 Bft) W-SW 250 0 min 0,000 mm 0,0 UV-I 0 W/m 11,3 C 12,9 C 4,8 km/h (1 Bft) 95,74 %
11.08.2017 23:04 12,9 C 21,1 C 90 % 1016,2 hPa 0,0 l/m 3,4 km/h (1 Bft) W-SW 250 0 min 0,000 mm 0,0 UV-I 0 W/m 11,3 C 12,9 C 4,8 km/h (1 Bft) 94,87 %
11.08.2017 23:06 12,9 C 21,1 C 90 % 1016,2 hPa 0,0 l/m 4,2 km/h (1 Bft) W-SW 250 0 min 0,000 mm 0,0 UV-I 0 W/m 11,3 C 12,9 C 6,4 km/h (2 Bft) 96,43 %
11.08.2017 23:08 12,9 C 21,1 C 90 % 1016,2 hPa 0,0 l/m 5,1 km/h (1 Bft) W 261 0 min 0,000 mm 0,0 UV-I 0 W/m 11,3 C 12,9 C 8,0 km/h (2 Bft) 96,00 %
11.08.2017 23:10 12,9 C 21,1 C 90 % 1016,2 hPa 0,0 l/m 8,7 km/h (2 Bft) W-SW 253 0 min 0,000 mm 0,0 UV-I 0 W/m 11,3 C 11,5 C 11,3 km/h (2 Bft) 94,74 %
11.08.2017 23:12 12,9 C 21,1 C 90 % 1016,2 hPa 0,0 l/m 10,5 km/h (2 Bft) W-SW 253 0 min 0,000 mm 0,0 UV-I 0 W/m 11,3 C 10,5 C 12,9 km/h (3 Bft) 95,74 %
11.08.2017 23:14 12,8 C 21,1 C 91 % 1016,2 hPa 0,0 l/m 10,3 km/h (2 Bft) W-SW 252 0 min 0,000 mm 0,0 UV-I 0 W/m 11,4 C 10,5 C 14,5 km/h (3 Bft) 93,62 %
11.08.2017 23:16 12,8 C 21,1 C 91 % 1016,1 hPa 0,0 l/m 12,0 km/h (2 Bft) W 262 0 min 0,000 mm 0,0 UV-I 0 W/m 11,4 C 9,7 C 14,5 km/h (3 Bft) 98,11 %
11.08.2017 23:18 12,8 C 21,1 C 91 % 1016,1 hPa 0,0 l/m 10,8 km/h (2 Bft) W-SW 254 0 min 0,000 mm 0,0 UV-I 0 W/m 11,4 C 10,3 C 16,1 km/h (3 Bft) 97,56 %
11.08.2017 23:20 12,8 C 21,1 C 91 % 1016,1 hPa 0,0 l/m 10,8 km/h (2 Bft) W-SW 254 0 min 0,000 mm 0,0 UV-I 0 W/m 11,4 C 10,3 C 17,7 km/h (3 Bft) 96,00 %
11.08.2017 23:22 12,8 C 21,1 C 91 % 1015,9 hPa 0,0 l/m 13,2 km/h (3 Bft) W 269 0 min 0,000 mm 0,0 UV-I 0 W/m 11,4 C 9,2 C 17,7 km/h (3 Bft) 97,56 %
11.08.2017 23:24 12,8 C 21,1 C 91 % 1015,9 hPa 0,0 l/m 11,1 km/h (2 Bft) W-SW 250 0 min 0,000 mm 0,0 UV-I 0 W/m 11,4 C 10,1 C 14,5 km/h (3 Bft) 97,73 %
11.08.2017 23:26 12,8 C 21,1 C 91 % 1015,9 hPa 0,0 l/m 12,2 km/h (2 Bft) W-SW 252 0 min 0,000 mm 0,0 UV-I 0 W/m 11,4 C 9,7 C 16,1 km/h (3 Bft) 98,31 %
11.08.2017 23:28 12,7 C 21,1 C 91 % 1015,8 hPa 0,0 l/m 11,5 km/h (2 Bft) W 267 0 min 0,000 mm 0,0 UV-I 0 W/m 11,3 C 9,8 C 17,7 km/h (3 Bft) 97,37 %
11.08.2017 23:30 12,7 C 21,1 C 91 % 1015,8 hPa 0,0 l/m 12,5 km/h (3 Bft) W-SW 254 0 min 0,000 mm 0,0 UV-I 0 W/m 11,3 C 9,4 C 17,7 km/h (3 Bft) 96,00 %
11.08.2017 23:32 12,7 C 21,1 C 91 % 1015,9 hPa 0,0 l/m 13,5 km/h (3 Bft) W 276 0 min 0,000 mm 0,0 UV-I 0 W/m 11,3 C 9,0 C 20,9 km/h (4 Bft) 97,56 %
11.08.2017 23:34 12,7 C 21,1 C 91 % 1015,8 hPa 0,0 l/m 11,1 km/h (2 Bft) SW 236 0 min 0,000 mm 0,0 UV-I 0 W/m 11,3 C 10,0 C 16,1 km/h (3 Bft) 98,21 %
11.08.2017 23:36 12,7 C 21,1 C 91 % 1015,8 hPa 0,0 l/m 13,6 km/h (3 Bft) W-SW 252 0 min 0,000 mm 0,0 UV-I 0 W/m 11,3 C 8,9 C 22,5 km/h (4 Bft) 94,00 %
11.08.2017 23:38 12,7 C 21,1 C 91 % 1015,8 hPa 0,0 l/m 15,4 km/h (3 Bft) W 260 0 min 0,000 mm 0,0 UV-I 0 W/m 11,3 C 8,3 C 24,1 km/h (4 Bft) 100,00 %
11.08.2017 23:40 12,7 C 21,1 C 91 % 1015,8 hPa 0,0 l/m 11,5 km/h (2 Bft) SW 235 0 min 0,000 mm 0,0 UV-I 0 W/m 11,3 C 9,8 C 16,1 km/h (3 Bft) 100,00 %
11.08.2017 23:42 12,8 C 21,1 C 91 % 1015,9 hPa 0,0 l/m 11,2 km/h (2 Bft) W 271 0 min 0,000 mm 0,0 UV-I 0 W/m 11,4 C 10,1 C 14,5 km/h (3 Bft) 100,00 %
11.08.2017 23:44 12,8 C 21,1 C 91 % 1015,9 hPa 0,0 l/m 11,3 km/h (2 Bft) W-SW 238 0 min 0,000 mm 0,0 UV-I 0 W/m 11,4 C 10,1 C 19,3 km/h (3 Bft) 97,44 %
11.08.2017 23:46 12,8 C 21,1 C 91 % 1015,9 hPa 0,0 l/m 11,0 km/h (2 Bft) SW 236 0 min 0,000 mm 0,0 UV-I 0 W/m 11,4 C 10,2 C 17,7 km/h (3 Bft) 98,11 %
11.08.2017 23:48 12,8 C 21,1 C 91 % 1015,9 hPa 0,0 l/m 11,4 km/h (2 Bft) W-SW 238 0 min 0,000 mm 0,0 UV-I 0 W/m 11,4 C 10,0 C 16,1 km/h (3 Bft) 100,00 %
11.08.2017 23:50 12,8 C 21,1 C 91 % 1016,0 hPa 0,0 l/m 9,2 km/h (2 Bft) W 260 0 min 0,000 mm 0,0 UV-I 0 W/m 11,4 C 11,1 C 14,5 km/h (3 Bft) 100,00 %
11.08.2017 23:52 12,8 C 21,1 C 91 % 1016,0 hPa 0,0 l/m 9,5 km/h (2 Bft) W-SW 253 0 min 0,000 mm 0,0 UV-I 0 W/m 11,4 C 10,9 C 14,5 km/h (3 Bft) 100,00 %
11.08.2017 23:54 12,8 C 21,1 C 91 % 1016,1 hPa 0,0 l/m 7,7 km/h (2 Bft) S-SW 198 0 min 0,000 mm 0,0 UV-I 0 W/m 11,4 C 12,0 C 11,3 km/h (2 Bft) 100,00 %
11.08.2017 23:56 12,8 C 21,1 C 91 % 1016,1 hPa 0,0 l/m 7,6 km/h (2 Bft) W-SW 240 0 min 0,000 mm 0,0 UV-I 0 W/m 11,4 C 12,0 C 11,3 km/h (2 Bft) 97,62 %
11.08.2017 23:58 12,8 C 21,1 C 91 % 1016,1 hPa 0,0 l/m 8,0 km/h (2 Bft) SW 225 0 min 0,000 mm 0,0 UV-I 0 W/m 11,4 C 11,8 C 11,3 km/h (2 Bft) 100,00 %
_ Min-Zeit 08:16 21:58 18:14 13:58 - 07:04 - - - - - - 22:28 13:34 14:54 22:54
Minimum _ 12,5 C 21,1 C 84 % 1011,5 hPa - 0,0 km/h (0 Bft) - - - - - - 11,2 C 7,4 C 0,0 km/h (0 Bft) 90,91 %
_ Max-Zeit 18:38 00:00 14:22 00:24 11:14 13:34 - - 14:04 15:00 14:22 14:22 14:22 18:36 15:54 00:18
Maximum _ 16,4 C 23,3 C 97 % 1016,6 hPa 2,8 l/m 21,9 km/h
W-SW (4 Bft)
- - 2 min 0,177 mm 5,4 UV-I 969 W/m 14,7 C 16,3 C 32,2 km/h
W-SW (5 Bft)
100,00 %
Durchschnitt _ 13,8 C 22,2 C 91 % 1014,4 hPa #23,6 l/m 8,3 km/h (2 Bft) W-SW - #1:02 h #1,067 mm 1,1 UV-I 105 W/m 12,4 C 12,4 C 13,3 km/h (3 Bft) 98,16 %